[[{"header":{"parameterUnit":"m.s-1","parameterCategory":1,"la1":31.0,"la2":29.5877,"lo1":-88.7671,"lo2":-86.6584,"dy":0.0162,"dx":0.0185,"nx":115,"ny":88,"refTime":"2023-04-10T12:00:00:Z","depth":0,"parameterNumber":2,"parameterNumberName":"U-component_of_WINDS"},"data":[0.0,0.0,0.0,0.0,0.0,0.0,0.0,0.0,0.0,0.0,0.0,0.0,0.0,0.0,0.0,0.0,0.0,0.0,0.0,0.0,0.0,0.0,0.0,0.0,0.0,0.0,0.0,0.0,0.0,0.0,0.0,0.0,0.0,0.0,0.0,0.0,0.0,0.0,0.0,0.0,0.0,0.0,0.0,0.0,0.0,0.0,0.0,0.0,0.0,0.0,0.0,0.0,0.0,0.0,0.0,0.0,0.0,0.0,0.0,0.0,0.0,0.0,0.0,0.0,0.0,0.0,0.0,0.0,0.0,0.0,0.0,0.0,0.0,0.0,0.0,0.0,0.0,0.0,0.0,0.0,0.0,0.0,0.0,0.0,0.0,0.0,0.0,0.0,0.0,0.0,0.0,0.0,0.0,0.0,0.0,0.0,0.0,0.0,0.0,0.0,0.0,0.0,0.0,0.0,0.0,0.0,0.0,0.0,0.0,0.0,0.0,0.0,0.0,0.0,0.0,0.0,0.0,0.0,0.0,0.0,0.0,0.0,0.0,0.0,0.0,0.0,0.0,0.0,0.0,0.0,0.0,0.0,0.0,0.0,0.0,0.0,0.0,0.0,0.0,0.0,0.0,0.0,0.0,0.0,0.0,0.0,0.0,0.0,0.0,0.0,0.0,0.0,0.0,0.0,0.0,0.0,0.0,0.0,0.0,0.0,0.0,0.0,0.0,0.0,0.0,0.0,0.0,0.0,0.0,0.0,0.0,0.0,0.0,0.0,0.0,0.0,0.0,0.0,0.0,0.0,0.0,0.0,0.0,0.0,0.0,0.0,0.0,0.0,0.0,0.0,0.0,0.0,0.0,0.0,0.0,0.0,0.0,0.0,0.0,0.0,0.0,0.0,0.0,0.0,0.0,0.0,0.0,0.0,0.0,0.0,0.0,0.0,0.0,0.0,0.0,0.0,0.0,0.0,0.0,0.0,0.0,0.0,0.0,0.0,0.0,0.0,0.0,0.0,0.0,0.0,0.0,0.0,0.0,0.0,0.0,0.0,0.0,0.0,0.0,0.0,0.0,0.0,0.0,0.0,0.0,0.0,0.0,0.0,0.0,0.0,0.0,0.0,0.0,0.0,0.0,0.0,0.0,0.0,0.0,0.0,0.0,0.0,0.0,0.0,0.0,0.0,0.0,0.0,0.0,0.0,0.0,0.0,0.0,0.0,0.0,0.0,0.0,0.0,0.0,0.0,0.0,0.0,0.0,0.0,0.0,0.0,0.0,0.0,0.0,0.0,0.0,0.0,0.0,0.0,0.0,0.0,0.0,0.0,0.0,0.0,0.0,0.0,0.0,0.0,0.0,0.0,0.0,0.0,0.0,0.0,0.0,0.0,0.0,0.0,0.0,0.0,0.0,0.0,0.0,0.0,0.0,0.0,0.0,0.0,0.0,0.0,0.0,0.0,0.0,0.0,0.0,0.0,0.0,0.0,0.0,0.0,0.0,0.0,0.0,0.0,0.0,0.0,0.0,0.0,0.0,0.0,0.0,0.0,0.0,0.0,0.0,0.0,0.0,0.0,0.0,0.0,0.0,0.0,0.0,0.0,0.0,0.0,0.0,0.0,0.0,0.0,0.0,0.0,0.0,0.0,0.0,0.0,0.0,0.0,0.0,0.0,0.0,0.0,0.0,0.0,0.0,0.0,0.0,0.0,0.0,0.0,0.0,0.0,0.0,0.0,0.0,0.0,0.0,0.0,0.0,0.0,0.0,0.0,0.0,0.0,0.0,0.0,0.0,0.0,0.0,0.0,0.0,0.0,0.0,0.0,0.0,0.0,0.0,0.0,0.0,0.0,0.0,0.0,0.0,0.0,0.0,0.0,0.0,0.0,0.0,0.0,0.0,0.0,0.0,0.0,0.0,0.0,0.0,0.0,0.0,0.0,0.0,0.0,0.0,0.0,0.0,0.0,0.0,0.0,0.0,0.0,0.0,0.0,0.0,0.0,0.0,0.0,0.0,0.0,0.0,0.0,0.0,0.0,0.0,0.0,0.0,0.0,0.0,0.0,0.0,0.0,0.0,0.0,0.0,0.0,0.0,0.0,0.0,0.0,0.0,0.0,0.0,0.0,0.0,0.0,0.0,0.0,0.0,0.0,0.0,0.0,0.0,0.0,0.0,0.0,0.0,0.0,0.0,0.0,0.0,0.0,0.0,0.0,0.0,0.0,0.0,0.0,0.0,0.0,0.0,0.0,0.0,0.0,0.0,0.0,0.0,0.0,0.0,0.0,0.0,0.0,0.0,0.0,0.0,0.0,0.0,0.0,0.0,0.0,0.0,0.0,0.0,0.0,0.0,0.0,0.0,0.0,0.0,0.0,0.0,0.0,0.0,0.0,0.0,0.0,0.0,0.0,0.0,0.0,0.0,0.0,0.0,0.0,0.0,0.0,0.0,0.0,0.0,0.0,0.0,0.0,0.0,0.0,0.0,0.0,0.0,0.0,0.0,0.0,0.0,0.0,0.0,0.0,0.0,0.0,0.0,0.0,0.0,0.0,0.0,0.0,0.0,0.0,0.0,0.0,0.0,0.0,0.0,0.0,0.0,0.0,0.0,0.0,0.0,0.0,0.0,0.0,0.0,0.0,0.0,0.0,0.0,0.0,0.0,0.0,0.0,0.0,0.0,0.0,0.0,0.0,0.0,0.0,0.0,0.0,0.0,0.0,0.0,0.0,0.0,0.0,0.0,0.0,0.0,0.0,0.0,0.0,0.0,0.0,0.0,0.0,0.0,0.0,0.0,0.0,0.0,0.0,0.0,0.0,0.0,0.0,0.0,0.0,0.0,0.0,0.0,0.0,0.0,0.0,0.0,0.0,0.0,0.0,0.0,0.0,0.0,0.0,0.0,0.0,0.0,0.0,0.0,0.0,0.0,0.0,0.0,0.0,0.0,0.0,0.0,0.0,0.0,0.0,0.0,0.0,0.0,0.0,0.0,0.0,0.0,0.0,0.0,0.0,0.0,0.0,0.0,0.0,0.0,0.0,0.0,0.0,0.0,0.0,0.0,0.0,0.0,0.0,0.0,0.0,0.0,0.0,0.0,0.0,0.0,0.0,0.0,0.0,0.0,0.0,0.0,0.0,0.0,0.0,0.0,0.0,0.0,0.0,0.0,0.0,0.0,0.0,0.0,0.0,0.0,0.0,0.0,0.0,0.0,0.0,0.0,0.0,0.0,0.0,0.0,0.0,0.0,0.0,0.0,0.0,0.0,0.0,0.0,0.0,0.0,0.0,0.0,0.0,0.0,0.0,0.0,0.0,0.0,0.0,0.0,0.0,0.0,0.0,0.0,0.0,0.0,0.0,0.0,0.0,0.0,0.0,0.0,0.0,0.0,0.0,0.0,0.0,0.0,0.0,0.0,0.0,0.0,0.0,0.0,0.0,0.0,0.0,0.0,0.0,0.0,0.0,0.0,0.0,0.0,0.0,0.0,0.0,0.0,0.0,0.0,0.0,0.0,0.0,0.0,0.0,0.0,0.0,0.0,0.0,0.0,0.0,0.0,0.0,0.0,0.0,0.0,0.0,0.0,0.0,0.0,0.0,0.0,0.0,0.0,0.0,0.0,0.0,0.0,0.0,0.0,0.0,0.0,0.0,0.0,0.0,0.0,0.0,0.0,0.0,0.0,0.0,0.0,0.0,0.0,0.0,0.0,0.0,0.0,0.0,0.0,0.0,0.0,0.0,0.0,0.0,0.0,0.0,0.0,0.0,0.0,0.0,0.0,0.0,0.0,0.0,0.0,0.0,0.0,0.0,0.0,0.0,0.0,0.0,0.0,0.0,0.0,0.0,0.0,0.0,0.0,0.0,0.0,0.0,0.0,0.0,0.0,0.0,0.0,0.0,0.0,0.0,0.0,0.0,0.0,0.0,0.0,0.0,0.0,0.0,0.0,0.0,0.0,0.0,0.0,0.0,0.0,0.0,0.0,0.0,0.0,0.0,0.0,0.0,0.0,0.0,0.0,0.0,0.0,0.0,0.0,0.0,0.0,0.0,0.0,0.0,0.0,0.0,0.0,0.0,0.0,0.0,0.0,0.0,0.0,0.0,0.0,0.0,0.0,0.0,0.0,0.0,0.0,0.0,0.0,0.0,0.0,0.0,0.0,0.0,0.0,0.0,0.0,0.0,0.0,0.0,0.0,0.0,0.0,0.0,0.0,0.0,0.0,0.0,0.0,0.0,0.0,0.0,0.0,0.0,0.0,0.0,0.0,0.0,0.0,0.0,0.0,0.0,1.8841,0.0,0.0,0.0,0.0,0.0,0.0,0.0,0.0,0.0,0.0,0.0,0.0,0.0,0.0,0.0,0.0,0.0,0.0,0.0,0.0,0.0,0.0,0.0,0.0,0.0,0.0,0.0,0.0,0.0,0.0,0.0,0.0,0.0,0.0,0.0,0.0,0.0,0.0,0.0,0.0,0.0,0.0,0.0,0.0,0.0,0.0,0.0,0.0,0.0,0.0,0.0,0.0,0.0,0.0,0.0,0.0,0.0,0.0,0.0,0.0,0.0,0.0,0.0,0.0,0.0,0.0,0.0,0.0,0.0,0.0,0.0,0.0,0.0,0.0,0.0,0.0,0.0,0.0,0.0,0.0,0.0,0.0,0.0,0.0,0.0,0.0,0.0,0.0,0.0,0.0,0.0,0.0,0.0,0.0,0.0,0.0,0.0,0.0,0.0,0.0,0.0,0.0,0.0,0.0,0.0,0.0,0.0,0.0,0.0,0.0,1.9292,1.9292,1.9292,1.9172,1.8871,0.0,0.0,0.0,0.0,0.0,0.0,0.0,0.0,0.0,0.0,0.0,0.0,0.0,0.0,0.0,0.0,0.0,0.0,0.0,0.0,0.0,0.0,0.0,0.0,0.0,0.0,0.0,0.0,0.0,0.0,0.0,0.0,0.0,0.0,0.0,0.0,0.0,0.0,0.0,0.0,0.0,0.0,0.0,0.0,0.0,0.0,0.0,0.0,0.0,0.0,0.0,0.0,0.0,0.0,0.0,0.0,0.0,0.0,0.0,0.0,0.0,0.0,0.0,0.0,0.0,0.0,0.0,0.0,0.0,0.0,0.0,0.0,0.0,0.0,0.0,0.0,0.0,0.0,0.0,0.0,0.0,0.0,0.0,0.0,0.0,0.0,0.0,0.0,0.0,0.0,0.0,0.0,0.0,0.0,0.0,0.0,0.0,0.0,0.0,0.0,0.0,0.0,0.0,0.0,0.0,0.0,0.0,0.0,0.0,0.0,0.0,0.0,1.9292,1.9117,1.8708,0.0,0.0,0.0,0.0,0.0,0.0,0.0,0.0,0.0,0.0,0.0,0.0,0.0,0.0,0.0,0.0,0.0,0.0,0.0,0.0,0.0,0.0,0.0,0.0,0.0,0.0,0.0,0.0,0.0,0.0,0.0,0.0,0.0,0.0,0.0,0.0,0.0,0.0,0.0,0.0,0.0,0.0,0.0,0.0,0.0,0.0,0.0,0.0,0.0,0.0,0.0,0.0,0.0,0.0,0.0,0.0,0.0,0.0,0.0,0.0,0.0,0.0,0.0,0.0,0.0,0.0,0.0,0.0,0.0,0.0,0.0,0.0,0.0,0.0,0.0,0.0,0.0,0.0,0.0,0.0,0.0,0.0,0.0,0.0,0.0,0.0,0.0,0.0,0.0,0.0,0.0,0.0,0.0,0.0,0.0,0.0,0.0,0.0,0.0,0.0,0.0,0.0,0.0,0.0,0.0,0.0,0.0,0.0,0.0,0.0,1.9292,1.9292,1.9292,0.0,1.7924,0.0,0.0,0.0,0.0,0.0,0.0,0.0,0.0,0.0,0.0,0.0,0.0,0.0,0.0,0.0,0.0,0.0,0.0,0.0,0.0,0.0,0.0,0.0,0.0,0.0,0.0,0.0,0.0,0.0,0.0,0.0,0.0,0.0,0.0,0.0,0.0,0.0,0.0,0.0,0.0,0.0,0.0,0.0,0.0,0.0,0.0,0.0,0.0,0.0,0.0,0.0,0.0,0.0,0.0,0.0,0.0,0.0,0.0,0.0,0.0,0.0,0.0,0.0,0.0,0.0,0.0,0.0,0.0,0.0,0.0,0.0,0.0,0.0,0.0,0.0,0.0,0.0,0.0,0.0,0.0,0.0,0.0,0.0,0.0,0.0,0.0,0.0,0.0,0.0,0.0,0.0,0.0,0.0,0.0,0.0,0.0,0.0,0.0,0.0,0.0,0.0,0.0,0.0,0.0,0.0,0.0,0.0,0.0,0.0,0.0,1.9469,1.9469,1.937,1.8725,0.0,0.0,0.0,0.0,0.0,0.0,0.0,0.0,0.0,0.0,0.0,0.0,0.0,0.0,0.0,0.0,0.0,0.0,0.0,0.0,0.0,0.0,0.0,0.0,0.0,0.0,0.0,0.0,0.0,0.0,0.0,0.0,0.0,0.0,0.0,0.0,0.0,0.0,0.0,0.0,0.0,0.0,0.0,0.0,0.0,0.0,0.0,0.0,0.0,0.0,0.0,0.0,0.0,0.0,0.0,0.0,0.0,0.0,0.0,0.0,0.0,0.0,0.0,0.0,0.0,0.0,0.0,0.0,0.0,0.0,0.0,0.0,0.0,0.0,0.0,0.0,0.0,0.0,0.0,0.0,0.0,0.0,0.0,0.0,0.0,0.0,0.0,0.0,0.0,0.0,0.0,0.0,0.0,0.0,0.0,0.0,0.0,0.0,0.0,0.0,0.0,0.0,0.0,0.0,0.0,0.0,0.0,0.0,0.0,0.0,2.0056,1.9566,1.9508,1.9279,1.8583,1.7464,0.0,0.0,0.0,0.0,0.0,0.0,0.0,0.0,0.0,0.0,0.0,0.0,0.0,0.0,0.0,0.0,0.0,0.0,0.0,0.0,0.0,0.0,0.0,0.0,0.0,0.0,0.0,0.0,0.0,0.0,0.0,0.0,0.0,0.0,0.0,0.0,0.0,0.0,0.0,0.0,0.0,0.0,0.0,0.0,0.0,0.0,0.0,0.0,0.0,0.0,0.0,0.0,0.0,0.0,0.0,0.0,0.0,0.0,0.0,0.0,0.0,0.0,0.0,0.0,0.0,0.0,0.0,0.0,0.0,0.0,0.0,0.0,0.0,0.0,0.0,0.0,0.0,0.0,0.0,0.0,0.0,0.0,0.0,0.0,0.0,0.0,0.0,0.0,0.0,0.0,0.0,0.0,0.0,0.0,0.0,0.0,0.0,0.0,0.0,0.0,0.0,0.0,0.0,0.0,0.0,0.0,0.0,0.0,2.1154,2.0136,1.9507,1.933,1.8924,1.8445,0.0,0.0,0.0,0.0,0.0,0.0,0.0,0.0,0.0,0.0,0.0,0.0,0.0,0.0,0.0,0.0,0.0,0.0,0.0,0.0,0.0,0.0,0.0,0.0,0.0,0.0,0.0,0.0,0.0,0.0,0.0,0.0,0.0,0.0,0.0,0.0,0.0,0.0,0.0,0.0,0.0,0.0,0.0,0.0,0.0,0.0,0.0,0.0,0.0,0.0,0.0,0.0,0.0,0.0,0.0,0.0,0.0,0.0,0.0,0.0,0.0,0.0,0.0,0.0,0.0,0.0,0.0,0.0,0.0,0.0,0.0,0.0,0.0,0.0,0.0,0.0,0.0,0.0,0.0,0.0,0.0,0.0,0.0,0.0,0.0,0.0,0.0,0.0,0.0,0.0,0.0,0.0,0.0,0.0,0.0,0.0,0.0,0.0,0.0,0.0,0.0,0.0,0.0,0.0,0.0,0.0,0.0,0.0,0.0,2.1803,2.0814,2.0077,1.9696,1.9291,1.8682,0.0,0.0,0.0,0.0,0.0,0.0,0.0,0.0,0.0,0.0,0.0,0.0,0.0,0.0,0.0,0.0,0.0,0.0,0.0,0.0,0.0,0.0,0.0,0.0,0.0,0.0,0.0,0.0,0.0,0.0,0.0,0.0,0.0,0.0,0.0,0.0,0.0,0.0,0.0,0.0,0.0,0.0,0.0,0.0,0.0,0.0,0.0,0.0,0.0,0.0,0.0,0.0,0.0,0.0,0.0,0.0,0.0,0.0,0.0,0.0,0.0,0.0,0.0,0.0,0.0,0.0,0.0,0.0,0.0,0.0,0.0,0.0,0.0,0.0,0.0,0.0,0.0,0.0,0.0,0.0,0.0,0.0,0.0,0.0,0.0,0.0,0.0,0.0,0.0,0.0,0.0,0.0,0.0,0.0,0.0,0.0,0.0,0.0,0.0,0.0,0.0,0.0,0.0,0.0,0.0,0.0,0.0,0.0,0.0,2.2052,0.0,2.0495,1.9934,1.9512,1.8867,0.0,0.0,0.0,0.0,0.0,0.0,0.0,0.0,0.0,0.0,0.0,0.0,0.0,0.0,0.0,0.0,0.0,0.0,0.0,0.0,0.0,0.0,0.0,0.0,0.0,0.0,0.0,0.0,0.0,0.0,0.0,0.0,0.0,0.0,0.0,0.0,0.0,0.0,0.0,0.0,0.0,0.0,0.0,0.0,0.0,0.0,0.0,0.0,0.0,0.0,0.0,0.0,0.0,0.0,0.0,0.0,0.0,0.0,0.0,0.0,0.0,0.0,0.0,0.0,0.0,0.0,0.0,0.0,0.0,0.0,0.0,0.0,0.0,0.0,0.0,0.0,0.0,0.0,0.0,0.0,0.0,0.0,0.0,0.0,0.0,0.0,0.0,0.0,0.0,0.0,0.0,0.0,0.0,0.0,0.0,0.0,0.0,0.0,0.0,0.0,0.0,0.0,0.0,0.0,0.0,0.0,0.0,0.0,2.3135,2.1892,2.1457,2.0889,1.9989,1.9584,1.8981,0.0,0.0,0.0,0.0,0.0,0.0,0.0,0.0,0.0,0.0,0.0,0.0,0.0,0.0,0.0,0.0,0.0,0.0,0.0,0.0,0.0,0.0,0.0,0.0,0.0,0.0,0.0,0.0,0.0,0.0,0.0,0.0,0.0,0.0,0.0,0.0,0.0,0.0,0.0,0.0,0.0,0.0,0.0,0.0,0.0,0.0,0.0,0.0,0.0,0.0,0.0,0.0,0.0,0.0,0.0,0.0,0.0,0.0,0.0,0.0,0.0,0.0,0.0,0.0,0.0,0.0,0.0,0.0,0.0,0.0,0.0,0.0,0.0,0.0,0.0,0.0,0.0,0.0,0.0,0.0,0.0,0.0,0.0,0.0,0.0,0.0,0.0,0.0,0.0,0.0,0.0,0.0,0.0,0.0,0.0,0.0,0.0,0.0,0.0,0.0,0.0,0.0,0.0,0.0,0.0,0.0,0.0,0.0,0.0,2.3142,2.2706,2.2351,2.1947,2.105,2.0152,0.0,0.0,0.0,0.0,0.0,0.0,0.0,0.0,0.0,0.0,0.0,0.0,0.0,0.0,0.0,0.0,0.0,0.0,0.0,0.0,0.0,0.0,0.0,0.0,0.0,0.0,0.0,0.0,0.0,0.0,0.0,0.0,0.0,0.0,0.0,0.0,0.0,0.0,0.0,0.0,0.0,0.0,0.0,0.0,0.0,0.0,0.0,0.0,0.0,0.0,0.0,0.0,0.0,0.0,0.0,0.0,0.0,0.0,0.0,0.0,0.0,0.0,0.0,0.0,0.0,0.0,0.0,0.0,0.0,0.0,0.0,0.0,0.0,0.0,0.0,0.0,0.0,0.0,0.0,0.0,0.0,0.0,0.0,0.0,0.0,0.0,0.0,0.0,0.0,0.0,0.0,0.0,0.0,0.0,0.0,0.0,0.0,0.0,0.0,0.0,0.0,0.0,0.0,0.0,0.0,0.0,0.0,0.0,0.0,2.4675,2.428,2.3845,2.3376,2.2478,2.1471,2.039,0.0,0.0,0.0,0.0,0.0,0.0,0.0,0.0,0.0,0.0,0.0,0.0,0.0,0.0,0.0,0.0,0.0,0.0,0.0,0.0,0.0,0.0,0.0,0.0,0.0,0.0,0.0,0.0,0.0,0.0,0.0,0.0,0.0,0.0,0.0,0.0,0.0,0.0,0.0,0.0,0.0,0.0,0.0,0.0,0.0,0.0,0.0,0.0,0.0,0.0,0.0,0.0,0.0,0.0,0.0,0.0,0.0,0.0,0.0,0.0,0.0,0.0,0.0,0.0,0.0,0.0,0.0,0.0,0.0,0.0,0.0,0.0,0.0,0.0,0.0,0.0,0.0,0.0,0.0,0.0,0.0,0.0,0.0,0.0,0.0,0.0,0.0,0.0,0.0,0.0,0.0,0.0,0.0,0.0,0.0,0.0,0.0,0.0,0.0,0.0,0.0,0.0,0.0,0.0,0.0,0.0,0.0,0.0,2.6414,2.6109,2.5467,2.444,2.3895,2.284,0.0,0.0,0.0,0.0,0.0,0.0,0.0,0.0,0.0,0.0,0.0,0.0,0.0,0.0,0.0,0.0,0.0,0.0,0.0,0.0,0.0,0.0,0.0,0.0,0.0,0.0,0.0,0.0,0.0,0.0,0.0,0.0,0.0,0.0,0.0,0.0,0.0,0.0,0.0,0.0,0.0,0.0,0.0,0.0,0.0,0.0,0.0,0.0,0.0,0.0,0.0,0.0,0.0,0.0,0.0,0.0,0.0,0.0,0.0,0.0,0.0,0.0,0.0,0.0,0.0,0.0,0.0,0.0,0.0,0.0,0.0,0.0,0.0,0.0,0.0,0.0,0.0,0.0,0.0,0.0,0.0,0.0,0.0,0.0,0.0,0.0,0.0,0.0,0.0,0.0,0.0,0.0,0.0,0.0,0.0,0.0,0.0,0.0,0.0,0.0,0.0,0.0,0.0,0.0,0.0,0.0,0.0,0.0,0.0,2.7707,2.8573,2.8318,2.6903,2.559,2.4237,0.0,0.0,0.0,0.0,0.0,0.0,0.0,0.0,0.0,0.0,0.0,0.0,0.0,0.0,0.0,0.0,0.0,0.0,0.0,0.0,0.0,0.0,0.0,0.0,0.0,0.0,0.0,0.0,0.0,0.0,0.0,0.0,0.0,0.0,0.0,0.0,0.0,0.0,0.0,0.0,0.0,0.0,0.0,0.0,0.0,0.0,0.0,0.0,0.0,0.0,0.0,0.0,0.0,0.0,0.0,0.0,0.0,0.0,0.0,0.0,0.0,0.0,0.0,0.0,0.0,0.0,0.0,0.0,0.0,0.0,0.0,0.0,0.0,0.0,0.0,0.0,0.0,0.0,0.0,0.0,0.0,0.0,0.0,0.0,0.0,0.0,0.0,0.0,0.0,0.0,0.0,0.0,0.0,0.0,0.0,0.0,0.0,0.0,0.0,0.0,0.0,0.0,0.0,0.0,0.0,0.0,0.0,0.0,2.7827,2.8539,2.9947,3.0272,2.9335,2.7426,2.5803,0.0,0.0,0.0,0.0,0.0,0.0,0.0,0.0,0.0,0.0,0.0,0.0,0.0,0.0,0.0,0.0,0.0,0.0,0.0,0.0,0.0,0.0,0.0,0.0,0.0,0.0,0.0,0.0,0.0,0.0,0.0,0.0,0.0,0.0,0.0,0.0,0.0,0.0,0.0,0.0,0.0,0.0,0.0,0.0,0.0,0.0,0.0,0.0,0.0,0.0,0.0,0.0,0.0,0.0,0.0,0.0,0.0,0.0,0.0,0.0,0.0,0.0,0.0,0.0,0.0,0.0,0.0,0.0,0.0,0.0,0.0,0.0,0.0,0.0,0.0,0.0,0.0,0.0,0.0,0.0,0.0,0.0,0.0,0.0,0.0,0.0,0.0,0.0,0.0,0.0,0.0,0.0,0.0,0.0,0.0,0.0,0.0,0.0,0.0,0.0,0.0,0.0,0.0,0.0,0.0,0.0,0.0,0.0,2.8818,2.9133,3.0712,3.1506,3.1465,2.9188,2.7334,0.0,0.0,0.0,0.0,0.0,0.0,0.0,0.0,0.0,0.0,0.0,0.0,0.0,0.0,0.0,0.0,0.0,0.0,0.0,0.0,0.0,0.0,0.0,0.0,0.0,0.0,0.0,0.0,0.0,0.0,0.0,0.0,0.0,0.0,0.0,0.0,0.0,0.0,0.0,0.0,0.0,0.0,0.0,0.0,0.0,0.0,0.0,0.0,0.0,0.0,0.0,0.0,0.0,0.0,0.0,0.0,0.0,0.0,0.0,0.0,0.0,0.0,0.0,0.0,0.0,0.0,0.0,0.0,0.0,0.0,0.0,0.0,0.0,0.0,0.0,0.0,0.0,0.0,0.0,0.0,0.0,0.0,0.0,0.0,0.0,0.0,0.0,0.0,0.0,0.0,0.0,0.0,0.0,0.0,0.0,0.0,0.0,0.0,0.0,0.0,0.0,0.0,0.0,0.0,0.0,0.0,0.0,0.0,2.945,2.9978,3.1506,3.2331,3.2331,3.0015,2.805,0.0,0.0,0.0,0.0,0.0,0.0,0.0,0.0,0.0,0.0,0.0,0.0,0.0,0.0,0.0,0.0,0.0,0.0,0.0,0.0,0.0,0.0,0.0,0.0,0.0,0.0,0.0,0.0,0.0,0.0,0.0,0.0,0.0,0.0,0.0,0.0,0.0,0.0,0.0,0.0,0.0,0.0,0.0,0.0,0.0,0.0,0.0,0.0,2.9819,0.0,0.0,0.0,0.0,0.0,0.0,0.0,0.0,0.0,0.0,0.0,0.0,0.0,0.0,0.0,0.0,0.0,0.0,0.0,0.0,0.0,0.0,0.0,0.0,0.0,0.0,0.0,0.0,0.0,0.0,0.0,0.0,0.0,0.0,0.0,0.0,0.0,0.0,0.0,0.0,0.0,0.0,0.0,0.0,0.0,0.0,0.0,0.0,0.0,0.0,0.0,0.0,0.0,0.0,0.0,0.0,0.0,0.0,0.0,3.002,3.0786,3.2148,3.279,3.2551,3.0974,2.936,0.0,0.0,0.0,0.0,0.0,0.0,0.0,0.0,0.0,0.0,0.0,0.0,0.0,0.0,0.0,0.0,0.0,0.0,0.0,0.0,0.0,0.0,0.0,0.0,0.0,0.0,0.0,0.0,0.0,0.0,0.0,0.0,0.0,0.0,0.0,0.0,0.0,0.0,0.0,0.0,0.0,0.0,0.0,0.0,0.0,0.0,0.0,0.0,0.0,0.0,0.0,0.0,0.0,0.0,0.0,0.0,0.0,0.0,0.0,0.0,0.0,0.0,0.0,0.0,0.0,0.0,0.0,0.0,0.0,0.0,0.0,0.0,0.0,0.0,0.0,0.0,0.0,0.0,0.0,0.0,0.0,0.0,0.0,0.0,0.0,0.0,0.0,0.0,0.0,0.0,0.0,0.0,0.0,0.0,0.0,0.0,0.0,0.0,0.0,0.0,0.0,0.0,0.0,0.0,0.0,0.0,0.0,2.9119,3.0562,3.1483,3.2625,3.3049,3.2771,3.1928,3.0754,2.9225,0.0,0.0,0.0,0.0,0.0,0.0,0.0,0.0,0.0,0.0,0.0,0.0,0.0,0.0,0.0,0.0,0.0,0.0,0.0,0.0,0.0,0.0,0.0,0.0,0.0,0.0,0.0,0.0,0.0,0.0,0.0,0.0,0.0,0.0,0.0,0.0,0.0,0.0,2.7775,2.8154,0.0,0.0,0.0,0.0,0.0,0.0,0.0,0.0,3.0055,0.0,0.0,0.0,0.0,0.0,0.0,0.0,0.0,0.0,0.0,0.0,0.0,0.0,0.0,0.0,0.0,0.0,0.0,0.0,0.0,0.0,0.0,0.0,0.0,0.0,0.0,0.0,0.0,0.0,0.0,0.0,0.0,0.0,0.0,0.0,0.0,0.0,0.0,0.0,0.0,0.0,0.0,0.0,0.0,0.0,0.0,0.0,0.0,0.0,0.0,0.0,0.0,0.0,0.0,0.0,0.0,2.8005,2.9774,3.1074,3.1891,3.2738,3.3324,3.3578,3.2496,3.1304,3.0002,0.0,0.0,0.0,0.0,0.0,0.0,0.0,0.0,0.0,0.0,0.0,0.0,0.0,0.0,0.0,0.0,0.0,0.0,0.0,0.0,0.0,0.0,0.0,0.0,0.0,0.0,0.0,0.0,0.0,0.0,0.0,0.0,0.0,0.0,0.0,0.0,0.0,0.0,0.0,3.0147,3.0496,0.0,0.0,0.0,0.0,0.0,0.0,0.0,0.0,3.0181,0.0,0.0,0.0,0.0,0.0,0.0,0.0,0.0,0.0,0.0,0.0,0.0,0.0,0.0,0.0,0.0,0.0,0.0,0.0,0.0,0.0,0.0,0.0,0.0,0.0,0.0,0.0,0.0,0.0,0.0,0.0,0.0,0.0,0.0,0.0,0.0,0.0,0.0,0.0,0.0,0.0,0.0,0.0,0.0,0.0,0.0,0.0,0.0,0.0,0.0,0.0,0.0,0.0,0.0,0.0,2.9238,3.067,3.2019,3.3211,3.3853,3.402,3.3817,3.3046,3.1763,0.0,0.0,0.0,0.0,0.0,0.0,0.0,0.0,0.0,0.0,0.0,0.0,0.0,0.0,0.0,0.0,0.0,0.0,0.0,0.0,0.0,0.0,0.0,0.0,0.0,0.0,0.0,0.0,0.0,0.0,0.0,0.0,0.0,0.0,0.0,0.0,0.0,0.0,0.0,0.0,3.1459,3.2174,3.2919,0.0,0.0,0.0,0.0,0.0,0.0,3.0894,3.0803,0.0,0.0,0.0,0.0,0.0,0.0,0.0,0.0,0.0,0.0,0.0,0.0,0.0,0.0,0.0,0.0,0.0,0.0,0.0,0.0,0.0,0.0,0.0,0.0,0.0,0.0,0.0,0.0,0.0,0.0,0.0,0.0,0.0,0.0,0.0,0.0,0.0,0.0,0.0,0.0,0.0,0.0,0.0,0.0,0.0,0.0,0.0,0.0,0.0,0.0,0.0,0.0,0.0,0.0,0.0,3.0277,3.1506,3.2863,3.433,3.4698,3.4551,3.3945,3.3321,3.1946,0.0,0.0,0.0,0.0,0.0,0.0,0.0,0.0,0.0,0.0,0.0,0.0,0.0,0.0,0.0,0.0,0.0,0.0,0.0,0.0,0.0,0.0,0.0,0.0,0.0,0.0,0.0,0.0,0.0,0.0,0.0,0.0,0.0,0.0,0.0,0.0,0.0,0.0,0.0,0.0,0.0,3.3358,3.3812,3.3596,0.0,0.0,0.0,0.0,3.1277,3.1556,0.0,0.0,0.0,0.0,0.0,0.0,0.0,0.0,0.0,0.0,0.0,0.0,0.0,0.0,0.0,0.0,0.0,0.0,0.0,0.0,0.0,0.0,0.0,0.0,0.0,0.0,0.0,0.0,0.0,0.0,0.0,0.0,0.0,0.0,0.0,0.0,0.0,0.0,0.0,0.0,0.0,0.0,0.0,0.0,0.0,0.0,0.0,0.0,0.0,0.0,0.0,0.0,0.0,0.0,0.0,0.0,3.0681,3.1909,3.3138,3.433,3.4458,3.4422,3.4312,3.2918,3.1524,0.0,0.0,0.0,0.0,0.0,0.0,0.0,0.0,0.0,0.0,0.0,0.0,0.0,0.0,0.0,0.0,0.0,0.0,0.0,0.0,0.0,0.0,0.0,0.0,0.0,0.0,0.0,0.0,0.0,0.0,0.0,0.0,0.0,0.0,0.0,0.0,0.0,0.0,0.0,0.0,0.0,3.328,3.4631,3.3715,3.2784,0.0,0.0,3.2002,3.137,3.2266,0.0,0.0,0.0,0.0,0.0,0.0,0.0,0.0,0.0,0.0,0.0,0.0,0.0,0.0,0.0,0.0,0.0,0.0,0.0,0.0,0.0,0.0,0.0,0.0,0.0,0.0,0.0,0.0,0.0,0.0,0.0,0.0,0.0,0.0,0.0,0.0,0.0,0.0,0.0,0.0,0.0,0.0,0.0,0.0,0.0,0.0,0.0,0.0,0.0,0.0,0.0,0.0,0.0,0.0,0.0,3.0204,3.1799,3.3468,3.4753,3.5705,3.5742,3.5559,3.51,3.3743,3.2239,0.0,0.0,0.0,0.0,0.0,0.0,0.0,0.0,0.0,0.0,0.0,0.0,0.0,0.0,0.0,0.0,0.0,0.0,0.0,0.0,0.0,0.0,0.0,0.0,0.0,0.0,0.0,0.0,0.0,0.0,0.0,0.0,0.0,0.0,0.0,0.0,0.0,0.0,0.0,0.0,0.0,0.0,3.4915,3.47,0.0,0.0,0.0,3.3022,3.2524,0.0,0.0,0.0,0.0,0.0,0.0,0.0,0.0,0.0,0.0,0.0,0.0,0.0,0.0,0.0,0.0,0.0,0.0,0.0,0.0,0.0,0.0,0.0,0.0,0.0,0.0,0.0,0.0,0.0,0.0,0.0,0.0,0.0,0.0,0.0,0.0,0.0,0.0,0.0,0.0,0.0,0.0,0.0,0.0,0.0,0.0,0.0,0.0,0.0,0.0,0.0,0.0,0.0,0.0,0.0,0.0,0.0,3.2753,3.4642,3.598,3.6768,3.6896,3.6512,3.5596,3.444,0.0,0.0,0.0,0.0,0.0,0.0,0.0,0.0,0.0,0.0,0.0,0.0,0.0,0.0,0.0,0.0,0.0,0.0,0.0,0.0,0.0,0.0,0.0,0.0,0.0,0.0,0.0,2.4018,0.0,0.0,0.0,0.0,0.0,0.0,0.0,0.0,0.0,0.0,0.0,0.0,0.0,0.0,3.5075,3.5181,3.548,3.5491,0.0,0.0,3.3982,3.3697,3.4061,3.3934,0.0,0.0,0.0,0.0,0.0,0.0,0.0,0.0,0.0,0.0,0.0,0.0,0.0,0.0,0.0,0.0,0.0,0.0,0.0,0.0,0.0,0.0,0.0,0.0,0.0,0.0,0.0,0.0,0.0,0.0,0.0,0.0,0.0,0.0,0.0,0.0,0.0,0.0,0.0,0.0,0.0,0.0,0.0,0.0,0.0,0.0,0.0,0.0,0.0,0.0,0.0,0.0,0.0,0.0,3.1162,3.3122,3.4788,3.598,3.6768,3.7171,3.6786,3.5614,3.4405,3.2863,0.0,0.0,0.0,0.0,0.0,0.0,0.0,0.0,0.0,0.0,0.0,0.0,0.0,0.0,0.0,0.0,0.0,0.0,0.0,0.0,0.0,0.0,0.0,0.0,0.0,0.0,0.0,0.0,0.0,0.0,0.0,0.0,0.0,0.0,0.0,0.0,0.0,0.0,0.0,0.0,0.0,3.5121,3.5665,3.5568,3.5524,0.0,3.5189,3.4642,3.4603,3.5307,3.5269,3.3483,0.0,0.0,0.0,0.0,0.0,0.0,0.0,0.0,0.0,0.0,0.0,0.0,0.0,0.0,0.0,0.0,0.0,0.0,0.0,0.0,0.0,0.0,0.0,0.0,0.0,0.0,0.0,0.0,0.0,0.0,0.0,0.0,0.0,0.0,0.0,0.0,0.0,0.0,0.0,0.0,0.0,0.0,0.0,0.0,0.0,0.0,0.0,0.0,0.0,0.0,0.0,0.0,0.0,3.1451,3.3177,3.5266,3.6603,3.7153,3.7594,3.7299,3.6347,3.4954,3.3468,0.0,0.0,0.0,0.0,0.0,0.0,0.0,0.0,0.0,0.0,0.0,0.0,0.0,0.0,0.0,0.0,0.0,0.0,0.0,0.0,0.0,0.0,0.0,0.0,0.0,0.0,0.0,0.0,2.6996,2.7433,2.7286,0.0,0.0,0.0,0.0,0.0,0.0,0.0,0.0,0.0,0.0,3.5853,3.6408,3.6321,0.0,0.0,3.5474,3.4941,3.4394,3.4824,3.4779,3.3556,3.292,0.0,0.0,0.0,0.0,0.0,0.0,0.0,0.0,0.0,0.0,0.0,0.0,0.0,0.0,0.0,0.0,0.0,0.0,0.0,0.0,0.0,0.0,0.0,0.0,0.0,0.0,0.0,0.0,0.0,0.0,0.0,0.0,0.0,0.0,0.0,0.0,0.0,0.0,0.0,0.0,0.0,0.0,0.0,0.0,0.0,0.0,0.0,0.0,0.0,0.0,0.0,0.0,3.1964,3.3578,3.5815,3.7171,3.7556,3.7869,3.7631,3.6805,3.5339,3.3963,0.0,0.0,0.0,0.0,0.0,0.0,0.0,0.0,0.0,0.0,0.0,0.0,0.0,0.0,0.0,0.0,0.0,0.0,0.0,0.0,0.0,0.0,0.0,0.0,0.0,0.0,0.0,0.0,2.8025,2.8339,2.8128,0.0,0.0,0.0,0.0,0.0,0.0,0.0,0.0,0.0,0.0,3.6575,3.6937,3.6927,3.6738,3.6445,3.582,3.5215,3.4726,3.457,3.4219,3.3379,0.0,0.0,0.0,0.0,0.0,0.0,0.0,0.0,0.0,0.0,0.0,0.0,0.0,0.0,0.0,0.0,0.0,0.0,0.0,0.0,0.0,0.0,0.0,0.0,0.0,0.0,0.0,1.8505,0.0,0.0,1.9332,0.0,0.0,0.0,0.0,0.0,0.0,0.0,0.0,0.0,0.0,0.0,0.0,0.0,0.0,0.0,0.0,0.0,0.0,0.0,0.0,0.0,0.0,3.2753,3.4367,3.631,3.7537,3.7961,3.7998,3.7592,3.6805,3.5614,3.4222,3.2625,0.0,0.0,0.0,0.0,0.0,0.0,0.0,0.0,0.0,0.0,0.0,0.0,0.0,0.0,0.0,0.0,0.0,0.0,0.0,0.0,0.0,0.0,0.0,0.0,0.0,0.0,2.765,2.8248,2.8803,0.0,0.0,0.0,0.0,0.0,0.0,0.0,0.0,0.0,3.4655,3.6263,3.7253,3.7202,3.7256,3.7266,3.7246,3.6191,3.5527,3.5859,3.4922,3.3821,0.0,0.0,0.0,0.0,0.0,0.0,0.0,0.0,0.0,0.0,0.0,0.0,0.0,0.0,0.0,0.0,0.0,0.0,0.0,0.0,0.0,0.0,0.0,0.0,0.0,0.0,0.0,1.9172,1.9359,0.0,0.0,0.0,0.0,0.0,0.0,0.0,0.0,0.0,0.0,0.0,2.5173,2.5646,0.0,0.0,0.0,0.0,0.0,0.0,0.0,0.0,0.0,0.0,0.0,0.0,3.2514,3.4367,3.5852,3.6934,3.7556,3.7592,3.7336,3.6805,3.5632,3.4018,3.1905,0.0,0.0,0.0,0.0,0.0,0.0,0.0,0.0,0.0,0.0,0.0,0.0,0.0,0.0,0.0,0.0,0.0,0.0,0.0,0.0,0.0,0.0,0.0,0.0,0.0,2.9002,0.0,0.0,0.0,0.0,0.0,0.0,0.0,0.0,0.0,0.0,0.0,3.3587,3.53,3.6496,3.7222,3.7276,3.7312,3.7305,0.0,0.0,0.0,0.0,0.0,0.0,0.0,0.0,0.0,0.0,0.0,0.0,0.0,0.0,3.3289,3.2324,3.248,3.2874,3.3124,0.0,0.0,0.0,0.0,0.0,0.0,0.0,0.0,0.0,0.0,0.0,0.0,0.0,0.0,2.016,2.0267,2.0361,0.0,0.0,0.0,0.0,0.0,0.0,0.0,0.0,2.4493,2.4672,2.5402,2.5747,2.622,2.6819,2.7957,2.88,0.0,0.0,0.0,0.0,0.0,0.0,0.0,0.0,3.2936,3.4788,3.6017,3.6988,3.7757,3.7537,3.7263,3.6988,3.5559,3.4,3.2276,3.1979,3.1336,0.0,0.0,0.0,0.0,0.0,0.0,0.0,0.0,0.0,0.0,0.0,0.0,0.0,0.0,0.0,0.0,0.0,0.0,0.0,0.0,0.0,0.0,0.0,3.037,0.0,0.0,0.0,0.0,0.0,0.0,0.0,0.0,0.0,3.3223,3.3902,3.4883,3.6129,3.6976,3.7394,3.732,0.0,0.0,0.0,0.0,0.0,0.0,0.0,3.4961,3.4375,3.4766,3.5254,3.5547,3.5957,3.6387,3.6816,0.0,0.0,3.4785,3.4785,3.5013,3.5013,3.5715,3.6091,3.5402,3.6135,3.6831,0.0,0.0,0.0,0.0,2.1118,0.0,0.0,0.0,2.0833,2.0975,0.0,2.1542,0.0,0.0,0.0,0.0,2.3027,2.32,0.0,0.0,2.5005,2.5265,2.5643,2.5968,2.6309,2.67,2.7193,2.856,3.0677,3.0833,0.0,0.0,0.0,0.0,0.0,0.0,3.4037,3.5595,3.6731,3.7757,3.8508,3.7776,3.7354,3.7263,3.5467,3.4257,3.3798,3.3028,3.2258,3.1483,3.1373,0.0,0.0,0.0,0.0,0.0,0.0,0.0,0.0,0.0,0.0,0.0,0.0,0.0,0.0,0.0,0.0,0.0,0.0,0.0,0.0,3.0835,0.0,0.0,0.0,0.0,0.0,0.0,0.0,0.0,0.0,3.5289,3.4848,3.6075,3.7109,3.7183,0.0,0.0,0.0,0.0,3.7305,3.7344,3.6621,3.606,3.6133,3.5391,3.4824,3.4805,0.0,0.0,3.7207,3.7051,3.7027,3.7344,3.75,3.7285,3.6949,3.6812,3.6792,3.6832,3.7183,3.7281,3.6949,3.7496,3.8083,2.4965,0.0,0.0,0.0,0.0,2.225,2.2418,2.2558,2.302,2.3113,2.3054,2.3134,0.0,0.0,0.0,0.0,0.0,0.0,2.4151,2.5052,2.5087,2.538,2.5872,2.6194,2.6475,2.6782,2.7809,2.9093,3.0585,3.1811,3.249,3.2738,0.0,0.0,0.0,0.0,3.4386,3.5962,3.6677,3.7354,3.8142,3.7373,3.6695,3.6108,3.5577,3.4771,3.3818,3.3596,3.3083,3.2309,3.1446,0.0,0.0,0.0,0.0,0.0,0.0,0.0,0.0,0.0,0.0,0.0,0.0,0.0,0.0,0.0,0.0,0.0,0.0,0.0,3.134,3.162,3.191,0.0,0.0,0.0,0.0,0.0,0.0,0.0,0.0,0.0,3.7818,3.723,3.7034,0.0,0.0,3.7441,3.7305,3.7305,3.7519,3.8125,3.748,0.0,3.8144,3.7305,3.6562,3.6562,3.6977,3.7656,3.8516,3.9082,3.9453,3.957,3.9863,4.0057,3.9901,3.9138,3.8652,3.8906,3.9316,3.9336,3.873,3.9414,4.0234,2.6714,2.5724,2.4595,2.3921,2.3556,2.3527,2.3636,2.3839,2.4222,2.4275,2.4128,2.4272,2.3991,2.3429,2.3617,0.0,0.0,0.0,2.4904,2.5648,2.5633,2.5824,2.6132,2.6306,2.648,2.668,2.7527,2.9022,3.1051,3.2005,3.3429,3.512,0.0,3.3395,3.424,3.4458,3.5247,3.6641,3.7061,3.7501,3.7998,3.7208,3.6493,3.5852,3.5705,3.5229,3.455,3.422,3.3743,3.3101,3.2074,3.1396,0.0,0.0,0.0,0.0,0.0,0.0,0.0,0.0,0.0,0.0,0.0,2.7838,2.8252,0.0,0.0,0.0,3.0862,3.1763,3.2643,3.2958,0.0,0.0,0.0,0.0,0.0,0.0,0.0,3.7913,3.8437,3.8906,3.9394,3.8594,3.8066,3.8343,3.8203,3.8047,3.8047,0.0,3.8301,3.9041,3.8496,3.832,3.9062,3.8555,3.8164,3.8516,3.8926,3.9355,3.9883,4.0566,4.0937,4.0859,4.0996,4.1269,4.1426,4.0879,4.041,4.041,4.0605,4.0664,4.0469,4.0996,4.1602,2.8167,2.7689,2.548,2.4852,2.5211,2.4417,2.4329,2.4773,2.4813,2.4786,2.4786,2.5077,2.4863,2.4302,2.4315,0.0,2.5518,2.5518,2.5812,2.6386,2.64,2.6413,2.6453,2.6506,2.6506,2.6507,2.676,2.8617,3.1841,3.1896,3.372,3.7259,3.5595,3.4862,3.5192,3.5522,3.6255,3.7448,3.7814,3.7977,3.7998,3.7111,3.6527,3.6237,3.5815,3.5577,3.5541,3.4807,3.4202,3.3853,3.301,3.2056,3.1011,0.0,0.0,0.0,0.0,0.0,0.0,0.0,0.0,0.0,0.0,0.0,0.0,0.0,0.0,0.0,3.2438,0.0,3.3837,3.4606,0.0,0.0,0.0,3.6529,3.6944,3.7964,3.8848,3.9297,0.0,0.0,4.0,4.0019,3.9883,3.9414,3.9297,3.9258,3.9258,3.9219,3.9434,3.9844,3.9551,3.9277,3.9453,3.9394,3.9609,4.0293,4.0918,4.1074,4.1191,4.1465,4.1601,4.1289,4.1289,4.1445,4.1777,4.2109,4.2246,4.1563,4.1406,4.1582,4.2168,4.2129,4.2266,2.8209,2.7659,2.6921,2.641,2.6141,2.6105,2.6172,2.628,2.6547,2.652,2.6253,2.6146,2.5758,2.5197,2.5197,2.5317,2.5518,2.5518,2.5825,2.6373,2.64,2.6627,2.7054,2.7054,2.7215,2.7388,2.7455,2.9216,3.249,3.2848,3.4472,3.7276,3.7208,3.7062,3.6805,3.6621,3.6951,3.7869,3.7961,3.8016,3.7959,3.6227,3.5725,3.662,3.5669,3.5266,3.5595,3.4532,3.4055,3.422,3.2918,3.2148,3.2166,3.1286,0.0,0.0,0.0,0.0,0.0,0.0,0.0,0.0,0.0,2.9947,3.0332,0.0,3.2394,0.0,3.3919,3.4574,3.4715,3.5412,0.0,0.0,3.6979,3.7934,3.861,3.8988,3.9524,4.0625,4.0839,4.0898,4.0859,4.1152,4.1191,4.0762,4.0137,3.9746,3.9726,3.9726,3.9883,4.0234,4.0019,3.9961,4.0566,4.0703,4.0781,4.0976,4.1152,4.1308,4.1601,4.1719,4.1758,4.168,4.1933,4.2109,4.2206,4.2637,4.2969,4.3027,4.2851,4.2716,4.2891,4.2851,4.2969,2.8925,2.8484,2.8323,2.7989,2.7535,2.7041,2.6974,2.7215,2.7282,2.7362,2.7388,2.7135,2.6867,2.668,2.6547,2.6627,2.6867,2.6747,2.6974,2.7362,2.7269,2.7389,2.7697,2.7697,2.8111,2.884,2.9021,3.0791,3.3909,3.4398,3.5709,3.7901,3.8142,3.8142,3.7922,3.7702,3.7904,3.8508,3.8343,3.7789,3.6884,3.6079,3.6052,3.6749,3.5814,3.5285,3.5358,3.4216,3.3695,3.3837,3.2383,3.1712,3.2014,3.1298,3.0815,0.0,0.0,0.0,0.0,0.0,0.0,0.0,0.0,0.0,0.0,0.0,3.3702,3.4484,3.5129,3.5557,3.576,3.6512,3.7012,3.711,3.8196,3.9143,3.9836,4.0202,4.0686,4.1387,4.1621,4.166,4.1484,4.1816,4.1992,4.1758,4.1328,4.0879,4.0527,4.0469,4.0566,4.0762,4.0605,4.0605,4.1152,4.1211,4.125,4.1465,4.1621,4.1875,4.2305,4.2519,4.2598,4.2422,4.2558,4.2656,4.25,4.2949,4.3437,4.3613,4.3691,4.3808,4.4141,4.4082,4.4062,2.9913,2.9691,2.965,2.9419,2.9001,2.7641,2.7402,2.7856,2.7643,2.7791,2.8232,2.7936,2.7978,2.8165,2.7924,2.8043,2.8524,2.8312,2.8353,2.8577,2.8366,2.8259,2.8299,2.8299,2.895,3.0098,3.0412,3.2078,3.5069,3.5524,3.6638,3.8348,3.8627,3.8747,3.8747,3.8547,3.8537,3.8773,3.8286,3.7131,3.5356,3.586,3.629,3.65,3.5674,3.513,3.486,3.3651,3.3012,3.3001,3.1704,3.1054,3.1371,3.1196,3.1117,0.0,3.1653,0.0,0.0,0.0,0.0,0.0,0.0,0.0,0.0,3.4018,3.5027,3.5797,3.6127,3.6493,3.6952,3.7666,3.819,3.8378,3.9382,4.0267,4.0779,4.1423,4.1835,4.1953,4.2285,4.2344,4.1973,4.2206,4.25,4.2343,4.2284,4.2031,4.1484,4.1308,4.125,4.123,4.1211,4.1132,4.123,4.1269,4.1504,4.1836,4.2207,4.2656,4.3066,4.3418,4.3574,4.332,4.3361,4.3223,4.2713,4.3359,4.3828,4.3848,4.416,4.4629,4.5117,4.4941,4.5039,3.0808,3.0515,3.0333,3.002,2.9686,2.8895,2.8641,2.8735,2.8681,2.8631,2.8511,2.8457,2.8379,2.8192,2.8125,2.8165,2.8272,2.8205,2.8353,2.8604,2.8551,2.8644,2.8858,2.8828,2.8961,2.9238,2.9075,3.0198,3.2478,3.3739,3.5419,3.739,3.8901,3.9652,3.9512,0.0,0.0,0.0,3.5538,3.4904,3.4764,3.3408,3.3483,3.5128,3.3883,0.0,3.3501,3.2123,3.1502,3.1792,3.098,0.0,0.0,0.0,0.0,0.0,0.0,0.0,0.0,0.0,0.0,0.0,3.5815,3.5504,3.4661,3.565,3.6548,3.7006,3.7116,3.7356,3.7759,3.849,3.913,3.9549,4.0341,4.1213,4.1946,4.1937,4.204,4.2752,4.291,4.2793,4.2382,4.2695,4.2812,4.2539,4.2382,4.2323,4.2167,4.1875,4.1562,4.1308,4.1191,4.1191,4.1211,4.1738,4.2148,4.2344,4.2676,4.3086,4.3476,4.3613,4.3848,4.4004,4.4433,4.4473,4.4062,4.4433,4.457,4.4316,4.459,4.4844,4.4668,4.4277,4.418,3.1142,3.0996,3.0849,3.0702,0.0,2.994,2.978,2.9828,2.9446,2.9259,2.9245,2.9259,2.9245,2.9276,2.9129,2.9142,2.9276,2.9129,2.9098,2.9259,2.9259,2.9325,2.9428,2.9428,2.9819,3.0528,3.0375,3.1224,3.3005,3.4674,3.6083,3.7117,3.8029,3.8483,3.84,3.6667,3.5094,3.3733,3.409,3.3762,3.2798,3.2436,3.2674,3.3588,3.2523,0.0,0.0,0.0,0.0,0.0,0.0,0.0,0.0,3.1391,0.0,3.4535,3.4881,3.5431,3.6383,3.6658,3.6897,3.7081,3.7446,3.7263,3.6255,3.675,3.7336,3.7922,3.7995,3.8234,3.89,3.93,3.9741,4.0142,4.0745,4.1463,4.223,4.2444,4.2592,4.2971,4.3256,4.3223,4.2812,4.3125,4.3301,4.3105,4.3047,4.2887,4.2451,4.2047,4.1621,4.0977,4.1267,4.1442,4.1327,4.1913,4.2519,4.2715,4.293,4.3242,4.3633,4.3691,4.3789,4.4023,4.4238,4.4277,4.4141,4.4238,4.4316,4.4121,4.4219,4.4414,4.4394,4.4531,4.4726,3.153,3.153,3.1476,3.1423,3.1283,3.0755,3.0694,3.0822,3.0047,0.0,0.0,3.0029,3.0207,3.0453,3.0127,3.0154,3.0453,3.0074,2.9967,3.006,3.002,3.002,3.0074,3.002,3.0606,3.174,3.1669,3.2293,3.3557,3.5375,3.6258,3.6367,3.6635,3.6627,3.6158,3.4758,3.3032,3.1161,3.2934,3.288,3.0751,3.1685,3.2158,3.2037,3.1337,3.0614,2.9923,2.931,2.8773,2.8425,2.8051,2.8851,3.0985,3.1198,3.2492,3.5157,3.5486,3.598,3.7043,3.7521,3.7924,3.831,3.8658,3.8472,3.7666,3.7666,3.8014,3.8747,3.882,3.9153,3.9928,4.0056,4.0253,4.0655,4.1068,4.1667,4.2488,4.2945,4.3196,4.3363,4.3757,4.3808,4.3535,4.3672,4.3867,4.3906,4.375,4.339,4.2556,4.194,4.144,4.1031,4.1376,4.1684,4.1592,4.2026,4.2656,4.2969,4.3125,4.332,4.3594,4.3769,4.3828,4.3887,4.3867,4.3965,4.3867,4.3926,4.3789,4.3711,4.3789,4.3945,4.4355,4.5078,4.5488,3.2719,3.2706,3.2514,3.2211,3.1931,3.1343,3.1082,3.1082,3.0768,3.0635,3.0662,3.0675,3.0688,3.0715,3.048,3.0461,3.0688,3.0167,3.0194,3.0648,3.0421,3.048,3.0648,3.0467,3.041,3.0601,3.0113,3.0066,3.0646,3.2193,3.3107,3.3522,3.4902,3.4804,3.3103,3.2937,3.1757,2.9455,3.1291,3.1539,3.0071,3.002,3.0223,3.0532,3.0196,2.9749,2.9286,2.8907,2.8536,2.8081,2.8061,2.9177,3.1615,3.2386,3.4069,3.6796,3.7411,3.7794,3.8307,3.871,3.9153,3.9579,3.9689,3.9377,3.8527,3.8747,3.9171,3.9671,3.9726,3.9891,4.0368,4.0735,4.1066,4.1457,4.1886,4.2463,4.3253,4.3448,4.3747,4.4466,4.4759,4.47,4.4564,4.4369,4.433,4.4567,4.3971,4.3327,4.2469,4.1704,4.1399,4.1524,4.1721,4.1921,4.2162,4.2655,4.2988,4.3047,4.3379,4.3594,4.3672,4.3965,4.418,4.4258,4.4433,4.4551,4.4316,4.4297,4.4082,4.3808,4.3965,4.4258,4.4394,4.5078,4.5625,3.2986,3.3009,3.2888,3.2661,3.234,3.1717,3.137,3.1189,3.1263,3.1169,3.1009,3.0862,3.0875,3.0996,3.0728,3.0755,3.1009,3.0581,3.0528,3.0768,3.0648,3.0662,3.0768,3.0662,3.056,3.0386,3.0145,2.994,3.0079,3.1678,3.2588,3.2778,3.3556,3.2969,3.1119,3.1142,3.0612,2.9513,3.021,3.015,2.9246,2.9251,2.9242,2.916,2.8993,2.8771,2.8359,2.8069,2.7768,2.7349,2.7687,2.9214,3.2021,3.2871,3.4777,3.8089,3.8527,3.886,3.9263,3.9685,4.007,4.0497,4.0552,4.0497,4.0327,4.0052,4.007,4.0515,4.0735,4.1047,4.1451,4.1653,4.1837,4.1977,4.2179,4.2536,4.3075,4.3229,4.3493,4.4046,4.4214,4.4252,4.4233,4.4079,4.4002,4.4156,4.3507,4.2698,4.2133,4.1907,4.1662,4.1504,4.1797,4.2193,4.2465,4.3022,4.3379,4.3418,4.3574,4.3691,4.3711,4.3926,4.4004,4.4023,4.4199,4.4219,4.4043,4.4023,4.3906,4.3828,4.3848,4.4082,4.4394,4.5078,4.5703,3.308,3.308,3.308,3.2929,3.2554,3.1965,3.153,3.1356,3.157,3.153,3.1303,3.1089,3.1116,3.1276,3.1022,3.1049,3.1249,3.0955,3.0862,3.0982,3.0915,3.0929,3.0982,3.0929,3.0768,3.06,3.0533,3.0386,3.0308,3.153,3.2186,3.2201,3.2258,3.1556,3.0159,3.0114,3.0114,3.01,2.9887,2.9472,2.8845,2.8921,2.8775,2.8433,2.8393,2.8272,2.8003,2.7789,2.7562,2.7362,2.8151,2.9918,3.2711,3.3782,3.5777,3.8914,3.9373,3.9557,4.0001,4.0331,4.0717,4.1194,4.1249,4.1415,4.1702,4.1378,4.1139,4.1378,4.1653,4.1922,4.2222,4.2387,4.2461,4.2461,4.2553,4.278,4.3132,4.3192,4.3379,4.3747,4.3864,4.3955,4.3855,4.3822,4.3727,4.3552,4.2997,4.2441,4.2012,4.2119,4.1905,4.1681,4.2061,4.2681,4.2806,4.3271,4.3611,4.3691,4.3691,4.3769,4.3808,4.3808,4.3789,4.3867,4.3789,4.3789,4.373,4.3848,4.3887,4.3926,4.4141,4.4394,4.4883,4.5293,4.5801,3.3374,3.3374,3.3374,3.3053,3.2554,3.1979,3.1724,3.1698,3.1664,3.1664,3.1637,3.1644,3.1644,3.1583,3.1316,3.1343,3.1604,3.1049,3.1089,3.155,3.1303,3.133,3.1577,3.1303,3.1169,3.1056,3.0875,3.0728,3.0648,3.0694,3.0664,3.0613,3.0843,3.0918,3.0702,3.0702,3.0702,3.0715,3.0688,3.0261,2.9446,2.9165,2.8975,2.8921,2.8908,2.8895,2.8841,2.8855,2.8858,2.8918,3.0452,3.2259,3.4129,3.5867,3.7718,3.9672,3.9854,4.0001,4.0405,4.0478,4.0822,4.1519,4.1666,4.1831,4.2259,4.2491,4.2534,4.2332,4.2259,4.2332,4.2351,4.2644,4.2846,4.2865,4.3114,4.3567,4.386,4.4074,4.4277,4.4738,4.4555,4.4788,4.4524,4.4234,4.3938,4.355,4.336,4.2969,4.2313,4.2105,4.197,4.1971,4.2709,4.3437,4.3502,4.3631,4.367,4.3711,4.3691,4.3828,4.4004,4.3926,4.3789,4.3965,4.3926,4.3711,4.3848,4.4004,4.4297,4.4394,4.4824,4.5508,4.5937,4.5859,4.5859,3.3841,3.3694,3.3694,3.3347,3.2822,3.2407,3.2233,3.2233,3.2233,3.2233,3.2233,3.2233,3.2045,3.1664,3.1543,3.1557,3.1698,3.147,3.1436,3.1698,3.1543,3.1604,3.1698,3.1557,3.141,3.1236,3.1102,3.0955,3.0795,3.0675,3.0621,3.0621,3.0742,3.0795,3.0795,3.0795,3.0795,3.0795,3.0795,3.0608,3.0274,2.9967,2.974,2.9579,2.9508,2.9428,2.9339,2.9415,2.9863,3.062,3.1743,3.367,3.6605,3.7471,3.888,4.1038,4.1102,4.1047,4.117,4.1189,4.1427,4.1996,4.2491,4.2839,4.2986,4.3397,4.3518,4.3353,4.3133,4.3004,4.3004,4.3151,4.3243,4.3261,4.3408,4.3589,4.3748,4.3811,4.3882,4.406,4.406,4.4078,4.4041,4.3911,4.3632,4.3298,4.3222,4.2968,4.2383,4.2562,4.2716,4.2609,4.3353,4.3675,4.3485,4.3339,4.3441,4.3628,4.3691,4.3828,4.3926,4.3867,4.3789,4.3984,4.3867,4.3867,4.4101,4.4219,4.4453,4.4726,4.4902,4.543,4.5859,4.5844,4.5903,3.4202,3.4002,3.3841,3.3467,3.3009,3.2714,3.2594,3.2594,3.2594,3.2594,3.2594,3.2594,3.2367,3.1979,3.1872,3.1831,3.1831,3.1751,3.1724,3.1724,3.1724,3.1724,3.1724,3.1724,3.1557,3.1383,3.1356,3.1196,3.0955,3.1009,3.0996,3.0942,3.0996,3.1036,3.1036,3.1036,3.1036,3.1049,3.1036,3.1036,3.0996,3.0742,3.0461,3.0194,3.0154,3.006,2.9905,3.0528,3.1357,3.2295,3.3703,3.5808,3.8433,3.9114,4.0256,4.1988,4.2014,4.1849,4.1849,4.1849,4.2014,4.2479,4.3023,4.3389,4.3518,4.3756,4.3958,4.4013,4.3811,4.3664,4.3811,4.3628,4.3536,4.3628,4.3664,4.3664,4.3664,4.3719,4.3893,4.3811,4.3864,4.3609,4.3536,4.3507,4.3442,4.3203,4.3085,4.2938,4.2608,4.2962,4.3199,4.2803,4.3217,4.3348,4.3121,4.3093,4.3263,4.3516,4.364,4.3643,4.3865,4.3926,4.3848,4.4062,4.3926,4.3984,4.4297,4.4453,4.4883,4.5195,4.5332,4.541,4.5879,4.5781,4.5879,3.4322,3.4215,3.3694,3.3293,3.2959,3.2741,3.2607,3.2648,3.2621,3.2607,3.2634,3.2634,3.2594,3.2541,3.2238,3.2078,3.2051,3.1824,3.1778,3.1778,3.1738,3.1724,3.1724,3.1724,3.1711,3.1623,3.1637,3.1503,3.1236,3.1463,3.1476,3.1189,3.145,3.1657,3.1631,3.157,3.1671,3.1617,3.1617,3.1657,3.157,3.1316,3.1036,3.0808,3.0755,3.0715,3.0918,3.2534,3.3583,3.3644,3.6995,3.9184,3.9641,4.1137,4.2122,4.2289,4.2314,4.2296,4.2296,4.2296,4.2443,4.281,4.2993,4.314,4.3463,4.3628,4.3829,4.4068,4.4105,4.4196,4.449,4.3976,4.3683,4.3921,4.4031,4.4031,4.405,4.4306,4.4627,4.4572,4.4251,4.3958,4.3591,4.3481,4.3536,4.3481,4.3463,4.3298,4.3012,4.2964,4.2835,4.2523,4.2315,4.2124,4.2796,4.2894,4.3166,4.3541,4.3636,4.3546,4.4048,4.4433,4.4258,4.416,4.4219,4.4316,4.4512,4.4961,4.5566,4.584,4.5742,4.5879,4.6055,4.5859,4.5937,3.4656,3.4269,3.3668,3.336,3.324,3.3146,3.3106,3.3106,3.3093,3.3106,3.3093,3.3093,3.3106,3.308,3.2786,3.2559,3.2433,3.2326,3.2273,3.226,3.2038,3.1944,3.1944,3.1944,3.1837,3.1764,3.1864,3.1797,3.1543,3.1623,3.1671,3.1543,3.161,3.1724,3.1724,3.1724,3.1724,3.1724,3.1724,3.1724,3.1724,3.1557,3.153,3.161,3.1263,3.0982,3.0795,3.3052,3.4632,3.5465,3.8257,4.0321,4.1584,4.2542,4.2931,4.2692,4.27,4.27,4.27,4.27,4.2755,4.292,4.3415,4.3554,4.3609,4.394,4.4306,4.4416,4.4453,4.4774,4.5123,4.4508,4.3811,4.3756,4.3985,4.4105,4.4141,4.4462,4.4719,4.4701,4.4526,4.4398,4.4196,4.4031,4.3884,4.3848,4.3664,4.3444,4.3334,4.3279,4.3169,4.3078,4.2931,4.2879,4.2827,4.2694,4.2768,4.3401,4.3717,4.3737,4.4087,4.4285,4.4213,4.4023,4.416,4.4648,4.4844,4.5508,4.6113,4.6133,4.6055,4.6074,4.6269,4.6074,4.6113,3.4963,3.4549,3.4055,3.3788,3.3708,3.3708,3.3708,3.3708,3.3708,3.3654,3.3574,3.3561,3.3507,3.3387,3.3213,3.3013,3.2862,3.2688,3.2594,3.2567,3.238,3.2198,3.2118,3.2104,3.1998,3.1864,3.1998,3.1957,3.1751,3.1724,3.1724,3.1711,3.1724,3.1724,3.1724,3.1724,3.1724,3.1724,3.1724,3.1751,3.1784,3.1858,3.1944,3.2289,3.2504,3.2581,3.2421,3.4663,3.6637,3.8201,4.0253,4.1995,4.3164,4.3408,4.3371,4.3158,4.3078,4.3122,4.3078,4.3078,4.3078,4.3122,4.3536,4.3756,4.3554,4.3995,4.4407,4.4627,4.4719,4.4985,4.5352,4.4948,4.438,4.416,4.4325,4.4471,4.449,4.4838,4.4985,4.493,4.4893,4.4765,4.4526,4.4361,4.4215,4.4123,4.3829,4.3701,4.3683,4.3554,4.3481,4.3463,4.3279,4.3195,4.31,4.2876,4.2882,4.3445,4.3566,4.3695,4.3968,4.4129,4.4149,4.3962,4.4199,4.4766,4.5371,4.6035,4.6269,4.6308,4.625,4.6211,4.6289,4.6289,4.6289,3.5191,3.5097,3.4857,3.4496,3.4255,3.4229,3.4231,3.4242,3.4269,3.4095,3.3895,3.3868,3.3694,3.348,3.3427,3.34,3.3293,3.2982,3.2768,3.2728,3.2634,3.2474,3.2238,3.2211,3.2171,3.2091,3.2091,3.1931,3.1738,3.1724,3.1724,3.1724,3.1751,3.1778,3.1738,3.1791,3.1778,3.1805,3.1818,3.1912,3.2064,3.2104,3.2251,3.2749,3.4244,3.5179,3.5481,3.7471,3.9375,4.1305,4.3299,4.4407,4.3995,4.3701,4.3481,4.3444,4.3463,4.3481,4.3463,4.3444,4.3426,4.3426,4.3499,4.3536,4.3518,4.3609,4.3921,4.4499,4.4701,4.4921,4.5242,4.5242,4.5132,4.526,4.5113,4.515,4.5278,4.5608,4.5737,4.5388,4.5297,4.4966,4.4471,4.449,4.4563,4.4325,4.4141,4.4086,4.405,4.3811,4.3554,4.3463,4.3334,4.3269,4.3206,4.3214,4.3338,4.3453,4.3385,4.3439,4.3804,4.4079,4.411,4.3984,4.4782,4.5328,4.5781,4.6348,4.6426,4.6465,4.6406,4.6308,4.6308,4.6308,4.6308,3.5204,3.5137,3.4656,3.4402,3.4322,3.4322,3.4322,3.4322,3.4322,3.4269,3.4162,3.3975,3.3828,3.3761,3.3734,3.3734,3.3734,3.3721,3.3654,3.345,3.304,3.2969,3.2946,3.2786,3.2648,3.2407,3.2032,3.177,3.1751,3.1738,3.1724,3.1751,3.1877,3.1957,3.1984,3.2206,3.2326,3.2326,3.2313,3.2367,3.2447,3.246,3.2594,3.2897,3.3563,3.4514,3.6266,3.9148,4.0975,4.1738,4.3626,4.449,4.4105,4.3701,4.3499,4.3481,4.3481,4.3481,4.3481,4.3481,4.3481,4.3481,4.3481,4.3481,4.3536,4.3738,4.3976,4.4288,4.4554,4.4884,4.5187,4.5297,4.5187,4.4911,4.5113,4.5315,4.537,4.5663,4.581,4.5737,4.57,4.5572,4.5352,4.5278,4.5021,4.4875,4.4655,4.4535,4.448,4.4123,4.3921,4.3866,4.3617,4.3279,4.3316,4.3334,4.3394,4.3505,4.347,4.3348,4.3719,4.4023,4.4021,4.4462,4.5219,4.5777,4.625,4.6504,4.6601,4.6504,4.6348,4.6308,4.6308,4.6308,4.6308,3.5578,3.5618,3.5164,3.4963,3.4977,3.4963,3.491,3.4843,3.4923,3.4736,3.4362,3.4255,3.4002,3.3761,3.3708,3.3708,3.3734,3.3908,3.3948,3.3881,3.3668,3.3534,3.3561,3.328,3.2986,3.2755,3.2393,3.2152,3.2045,3.2045,3.2045,3.2086,3.2185,3.2265,3.2278,3.2487,3.2594,3.2594,3.2581,3.2648,3.2728,3.2755,3.2888,3.3255,3.4022,3.5147,3.6637,3.9468,4.142,4.2244,4.3884,4.4737,4.4526,4.405,4.3701,4.3683,4.3573,4.3481,4.3481,4.3481,4.3481,4.3481,4.3481,4.3481,4.3536,4.3756,4.3884,4.4105,4.4352,4.4664,4.4985,4.5242,4.515,4.4948,4.5297,4.5498,4.5553,4.5737,4.5865,4.5865,4.5865,4.5828,4.5645,4.5663,4.5425,4.5315,4.5077,4.4911,4.4783,4.4416,4.4233,4.4013,4.3683,4.3518,4.3481,4.3481,4.3481,4.3578,4.3612,4.3519,4.3609,4.4025,4.421,4.4903,4.5656,4.5933,4.6367,4.666,4.6772,4.6562,4.6308,4.6308,4.6308,4.6308,4.6308,3.6233,3.6446,3.6179,3.5979,3.5979,3.6019,3.5805,3.5685,3.5872,3.5418,3.4696,3.4629,3.4295,3.3654,3.3641,3.3614,3.3507,3.3721,3.3908,3.4095,3.4189,3.4175,3.3761,3.3427,3.3146,3.2959,3.2942,3.2822,3.2581,3.2621,3.2648,3.2648,3.2714,3.2674,3.2714,3.2674,3.2768,3.2808,3.2755,3.2888,3.3093,3.3053,3.3187,3.3517,3.5263,3.6242,3.651,3.8811,4.1098,4.268,4.4332,4.5223,4.5132,4.4545,4.4105,4.4105,4.3756,4.3664,4.3591,4.3701,4.3664,4.3683,4.3628,4.3536,4.3609,4.3591,4.3683,4.394,4.4031,4.4215,4.46,4.4911,4.5132,4.5333,4.559,4.581,4.5883,4.5883,4.5883,4.5883,4.5865,4.5773,4.5498,4.5682,4.5645,4.548,4.5352,4.5333,4.5205,4.4838,4.4306,4.405,4.3884,4.3628,4.3554,4.3481,4.3481,4.3526,4.3633,4.3582,4.3688,4.4084,4.4573,4.5309,4.5953,4.6167,4.6406,4.6635,4.6719,4.6445,4.6308,4.6308,4.6308,4.6308,4.6308,3.6246,3.646,3.6193,3.6126,3.6126,3.6126,3.6032,3.5965,3.61,3.5912,3.5511,3.499,3.4656,3.4402,3.4148,3.4082,3.4122,3.4469,3.475,3.4843,3.4923,3.4389,3.3641,3.3253,3.3106,3.304,3.308,3.2946,3.2893,3.3093,3.3187,3.32,3.3387,3.3387,3.3253,3.34,3.3521,3.3534,3.3521,3.3641,3.3841,3.3721,3.3801,3.4093,3.4558,3.4876,3.5249,3.852,4.1212,4.2762,4.4403,4.5297,4.5278,4.482,4.459,4.4535,4.4416,4.4343,4.437,4.437,4.4388,4.4325,4.4068,4.394,4.3921,4.3646,4.3591,4.3646,4.3664,4.3829,4.4223,4.4361,4.4673,4.5242,4.5627,4.5865,4.5883,4.5883,4.5883,4.5883,4.5883,4.5828,4.5792,4.5792,4.5847,4.5737,4.57,4.57,4.5535,4.5278,4.4746,4.4453,4.426,4.3866,4.3628,4.3536,4.3481,4.3481,4.3544,4.357,4.3815,4.4246,4.4854,4.5541,4.6123,4.6484,4.6504,4.6641,4.6465,4.6328,4.6308,4.6308,4.6308,4.6308,4.6308,3.6353,3.65,3.646,3.6433,3.6433,3.6433,3.6366,3.6299,3.638,3.6206,3.5859,3.5525,3.5097,3.4815,3.4576,3.4429,3.4389,3.467,3.479,3.4803,3.479,3.4549,3.4162,3.3919,3.3771,3.3708,3.3587,3.3561,3.3574,3.3721,3.3788,3.3814,3.3975,3.3961,3.3814,3.3961,3.4068,3.4055,3.4068,3.4162,3.4282,3.4162,3.4162,3.4309,3.4242,3.4349,3.4985,3.7643,4.0336,4.2749,4.4845,4.592,4.5553,4.5333,4.5159,4.4966,4.4783,4.4701,4.4719,4.4719,4.4719,4.4682,4.4416,4.4361,4.4306,4.4105,4.3995,4.4031,4.3848,4.3866,4.4013,4.4086,4.4471,4.515,4.5498,4.5718,4.5865,4.5883,4.5883,4.5883,4.5883,4.5883,4.5883,4.5883,4.5883,4.5883,4.5847,4.5865,4.581,4.5517,4.5223,4.4893,4.4499,4.4076,4.3756,4.3628,4.3499,4.3481,4.3481,4.3499,4.39,4.4326,4.4989,4.5614,4.6226,4.6641,4.6562,4.6484,4.6406,4.6328,4.6308,4.6308,4.6308,4.6308,4.6308,3.6527,3.6567,3.6834,3.6885,3.6859,3.6872,3.6699,3.6633,3.6725,3.6445,3.5992,3.6006,3.5565,3.4857,3.4857,3.4656,3.4389,3.4549,3.4509,3.4563,3.4603,3.467,3.495,3.4589,3.4469,3.4469,3.4416,3.4336,3.4295,3.4349,3.4351,3.4364,3.4429,3.4389,3.4322,3.4362,3.4311,3.4376,3.4362,3.4429,3.4482,3.4429,3.4429,3.4536,3.4683,3.4763,3.5243,3.6854,3.9139,4.2437,4.5213,4.5892,4.5605,4.5645,4.5755,4.5462,4.515,4.4939,4.4884,4.4958,4.4902,4.4875,4.482,4.4792,4.471,4.4664,4.4572,4.4572,4.4325,4.4196,4.4196,4.4196,4.46,4.5187,4.5352,4.5553,4.5792,4.5883,4.5883,4.5883,4.5883,4.5883,4.5883,4.5883,4.5883,4.5883,4.5883,4.5883,4.5865,4.5663,4.5443,4.5205,4.4728,4.4223,4.394,4.3738,4.3591,4.3481,4.3481,4.357,4.3882,4.437,4.5034,4.5664,4.6245,4.6465,4.6406,4.6348,4.6367,4.6387,4.6406,4.6367,4.6328,4.6308,4.6308,3.6633,3.6792,3.6859,3.6885,3.6885,3.6885,3.6845,3.6792,3.6845,3.6752,3.6593,3.6259,3.5845,3.5418,3.5204,3.495,3.4723,3.4857,3.5004,3.5017,3.5017,3.5057,3.5084,3.4723,3.4469,3.4496,3.4629,3.467,3.4696,3.4843,3.5004,3.4977,3.491,3.4883,3.4696,3.4604,3.4618,3.467,3.467,3.4776,3.4883,3.4763,3.4763,3.4937,3.5044,3.5084,3.5556,3.7131,3.8464,3.9697,4.2097,4.4164,4.4513,4.5406,4.5983,4.603,4.581,4.559,4.5608,4.5553,4.5608,4.5535,4.5297,4.5168,4.5132,4.4875,4.4774,4.4719,4.4581,4.459,4.4517,4.482,4.4966,4.5168,4.5462,4.57,4.5865,4.5883,4.5883,4.5883,4.5883,4.5883,4.5883,4.5883,4.5883,4.5883,4.5883,4.5883,4.5828,4.5773,4.5627,4.5443,4.5021,4.449,4.4123,4.3866,4.3573,4.357,4.357,4.3748,4.4104,4.4503,4.5166,4.5695,4.624,4.6308,4.6265,4.6504,4.6601,4.6562,4.6484,4.6426,4.6387,4.6348,4.6308,3.6593,3.6754,3.6832,3.6885,3.6885,3.6885,3.6885,3.6885,3.6885,3.6885,3.6792,3.646,3.6112,3.5819,3.5525,3.5244,3.5044,3.511,3.5191,3.5177,3.5191,3.5191,3.5164,3.4923,3.4736,3.475,3.4883,3.5016,3.5017,3.5097,3.5164,3.5204,3.5204,3.5097,3.499,3.495,3.4963,3.4963,3.4963,3.5044,3.5137,3.507,3.5004,3.5164,3.5204,3.5204,3.5349,3.6216,3.7306,3.8597,4.0709,4.2739,4.3935,4.5453,4.6382,4.6379,4.6103,4.5902,4.5883,4.5883,4.5865,4.5902,4.5682,4.5737,4.57,4.548,4.5435,4.5416,4.5187,4.4856,4.4517,4.4526,4.4728,4.4801,4.5095,4.5388,4.559,4.5773,4.5883,4.5883,4.5883,4.5883,4.5883,4.5883,4.5883,4.5883,4.5883,4.5883,4.5883,4.5828,4.5792,4.559,4.5242,4.482,4.438,4.3995,4.3573,4.3615,4.3793,4.406,4.4459,4.4857,4.5299,4.5695,4.6046,4.6177,4.6216,4.6474,4.666,4.6484,4.6406,4.6426,4.6426,4.6328,4.6308,3.6567,3.6593,3.6889,3.6996,3.6941,3.6996,3.6996,3.6885,3.6885,3.6885,3.6845,3.6674,3.6406,3.6126,3.5832,3.5525,3.5257,3.5191,3.5204,3.5204,3.5204,3.5204,3.5177,3.5137,3.511,3.5191,3.5164,3.5164,3.5164,3.5204,3.5204,3.5204,3.5204,3.5177,3.5177,3.5191,3.5164,3.5151,3.5151,3.5164,3.5217,3.5231,3.5297,3.5404,3.5418,3.5418,3.5404,3.5669,3.614,3.8008,3.9749,4.1569,4.3535,4.57,4.7039,4.6654,4.6397,4.6232,4.6232,4.6177,4.6158,4.6085,4.6085,4.6232,4.6379,4.6195,4.6085,4.6059,4.5792,4.515,4.4471,4.4618,4.4526,4.4471,4.4636,4.4875,4.5168,4.5553,4.5755,4.5883,4.5883,4.5883,4.5883,4.5883,4.5883,4.5883,4.5883,4.5883,4.5883,4.5883,4.5847,4.5718,4.5388,4.482,4.4361,4.394,4.3536,4.3659,4.3882,4.4237,4.4636,4.4902,4.5211,4.5475,4.5739,4.5958,4.6236,4.6518,4.6543,4.6367,4.6406,4.6543,4.6484,4.6328,4.6348,3.6819,3.6874,3.7425,3.7383,3.6996,3.7452,3.7355,3.6941,3.6899,3.6885,3.6872,3.6874,3.666,3.6393,3.6126,3.5712,3.5284,3.5204,3.5217,3.5217,3.5217,3.5204,3.5244,3.5257,3.5231,3.5204,3.5244,3.5271,3.5231,3.5204,3.5271,3.5231,3.5217,3.5231,3.5257,3.5204,3.5231,3.5297,3.5271,3.5244,3.5324,3.5458,3.5645,3.5805,3.5872,3.5845,3.5819,3.5672,3.5711,3.6202,3.7933,4.0055,4.2701,4.5664,4.7034,4.7222,4.6984,4.6727,4.669,4.6819,4.6874,4.691,4.6837,4.6855,4.6874,4.6635,4.6489,4.636,4.6158,4.5718,4.5627,4.5407,4.5315,4.5205,4.5058,4.504,4.4966,4.5187,4.5553,4.5755,4.5828,4.5883,4.5883,4.5883,4.5883,4.5883,4.5883,4.5883,4.5883,4.5883,4.5883,4.5718,4.5535,4.4893,4.4251,4.3848,4.3544,4.3704,4.3971,4.4282,4.4592,4.4769,4.5034,4.5563,4.587,4.609,4.6318,4.6543,4.6504,4.6367,4.6504,4.6655,4.6621,4.6523,4.6523,3.7107,3.7397,3.7892,3.7809,3.752,3.8069,3.7779,3.6981,3.7101,3.7074,3.6872,3.6725,3.6647,3.642,3.6019,3.5591,3.5311,3.5204,3.5284,3.5351,3.5284,3.5297,3.5404,3.5418,3.5418,3.5471,3.5551,3.5538,3.5431,3.5431,3.5485,3.5591,3.5511,3.5498,3.5525,3.5351,3.5418,3.5511,3.5511,3.5498,3.5631,3.5805,3.5952,3.6032,3.614,3.6126,3.6073,3.5792,3.6829,3.8684,3.9828,4.1939,4.4446,4.6289,4.7558,4.7442,4.724,4.7002,4.691,4.6947,4.7075,4.7094,4.7112,4.7222,4.724,4.7075,4.68,4.6745,4.6672,4.6324,4.5902,4.592,4.548,4.4948,4.5021,4.5077,4.4893,4.5095,4.5352,4.5627,4.5773,4.5847,4.5883,4.5883,4.5883,4.5883,4.5883,4.5883,4.5883,4.5883,4.5883,4.5718,4.5517,4.5021,4.4398,4.394,4.3744,4.393,4.4149,4.4459,4.4902,4.5211,4.5607,4.6046,4.6221,4.6177,4.6284,4.6426,4.6387,4.6426,4.666,4.6816,4.6797,4.6758,4.6797,3.7312,3.7782,3.8193,3.8111,3.7782,3.8413,3.7995,3.7117,3.7168,3.7141,3.6872,3.6727,3.662,3.6446,3.6046,3.5605,3.5364,3.5351,3.5458,3.5631,3.5538,3.5538,3.5658,3.5725,3.5712,3.5752,3.5872,3.5952,3.5765,3.5712,3.5859,3.5899,3.5792,3.5819,3.5899,3.5645,3.5765,3.5832,3.5872,3.5885,3.6086,3.6166,3.6206,3.6246,3.6246,3.6273,3.6286,3.6046,3.7662,3.9815,4.1313,4.2856,4.6658,4.7623,4.7494,4.729,4.7295,4.713,4.7094,4.7185,4.7461,4.7479,4.7387,4.7534,4.7607,4.7479,4.7185,4.713,4.7057,4.6837,4.6342,4.6085,4.5553,4.5003,4.504,4.5187,4.4948,4.4985,4.5242,4.5498,4.57,4.5737,4.57,4.5883,4.5883,4.5883,4.5883,4.5883,4.5883,4.5883,4.5847,4.57,4.5462,4.5095,4.46,4.4123,4.4091,4.4294,4.4527,4.4813,4.5343,4.5826,4.6133,4.6308,4.6177,4.6133,4.6221,4.6406,4.6543,4.6655,4.6831,4.7012,4.709,4.7187,4.7246,3.7384,3.7523,3.8311,3.8009,3.7256,3.7999,3.7819,3.6981,3.6952,3.6925,3.6885,3.6901,3.6805,3.6645,3.6273,3.6019,3.5859,3.5712,3.5725,3.5912,3.5899,3.5899,3.6006,3.6019,3.5979,3.6006,3.6126,3.6059,3.6046,3.6046,3.6046,3.6099,3.6099,3.6126,3.6153,3.5952,3.6006,3.6126,3.6059,3.6179,3.6393,3.6446,3.658,3.6727,3.6754,3.6714,3.662,3.6462,3.7663,3.9525,3.9643,4.1369,4.4532,4.5371,4.6328,4.7225,4.7901,4.8102,4.7937,4.7956,4.8011,4.7974,4.8029,4.8157,4.8047,4.7846,4.7497,4.7112,4.7149,4.7112,4.6892,4.6635,4.6177,4.5737,4.5443,4.5223,4.4911,4.5021,4.526,4.537,4.5572,4.548,4.5407,4.5682,4.5883,4.5883,4.5883,4.5865,4.5792,4.57,4.5645,4.5443,4.5187,4.4838,4.4654,4.4213,4.4326,4.4592,4.4869,4.5166,4.5651,4.609,4.6177,4.6265,4.6153,4.6211,4.6377,4.6582,4.6714,4.6928,4.7168,4.7344,4.75,4.7643,4.7799,3.7512,3.7669,3.8247,3.8054,3.7533,3.8275,3.7928,3.709,3.7114,3.7088,3.6899,3.6885,3.6805,3.6674,3.6393,3.6126,3.5899,3.5872,3.5939,3.6059,3.6153,3.614,3.6112,3.6219,3.6259,3.6179,3.6393,3.6593,3.6513,3.6406,3.638,3.6513,3.6406,3.6433,3.6433,3.6219,3.6313,3.646,3.658,3.6579,3.6714,3.6754,3.6807,3.6859,3.678,3.6714,3.6607,3.6287,3.7817,3.9942,4.0664,4.2528,4.5724,4.6957,4.7365,4.7806,4.8176,4.8139,4.7974,4.8176,4.8249,4.8335,4.8335,4.8317,4.8249,4.8121,4.7974,4.7809,4.7772,4.7662,4.7479,4.7277,4.6672,4.6213,4.5938,4.5608,4.5297,4.5205,4.5315,4.5388,4.5425,4.537,4.537,4.5627,4.5718,4.5535,4.5517,4.5498,4.537,4.5205,4.515,4.5141,4.4847,4.449,4.4387,4.421,4.4473,4.4736,4.5186,4.5475,4.587,4.6221,4.624,4.6382,4.6474,4.6513,4.6641,4.6797,4.6967,4.7246,4.748,4.7715,4.8014,4.8327,4.8444,3.7487,3.759,3.8012,3.7958,3.7672,3.8189,3.787,3.6994,3.7155,3.7141,3.6994,3.6872,3.6752,3.6633,3.654,3.6326,3.6032,3.6112,3.6219,3.6259,3.6286,3.6273,3.6326,3.6433,3.646,3.6193,3.6647,3.6779,3.6765,3.6699,3.6714,3.6872,3.67,3.6714,3.6754,3.6607,3.654,3.6765,3.6819,3.6832,3.6859,3.6859,3.6872,3.6805,3.6687,3.6513,3.642,3.6072,3.7886,4.0265,4.0789,4.2474,4.6233,4.6879,4.7424,4.7915,4.8286,4.8194,4.8084,4.8139,4.8249,4.8335,4.8335,4.8335,4.8335,4.8335,4.8317,4.8194,4.8194,4.8047,4.7901,4.7754,4.7277,4.6764,4.6463,4.6122,4.5883,4.5792,4.5755,4.5847,4.5792,4.5425,4.548,4.5663,4.559,4.5242,4.515,4.5168,4.5021,4.482,4.482,4.4866,4.4756,4.4517,4.4461,4.4456,4.467,4.4863,4.5331,4.5626,4.589,4.6041,4.608,4.6303,4.6561,4.6845,4.6942,4.7084,4.7266,4.7617,4.7949,4.8203,4.8476,4.8835,4.9031,3.7208,3.6981,3.7585,3.7491,3.7009,3.7331,3.729,3.6885,3.6912,3.6925,3.6885,3.6872,3.6859,3.6779,3.6674,3.662,3.6754,3.658,3.6567,3.67,3.6847,3.6647,3.6607,3.6633,3.6727,3.6527,3.6725,3.6859,3.6872,3.6832,3.6832,3.6872,3.6805,3.6845,3.6859,3.6765,3.6712,3.6885,3.6885,3.6885,3.6885,3.6885,3.6885,3.6819,3.6687,3.65,3.6487,3.6166,3.7081,3.9675,3.968,4.1106,4.465,4.5573,4.6302,4.7225,4.7985,4.7961,4.8011,4.8139,4.8267,4.8335,4.8335,4.8335,4.8335,4.8335,4.8335,4.8335,4.8335,4.8317,4.8102,4.7919,4.7626,4.7314,4.6929,4.6635,4.6452,4.6415,4.6379,4.6397,4.6158,4.5773,4.5425,4.5572,4.5517,4.5187,4.5058,4.5058,4.4765,4.46,4.4618,4.4682,4.4636,4.4627,4.4673,4.477,4.4962,4.5114,4.542,4.5553,4.5659,4.5747,4.5728,4.6055,4.6286,4.6786,4.7281,4.7489,4.7768,4.8118,4.8398,4.8594,4.8828,4.9101,4.9316,3.7048,3.6912,3.7139,3.7086,3.6885,3.7061,3.7048,3.6899,3.6885,3.6885,3.6885,3.6885,3.6885,3.6845,3.6834,3.6607,3.6487,3.6727,3.662,3.6593,3.666,3.6727,3.67,3.6714,3.6739,3.6633,3.6739,3.6885,3.6885,3.6912,3.6885,3.6885,3.6885,3.6885,3.6885,3.6899,3.6899,3.6899,3.6899,3.6885,3.6885,3.6885,3.6885,3.6859,3.6605,3.6527,3.646,3.6219,3.742,3.855,3.8835,4.0673,4.2881,4.3875,4.4958,4.6041,4.6927,4.7613,4.7754,4.7992,4.8317,4.8335,4.8335,4.8335,4.8335,4.8335,4.8335,4.8335,4.8335,4.8335,4.8231,4.8139,4.7956,4.7717,4.7424,4.7112,4.6965,4.6929,4.6727,4.6617,4.6379,4.6067,4.5718,4.5425,4.5315,4.5168,4.5058,4.4893,4.46,4.4416,4.4471,4.4471,4.4471,4.4645,4.4664,4.4937,4.5234,4.5382,4.5508,4.5573,4.5554,4.5224,4.5281,4.5624,4.6069,4.6561,4.7153,4.7752,4.8129,4.8346,4.8633,4.8906,4.916,4.9394,4.957,3.7021,3.6885,3.6885,3.6885,3.6885,3.6885,3.6885,3.6885,3.6885,3.6885,3.6885,3.6885,3.6885,3.6885,3.6859,3.6712,3.6593,3.6714,3.6633,3.666,3.674,3.674,3.67,3.6714,3.6739,3.666,3.6874,3.7074,3.6885,3.6965,3.7008,3.6912,3.6885,3.6885,3.6899,3.7021,3.6979,3.6912,3.7086,3.6992,3.6952,3.7048,3.6939,3.6872,3.666,3.6527,3.6433,3.63,3.672,3.755,3.8137,3.8903,4.0698,4.2393,4.3557,4.4658,4.586,4.7144,4.7314,4.7644,4.8207,4.8299,4.8335,4.8335,4.8335,4.8335,4.8335,4.8335,4.8335,4.8335,4.8335,4.8231,4.8176,4.7937,4.7699,4.7424,4.7406,4.7332,4.7039,4.68,4.6654,4.6672,4.6397,4.6067,4.5553,4.5297,4.4893,4.4691,4.4398,4.4288,4.4343,4.4343,4.4325,4.4517,4.4664,4.5011,4.5311,4.5418,4.554,4.5574,4.5494,4.5102,4.5001,4.5434,4.5883,4.6349,4.7022,4.7784,4.8173,4.8424,4.8769,4.9023,4.9277,4.9492,4.9726,3.7195,3.6899,3.6885,3.6885,3.6912,3.6885,3.6885,3.6885,3.6885,3.6885,3.6885,3.6885,3.6885,3.6872,3.6845,3.6725,3.6767,3.6834,3.6821,3.6794,3.6834,3.674,3.6727,3.6699,3.6779,3.6727,3.6981,3.7168,3.6939,3.7248,3.7208,3.7101,3.7045,3.6992,3.6939,3.7221,3.7208,3.7019,3.7459,3.7272,3.7155,3.7195,3.7155,3.6861,3.6633,3.6513,3.6366,3.6286,3.6531,3.6693,3.6957,3.7836,3.936,4.1427,4.297,4.4318,4.6378,4.7278,4.7204,4.7516,4.7791,4.8188,4.8194,4.8335,4.8335,4.8335,4.8335,4.8335,4.8335,4.8335,4.8335,4.8335,4.8231,4.8157,4.7901,4.7736,4.7699,4.7607,4.7295,4.7002,4.7295,4.7497,4.7222,4.6819,4.6067,4.5517,4.4958,4.4609,4.438,4.4288,4.4416,4.4508,4.4508,4.4728,4.4985,4.5214,4.5452,4.5514,4.5541,4.5541,4.5346,4.504,4.5069,4.533,4.5626,4.6026,4.692,4.7905,4.8447,4.8962,4.8906,4.9128,4.9355,4.9629,4.9863,3.7208,3.6885,3.6885,3.7048,3.7181,3.6965,3.6885,3.6885,3.6885,3.6885,3.6885,3.6885,3.6885,3.6832,3.6767,3.6659,3.6674,3.6647,3.6647,3.6687,3.6792,3.6887,3.6847,3.6792,3.6819,3.6872,3.7181,3.7355,3.7261,3.7462,3.7595,3.7529,3.7342,3.7408,3.7248,3.7248,3.7141,3.7448,3.7555,3.7408,3.7261,3.7301,3.7168,3.6672,3.658,3.646,3.6394,3.6422,3.668,3.6775,3.7082,3.8258,3.9524,4.1459,4.344,4.4527,4.6109,4.721,4.7039,4.7112,4.7222,4.7681,4.8084,4.8176,4.8267,4.8335,4.8335,4.8335,4.8335,4.8335,4.8335,4.8335,4.8267,4.8267,4.8084,4.7919,4.7827,4.7717,4.7497,4.7204,4.7277,4.7387,4.7277,4.713,4.6525,4.625,4.5755,4.5278,4.504,4.4728,4.4673,4.482,4.4911,4.5095,4.5344,4.5529,4.5631,4.5714,4.5575,4.5372,4.5142,4.503,4.5067,4.5298,4.5464,4.5696,4.7102,4.8356,4.9123,4.953,4.9523,4.9531,4.9824,4.998,5.0039,3.7208,3.6885,3.6885,3.6992,3.7208,3.7128,3.7088,3.7101,3.7088,3.7048,3.6925,3.7034,3.7021,3.6941,3.6861,3.6714,3.6674,3.666,3.666,3.6687,3.6834,3.6845,3.6872,3.6885,3.6872,3.6965,3.7195,3.7342,3.7195,3.7502,3.7529,3.7448,3.7542,3.7475,3.7435,3.7515,3.7555,3.7809,3.7809,3.7756,3.7542,3.7395,3.7261,3.6861,3.666,3.6593,3.6705,3.7101,3.7783,3.8052,3.8701,3.9752,4.0747,4.1923,4.379,4.4461,4.5708,4.6754,4.6782,4.6709,4.6855,4.7167,4.7644,4.7919,4.8029,4.8047,4.8157,4.8212,4.8267,4.8335,4.8335,4.8335,4.8335,4.8335,4.828,4.8066,4.8011,4.7901,4.7846,4.7534,4.7424,4.7442,4.7351,4.7185,4.6929,4.68,4.6672,4.614,4.5608,4.526,4.4966,4.5077,4.5242,4.5425,4.559,4.5729,4.5849,4.5865,4.57,4.5462,4.537,4.5307,4.527,4.527,4.5603,4.6271,4.7677,4.8843,4.9616,5.0113,5.0226,5.0293,5.0391,5.0332,5.0254,3.7221,3.6899,3.6954,3.6912,3.6965,3.7315,3.7408,3.7355,3.7368,3.7208,3.6925,3.7288,3.7288,3.7088,3.7221,3.7155,3.6872,3.6832,3.6805,3.6832,3.6872,3.6885,3.6885,3.6885,3.6885,3.7034,3.7181,3.7288,3.6979,3.7489,3.7462,3.7261,3.7435,3.7582,3.7836,3.7943,3.801,3.8103,3.8103,3.7929,3.7622,3.7635,3.7342,3.6994,3.6752,3.6699,3.725,3.8345,3.9364,3.9811,4.0039,4.1086,4.1843,4.2099,4.3185,4.4419,4.6114,4.6567,4.6654,4.6617,4.6452,4.6672,4.6929,4.7259,4.7644,4.7882,4.8084,4.8212,4.8335,4.8335,4.8335,4.8335,4.8335,4.8335,4.8335,4.8231,4.8231,4.8194,4.8176,4.8066,4.8011,4.7919,4.7681,4.7479,4.7094,4.6965,4.6764,4.6415,4.5938,4.5645,4.5407,4.5352,4.5535,4.5737,4.5865,4.5883,4.5883,4.5883,4.5883,4.5718,4.5663,4.5618,4.561,4.5676,4.5918,4.6747,4.813,4.9253,5.0224,5.0551,5.0733,5.0547,5.0488,5.043,5.041,3.7395,3.6925,3.7155,3.7261,3.7328,3.7839,3.7676,3.7141,3.7275,3.7315,3.7275,3.7555,3.7595,3.7555,3.7221,3.7181,3.7048,3.6901,3.6779,3.6805,3.6885,3.6885,3.6885,3.6885,3.6885,3.6992,3.7181,3.7328,3.7368,3.7732,3.7973,3.8,3.7863,3.8063,3.8116,3.821,3.8277,3.8317,3.8277,3.7983,3.7782,3.7782,3.7382,3.6994,3.6914,3.6821,3.7114,3.9104,4.0115,4.0227,4.2819,4.4582,4.4775,4.5801,4.6932,4.7013,4.7613,4.7638,4.7057,4.6929,4.6727,4.6379,4.6525,4.7039,4.7516,4.7846,4.8011,4.8066,4.8176,4.8176,4.8212,4.828,4.8212,4.8194,4.8176,4.8176,4.8139,4.8066,4.8066,4.8212,4.8176,4.7882,4.7699,4.7442,4.7075,4.6984,4.6819,4.6544,4.6213,4.5902,4.57,4.5645,4.5627,4.5773,4.5847,4.5883,4.5883,4.5883,4.5883,4.5883,4.581,4.5784,4.5906,4.6308,4.6878,4.7601,4.8472,4.957,5.062,5.0988,5.1143,5.0859,5.0605,5.0605,5.0566,3.7206,3.6925,3.7128,3.7208,3.7261,3.7582,3.7448,3.7208,3.7542,3.7676,3.7595,3.7863,3.7863,3.7609,3.7395,3.7275,3.7128,3.6914,3.6821,3.6832,3.6872,3.6885,3.6885,3.6885,3.6885,3.6992,3.7168,3.7301,3.7422,3.7692,3.7946,3.8036,3.8317,3.833,3.8237,3.8157,3.8223,3.8277,3.8223,3.7969,3.7889,3.7889,3.7489,3.7048,3.7061,3.6794,3.7019,3.947,4.1153,4.1553,4.476,4.6613,4.7058,4.8278,4.8681,4.8644,4.8493,4.8176,4.7717,4.7424,4.6984,4.6617,4.6562,4.6929,4.7167,4.7387,4.7552,4.7662,4.7882,4.8047,4.8121,4.8157,4.8102,4.8066,4.8047,4.8047,4.7937,4.7827,4.7956,4.8139,4.8011,4.7699,4.7442,4.7222,4.7094,4.7057,4.7002,4.6874,4.6507,4.6085,4.5902,4.5792,4.5718,4.5718,4.581,4.5883,4.5883,4.5883,4.5883,4.5883,4.5883,4.6043,4.6194,4.7046,4.8093,4.87,4.9215,5.0021,5.0901,5.1182,5.1319,5.1094,5.0898,5.0937,5.0898,3.6912,3.6885,3.6885,3.6899,3.6899,3.7005,3.7221,3.7475,3.801,3.813,3.7943,3.813,3.7969,3.7702,3.7582,3.7368,3.7141,3.6887,3.6752,3.6872,3.6792,3.6805,3.6872,3.6885,3.6885,3.6979,3.7208,3.7382,3.7275,3.7542,3.7876,3.7876,3.801,3.817,3.8344,3.8103,3.8116,3.8143,3.8183,3.809,3.7956,3.7983,3.8067,3.7515,3.7438,3.7471,3.8432,4.0739,4.3746,4.4207,4.5453,4.7608,4.8487,4.938,4.9445,4.9239,4.8946,4.8414,4.7937,4.7571,4.724,4.7002,4.7057,4.702,4.702,4.7075,4.724,4.7351,4.7552,4.7644,4.7699,4.7772,4.7772,4.7699,4.7662,4.7662,4.7607,4.7589,4.7754,4.7901,4.7864,4.7571,4.7387,4.7185,4.7112,4.7094,4.7075,4.7039,4.6874,4.6415,4.6213,4.6067,4.5993,4.5938,4.5828,4.5883,4.5883,4.5883,4.5883,4.5883,4.5883,4.6174,4.653,4.7272,4.8111,4.9281,5.0048,5.0454,5.0764,5.1114,5.1182,5.1211,5.1191,5.1211,5.1074,3.7141,3.6885,3.6885,3.6885,3.6952,3.7366,3.7635,3.7769,3.8357,3.8424,3.821,3.8267,3.824,3.8067,3.7649,3.7408,3.7248,3.6887,3.6739,3.6752,3.678,3.6779,3.6845,3.6885,3.6899,3.7034,3.7235,3.7595,3.7823,3.8053,3.817,3.845,3.8437,3.8491,3.8491,3.8223,3.8103,3.801,3.82,3.8116,3.7956,3.8036,3.812,3.7796,3.7719,3.8484,3.9761,4.2039,4.4586,4.6143,4.7787,4.8795,4.9024,4.961,4.9606,4.9184,4.9038,4.8487,4.7864,4.7461,4.7112,4.6764,4.6672,4.6745,4.6819,4.6892,4.6984,4.7094,4.7185,4.7259,4.7314,4.7387,4.7406,4.7332,4.7259,4.7259,4.7259,4.7406,4.7552,4.7589,4.7607,4.7516,4.7332,4.7259,4.713,4.7094,4.7094,4.7112,4.7167,4.6929,4.6745,4.658,4.6397,4.6287,4.6085,4.5957,4.5975,4.592,4.5883,4.5883,4.5883,4.6436,4.6952,4.7215,4.7901,4.9144,4.991,5.0072,5.0373,5.087,5.1123,5.1172,5.124,5.1299,5.1172,3.7088,3.6885,3.6885,3.6965,3.7181,3.7489,3.7756,3.805,3.8384,3.8504,3.8477,3.845,3.8455,3.8294,3.7769,3.7462,3.7342,3.6914,3.6861,3.6792,3.6821,3.6847,3.6845,3.6899,3.7074,3.7155,3.7462,3.7849,3.8401,3.8374,3.837,3.8664,3.8718,3.8664,3.8544,3.8317,3.813,3.7849,3.8116,3.8143,3.8036,3.8237,3.8197,3.7983,3.8151,3.9085,4.0585,4.2527,4.4658,4.6866,4.8599,4.945,4.9665,5.0101,4.9977,4.9592,4.9239,4.8726,4.7901,4.7314,4.7002,4.6727,4.647,4.6635,4.6544,4.6617,4.6727,4.6855,4.7094,4.7185,4.7185,4.724,4.7057,4.6929,4.6855,4.6819,4.6947,4.7112,4.724,4.7314,4.7387,4.7497,4.7461,4.7717,4.7589,4.7497,4.7442,4.7571,4.7571,4.7461,4.7277,4.7112,4.6947,4.6617,4.6324,4.6177,4.6122,4.6048,4.592,4.5883,4.6014,4.6746,4.7357,4.7563,4.8071,4.9076,4.9677,4.9819,5.0245,5.0801,5.1016,5.1152,5.124,5.1358,5.126,3.6885,3.6885,3.6925,3.7141,3.7368,3.7435,3.7756,3.8254,3.8321,3.845,3.8678,3.8691,3.8531,3.825,3.7956,3.7689,3.7408,3.7141,3.7048,3.6952,3.6885,3.6859,3.6885,3.6939,3.7248,3.7502,3.7782,3.8183,3.8638,3.8517,3.8504,3.8678,3.8664,3.8571,3.8357,3.8277,3.8197,3.8023,3.8103,3.8277,3.8397,3.8602,3.8688,3.8432,3.8475,3.935,4.1249,4.3002,4.5098,4.6974,4.9178,4.969,5.0138,5.0358,5.0193,4.9881,4.9404,4.8799,4.8084,4.7461,4.7167,4.6892,4.6635,4.6518,4.6397,4.6489,4.6599,4.6727,4.6965,4.6965,4.6965,4.6892,4.6672,4.6599,4.6525,4.6481,4.6599,4.68,4.691,4.702,4.7204,4.7369,4.7644,4.7919,4.7919,4.7827,4.7937,4.8139,4.8212,4.7992,4.7809,4.7662,4.7534,4.7149,4.6672,4.6397,4.6305,4.6158,4.6048,4.5957,4.6061,4.6624,4.7225,4.7799,4.8413,4.8979,4.9511,4.9777,5.0215,5.0527,5.084,5.1016,5.1104,5.1221,5.1358,3.6885,3.6912,3.7195,3.7328,3.7422,3.7622,3.7943,3.8281,3.8321,3.8437,3.8624,3.8691,3.8544,3.8294,3.7943,3.7756,3.7716,3.7422,3.7315,3.7288,3.7088,3.6939,3.7005,3.7288,3.7635,3.7903,3.813,3.8384,3.8678,3.8651,3.8638,3.8718,3.8718,3.8584,3.8414,3.833,3.8384,3.8183,3.8334,3.8619,3.8671,3.908,4.0054,4.0362,4.0956,4.337,4.553,4.642,4.7965,4.9363,5.016,5.0273,5.0376,5.0431,5.023,4.979,4.9331,4.8634,4.7937,4.7295,4.691,4.658,4.6379,4.6452,4.6489,4.6654,4.6709,4.669,4.6764,4.6544,4.647,4.636,4.6213,4.636,4.6379,4.6213,4.6213,4.6452,4.6654,4.6837,4.7057,4.7295,4.7571,4.7736,4.7754,4.7754,4.7974,4.8157,4.8335,4.8267,4.8249,4.8121,4.7992,4.7626,4.713,4.6654,4.647,4.6305,4.6122,4.5975,4.6025,4.6372,4.6906,4.7413,4.7891,4.8451,4.8924,4.9457,4.9707,5.0,5.0547,5.0859,5.0996,5.1143,5.1319]},{"header":{"parameterUnit":"m.s-1","parameterCategory":1,"la1":31.0,"la2":29.5877,"lo1":-88.7671,"lo2":-86.6584,"dy":0.0162,"dx":0.0185,"nx":115,"ny":88,"refTime":"2023-04-10T12:00:00:Z","depth":0,"parameterNumber":3,"parameterNumberName":"V-component_of_WINDS"},"data":[0.0,0.0,0.0,0.0,0.0,0.0,0.0,0.0,0.0,0.0,0.0,0.0,0.0,0.0,0.0,0.0,0.0,0.0,0.0,0.0,0.0,0.0,0.0,0.0,0.0,0.0,0.0,0.0,0.0,0.0,0.0,0.0,0.0,0.0,0.0,0.0,0.0,0.0,0.0,0.0,0.0,0.0,0.0,0.0,0.0,0.0,0.0,0.0,0.0,0.0,0.0,0.0,0.0,0.0,0.0,0.0,0.0,0.0,0.0,0.0,0.0,0.0,0.0,0.0,0.0,0.0,0.0,0.0,0.0,0.0,0.0,0.0,0.0,0.0,0.0,0.0,0.0,0.0,0.0,0.0,0.0,0.0,0.0,0.0,0.0,0.0,0.0,0.0,0.0,0.0,0.0,0.0,0.0,0.0,0.0,0.0,0.0,0.0,0.0,0.0,0.0,0.0,0.0,0.0,0.0,0.0,0.0,0.0,0.0,0.0,0.0,0.0,0.0,0.0,0.0,0.0,0.0,0.0,0.0,0.0,0.0,0.0,0.0,0.0,0.0,0.0,0.0,0.0,0.0,0.0,0.0,0.0,0.0,0.0,0.0,0.0,0.0,0.0,0.0,0.0,0.0,0.0,0.0,0.0,0.0,0.0,0.0,0.0,0.0,0.0,0.0,0.0,0.0,0.0,0.0,0.0,0.0,0.0,0.0,0.0,0.0,0.0,0.0,0.0,0.0,0.0,0.0,0.0,0.0,0.0,0.0,0.0,0.0,0.0,0.0,0.0,0.0,0.0,0.0,0.0,0.0,0.0,0.0,0.0,0.0,0.0,0.0,0.0,0.0,0.0,0.0,0.0,0.0,0.0,0.0,0.0,0.0,0.0,0.0,0.0,0.0,0.0,0.0,0.0,0.0,0.0,0.0,0.0,0.0,0.0,0.0,0.0,0.0,0.0,0.0,0.0,0.0,0.0,0.0,0.0,0.0,0.0,0.0,0.0,0.0,0.0,0.0,0.0,0.0,0.0,0.0,0.0,0.0,0.0,0.0,0.0,0.0,0.0,0.0,0.0,0.0,0.0,0.0,0.0,0.0,0.0,0.0,0.0,0.0,0.0,0.0,0.0,0.0,0.0,0.0,0.0,0.0,0.0,0.0,0.0,0.0,0.0,0.0,0.0,0.0,0.0,0.0,0.0,0.0,0.0,0.0,0.0,0.0,0.0,0.0,0.0,0.0,0.0,0.0,0.0,0.0,0.0,0.0,0.0,0.0,0.0,0.0,0.0,0.0,0.0,0.0,0.0,0.0,0.0,0.0,0.0,0.0,0.0,0.0,0.0,0.0,0.0,0.0,0.0,0.0,0.0,0.0,0.0,0.0,0.0,0.0,0.0,0.0,0.0,0.0,0.0,0.0,0.0,0.0,0.0,0.0,0.0,0.0,0.0,0.0,0.0,0.0,0.0,0.0,0.0,0.0,0.0,0.0,0.0,0.0,0.0,0.0,0.0,0.0,0.0,0.0,0.0,0.0,0.0,0.0,0.0,0.0,0.0,0.0,0.0,0.0,0.0,0.0,0.0,0.0,0.0,0.0,0.0,0.0,0.0,0.0,0.0,0.0,0.0,0.0,0.0,0.0,0.0,0.0,0.0,0.0,0.0,0.0,0.0,0.0,0.0,0.0,0.0,0.0,0.0,0.0,0.0,0.0,0.0,0.0,0.0,0.0,0.0,0.0,0.0,0.0,0.0,0.0,0.0,0.0,0.0,0.0,0.0,0.0,0.0,0.0,0.0,0.0,0.0,0.0,0.0,0.0,0.0,0.0,0.0,0.0,0.0,0.0,0.0,0.0,0.0,0.0,0.0,0.0,0.0,0.0,0.0,0.0,0.0,0.0,0.0,0.0,0.0,0.0,0.0,0.0,0.0,0.0,0.0,0.0,0.0,0.0,0.0,0.0,0.0,0.0,0.0,0.0,0.0,0.0,0.0,0.0,0.0,0.0,0.0,0.0,0.0,0.0,0.0,0.0,0.0,0.0,0.0,0.0,0.0,0.0,0.0,0.0,0.0,0.0,0.0,0.0,0.0,0.0,0.0,0.0,0.0,0.0,0.0,0.0,0.0,0.0,0.0,0.0,0.0,0.0,0.0,0.0,0.0,0.0,0.0,0.0,0.0,0.0,0.0,0.0,0.0,0.0,0.0,0.0,0.0,0.0,0.0,0.0,0.0,0.0,0.0,0.0,0.0,0.0,0.0,0.0,0.0,0.0,0.0,0.0,0.0,0.0,0.0,0.0,0.0,0.0,0.0,0.0,0.0,0.0,0.0,0.0,0.0,0.0,0.0,0.0,0.0,0.0,0.0,0.0,0.0,0.0,0.0,0.0,0.0,0.0,0.0,0.0,0.0,0.0,0.0,0.0,0.0,0.0,0.0,0.0,0.0,0.0,0.0,0.0,0.0,0.0,0.0,0.0,0.0,0.0,0.0,0.0,0.0,0.0,0.0,0.0,0.0,0.0,0.0,0.0,0.0,0.0,0.0,0.0,0.0,0.0,0.0,0.0,0.0,0.0,0.0,0.0,0.0,0.0,0.0,0.0,0.0,0.0,0.0,0.0,0.0,0.0,0.0,0.0,0.0,0.0,0.0,0.0,0.0,0.0,0.0,0.0,0.0,0.0,0.0,0.0,0.0,0.0,0.0,0.0,0.0,0.0,0.0,0.0,0.0,0.0,0.0,0.0,0.0,0.0,0.0,0.0,0.0,0.0,0.0,0.0,0.0,0.0,0.0,0.0,0.0,0.0,0.0,0.0,0.0,0.0,0.0,0.0,0.0,0.0,0.0,0.0,0.0,0.0,0.0,0.0,0.0,0.0,0.0,0.0,0.0,0.0,0.0,0.0,0.0,0.0,0.0,0.0,0.0,0.0,0.0,0.0,0.0,0.0,0.0,0.0,0.0,0.0,0.0,0.0,0.0,0.0,0.0,0.0,0.0,0.0,0.0,0.0,0.0,0.0,0.0,0.0,0.0,0.0,0.0,0.0,0.0,0.0,0.0,0.0,0.0,0.0,0.0,0.0,0.0,0.0,0.0,0.0,0.0,0.0,0.0,0.0,0.0,0.0,0.0,0.0,0.0,0.0,0.0,0.0,0.0,0.0,0.0,0.0,0.0,0.0,0.0,0.0,0.0,0.0,0.0,0.0,0.0,0.0,0.0,0.0,0.0,0.0,0.0,0.0,0.0,0.0,0.0,0.0,0.0,0.0,0.0,0.0,0.0,0.0,0.0,0.0,0.0,0.0,0.0,0.0,0.0,0.0,0.0,0.0,0.0,0.0,0.0,0.0,0.0,0.0,0.0,0.0,0.0,0.0,0.0,0.0,0.0,0.0,0.0,0.0,0.0,0.0,0.0,0.0,0.0,0.0,0.0,0.0,0.0,0.0,0.0,0.0,0.0,0.0,0.0,0.0,0.0,0.0,0.0,0.0,0.0,0.0,0.0,0.0,0.0,0.0,0.0,0.0,0.0,0.0,0.0,0.0,0.0,0.0,0.0,0.0,0.0,0.0,0.0,0.0,0.0,0.0,0.0,0.0,0.0,0.0,0.0,0.0,0.0,0.0,0.0,0.0,0.0,0.0,0.0,0.0,0.0,0.0,0.0,0.0,0.0,0.0,0.0,0.0,0.0,0.0,0.0,0.0,0.0,0.0,0.0,0.0,0.0,0.0,0.0,0.0,0.0,0.0,0.0,0.0,0.0,0.0,0.0,0.0,0.0,0.0,0.0,0.0,0.0,0.0,0.0,0.0,0.0,0.0,0.0,0.0,0.0,0.0,0.0,0.0,0.0,0.0,0.0,0.0,0.0,0.0,0.0,0.0,0.0,0.0,0.0,0.0,0.0,0.0,0.0,0.0,0.0,0.0,0.0,0.0,0.0,0.0,0.0,0.0,0.0,0.0,0.0,0.0,0.0,0.0,0.0,0.0,0.0,0.0,0.0,0.0,0.0,0.0,0.0,0.0,0.0,0.0,0.0,0.0,0.0,0.0,0.0,0.0,0.0,0.0,0.0,0.0,0.0,0.0,0.0,0.0,0.0,0.0,0.0,0.0,0.0,0.0,0.0,0.0,0.0,0.0,0.0,0.0,0.0,0.0,0.0,0.0,0.0,0.0,0.0,0.0,0.0,0.0,0.0,0.0,0.0,0.0,0.0,0.0,0.0,0.0,0.0,0.0,0.0,0.0,0.0,0.0,0.0,0.0,0.0,0.0,0.0,0.0,0.0,0.0,0.0,0.0,0.0,3.6828,0.0,0.0,0.0,0.0,0.0,0.0,0.0,0.0,0.0,0.0,0.0,0.0,0.0,0.0,0.0,0.0,0.0,0.0,0.0,0.0,0.0,0.0,0.0,0.0,0.0,0.0,0.0,0.0,0.0,0.0,0.0,0.0,0.0,0.0,0.0,0.0,0.0,0.0,0.0,0.0,0.0,0.0,0.0,0.0,0.0,0.0,0.0,0.0,0.0,0.0,0.0,0.0,0.0,0.0,0.0,0.0,0.0,0.0,0.0,0.0,0.0,0.0,0.0,0.0,0.0,0.0,0.0,0.0,0.0,0.0,0.0,0.0,0.0,0.0,0.0,0.0,0.0,0.0,0.0,0.0,0.0,0.0,0.0,0.0,0.0,0.0,0.0,0.0,0.0,0.0,0.0,0.0,0.0,0.0,0.0,0.0,0.0,0.0,0.0,0.0,0.0,0.0,0.0,0.0,0.0,0.0,0.0,0.0,0.0,0.0,3.6284,3.6284,3.6284,3.6391,3.6592,0.0,0.0,0.0,0.0,0.0,0.0,0.0,0.0,0.0,0.0,0.0,0.0,0.0,0.0,0.0,0.0,0.0,0.0,0.0,0.0,0.0,0.0,0.0,0.0,0.0,0.0,0.0,0.0,0.0,0.0,0.0,0.0,0.0,0.0,0.0,0.0,0.0,0.0,0.0,0.0,0.0,0.0,0.0,0.0,0.0,0.0,0.0,0.0,0.0,0.0,0.0,0.0,0.0,0.0,0.0,0.0,0.0,0.0,0.0,0.0,0.0,0.0,0.0,0.0,0.0,0.0,0.0,0.0,0.0,0.0,0.0,0.0,0.0,0.0,0.0,0.0,0.0,0.0,0.0,0.0,0.0,0.0,0.0,0.0,0.0,0.0,0.0,0.0,0.0,0.0,0.0,0.0,0.0,0.0,0.0,0.0,0.0,0.0,0.0,0.0,0.0,0.0,0.0,0.0,0.0,0.0,0.0,0.0,0.0,0.0,0.0,0.0,3.6284,3.6288,3.6325,0.0,0.0,0.0,0.0,0.0,0.0,0.0,0.0,0.0,0.0,0.0,0.0,0.0,0.0,0.0,0.0,0.0,0.0,0.0,0.0,0.0,0.0,0.0,0.0,0.0,0.0,0.0,0.0,0.0,0.0,0.0,0.0,0.0,0.0,0.0,0.0,0.0,0.0,0.0,0.0,0.0,0.0,0.0,0.0,0.0,0.0,0.0,0.0,0.0,0.0,0.0,0.0,0.0,0.0,0.0,0.0,0.0,0.0,0.0,0.0,0.0,0.0,0.0,0.0,0.0,0.0,0.0,0.0,0.0,0.0,0.0,0.0,0.0,0.0,0.0,0.0,0.0,0.0,0.0,0.0,0.0,0.0,0.0,0.0,0.0,0.0,0.0,0.0,0.0,0.0,0.0,0.0,0.0,0.0,0.0,0.0,0.0,0.0,0.0,0.0,0.0,0.0,0.0,0.0,0.0,0.0,0.0,0.0,0.0,0.0,3.6284,3.6284,3.6284,0.0,3.5803,0.0,0.0,0.0,0.0,0.0,0.0,0.0,0.0,0.0,0.0,0.0,0.0,0.0,0.0,0.0,0.0,0.0,0.0,0.0,0.0,0.0,0.0,0.0,0.0,0.0,0.0,0.0,0.0,0.0,0.0,0.0,0.0,0.0,0.0,0.0,0.0,0.0,0.0,0.0,0.0,0.0,0.0,0.0,0.0,0.0,0.0,0.0,0.0,0.0,0.0,0.0,0.0,0.0,0.0,0.0,0.0,0.0,0.0,0.0,0.0,0.0,0.0,0.0,0.0,0.0,0.0,0.0,0.0,0.0,0.0,0.0,0.0,0.0,0.0,0.0,0.0,0.0,0.0,0.0,0.0,0.0,0.0,0.0,0.0,0.0,0.0,0.0,0.0,0.0,0.0,0.0,0.0,0.0,0.0,0.0,0.0,0.0,0.0,0.0,0.0,0.0,0.0,0.0,0.0,0.0,0.0,0.0,0.0,0.0,0.0,3.6233,3.6233,3.6286,3.5876,0.0,0.0,0.0,0.0,0.0,0.0,0.0,0.0,0.0,0.0,0.0,0.0,0.0,0.0,0.0,0.0,0.0,0.0,0.0,0.0,0.0,0.0,0.0,0.0,0.0,0.0,0.0,0.0,0.0,0.0,0.0,0.0,0.0,0.0,0.0,0.0,0.0,0.0,0.0,0.0,0.0,0.0,0.0,0.0,0.0,0.0,0.0,0.0,0.0,0.0,0.0,0.0,0.0,0.0,0.0,0.0,0.0,0.0,0.0,0.0,0.0,0.0,0.0,0.0,0.0,0.0,0.0,0.0,0.0,0.0,0.0,0.0,0.0,0.0,0.0,0.0,0.0,0.0,0.0,0.0,0.0,0.0,0.0,0.0,0.0,0.0,0.0,0.0,0.0,0.0,0.0,0.0,0.0,0.0,0.0,0.0,0.0,0.0,0.0,0.0,0.0,0.0,0.0,0.0,0.0,0.0,0.0,0.0,0.0,0.0,3.6938,3.6225,3.6212,3.6069,3.5509,3.446,0.0,0.0,0.0,0.0,0.0,0.0,0.0,0.0,0.0,0.0,0.0,0.0,0.0,0.0,0.0,0.0,0.0,0.0,0.0,0.0,0.0,0.0,0.0,0.0,0.0,0.0,0.0,0.0,0.0,0.0,0.0,0.0,0.0,0.0,0.0,0.0,0.0,0.0,0.0,0.0,0.0,0.0,0.0,0.0,0.0,0.0,0.0,0.0,0.0,0.0,0.0,0.0,0.0,0.0,0.0,0.0,0.0,0.0,0.0,0.0,0.0,0.0,0.0,0.0,0.0,0.0,0.0,0.0,0.0,0.0,0.0,0.0,0.0,0.0,0.0,0.0,0.0,0.0,0.0,0.0,0.0,0.0,0.0,0.0,0.0,0.0,0.0,0.0,0.0,0.0,0.0,0.0,0.0,0.0,0.0,0.0,0.0,0.0,0.0,0.0,0.0,0.0,0.0,0.0,0.0,0.0,0.0,0.0,3.8162,3.6894,3.6257,3.6307,3.5639,3.492,0.0,0.0,0.0,0.0,0.0,0.0,0.0,0.0,0.0,0.0,0.0,0.0,0.0,0.0,0.0,0.0,0.0,0.0,0.0,0.0,0.0,0.0,0.0,0.0,0.0,0.0,0.0,0.0,0.0,0.0,0.0,0.0,0.0,0.0,0.0,0.0,0.0,0.0,0.0,0.0,0.0,0.0,0.0,0.0,0.0,0.0,0.0,0.0,0.0,0.0,0.0,0.0,0.0,0.0,0.0,0.0,0.0,0.0,0.0,0.0,0.0,0.0,0.0,0.0,0.0,0.0,0.0,0.0,0.0,0.0,0.0,0.0,0.0,0.0,0.0,0.0,0.0,0.0,0.0,0.0,0.0,0.0,0.0,0.0,0.0,0.0,0.0,0.0,0.0,0.0,0.0,0.0,0.0,0.0,0.0,0.0,0.0,0.0,0.0,0.0,0.0,0.0,0.0,0.0,0.0,0.0,0.0,0.0,0.0,3.8784,3.7502,3.6881,3.7042,3.6329,3.5369,0.0,0.0,0.0,0.0,0.0,0.0,0.0,0.0,0.0,0.0,0.0,0.0,0.0,0.0,0.0,0.0,0.0,0.0,0.0,0.0,0.0,0.0,0.0,0.0,0.0,0.0,0.0,0.0,0.0,0.0,0.0,0.0,0.0,0.0,0.0,0.0,0.0,0.0,0.0,0.0,0.0,0.0,0.0,0.0,0.0,0.0,0.0,0.0,0.0,0.0,0.0,0.0,0.0,0.0,0.0,0.0,0.0,0.0,0.0,0.0,0.0,0.0,0.0,0.0,0.0,0.0,0.0,0.0,0.0,0.0,0.0,0.0,0.0,0.0,0.0,0.0,0.0,0.0,0.0,0.0,0.0,0.0,0.0,0.0,0.0,0.0,0.0,0.0,0.0,0.0,0.0,0.0,0.0,0.0,0.0,0.0,0.0,0.0,0.0,0.0,0.0,0.0,0.0,0.0,0.0,0.0,0.0,0.0,0.0,3.9226,0.0,3.7454,3.7491,3.6697,3.5625,0.0,0.0,0.0,0.0,0.0,0.0,0.0,0.0,0.0,0.0,0.0,0.0,0.0,0.0,0.0,0.0,0.0,0.0,0.0,0.0,0.0,0.0,0.0,0.0,0.0,0.0,0.0,0.0,0.0,0.0,0.0,0.0,0.0,0.0,0.0,0.0,0.0,0.0,0.0,0.0,0.0,0.0,0.0,0.0,0.0,0.0,0.0,0.0,0.0,0.0,0.0,0.0,0.0,0.0,0.0,0.0,0.0,0.0,0.0,0.0,0.0,0.0,0.0,0.0,0.0,0.0,0.0,0.0,0.0,0.0,0.0,0.0,0.0,0.0,0.0,0.0,0.0,0.0,0.0,0.0,0.0,0.0,0.0,0.0,0.0,0.0,0.0,0.0,0.0,0.0,0.0,0.0,0.0,0.0,0.0,0.0,0.0,0.0,0.0,0.0,0.0,0.0,0.0,0.0,0.0,0.0,0.0,0.0,4.0633,3.9494,3.8709,3.8174,3.7594,3.6881,3.5697,0.0,0.0,0.0,0.0,0.0,0.0,0.0,0.0,0.0,0.0,0.0,0.0,0.0,0.0,0.0,0.0,0.0,0.0,0.0,0.0,0.0,0.0,0.0,0.0,0.0,0.0,0.0,0.0,0.0,0.0,0.0,0.0,0.0,0.0,0.0,0.0,0.0,0.0,0.0,0.0,0.0,0.0,0.0,0.0,0.0,0.0,0.0,0.0,0.0,0.0,0.0,0.0,0.0,0.0,0.0,0.0,0.0,0.0,0.0,0.0,0.0,0.0,0.0,0.0,0.0,0.0,0.0,0.0,0.0,0.0,0.0,0.0,0.0,0.0,0.0,0.0,0.0,0.0,0.0,0.0,0.0,0.0,0.0,0.0,0.0,0.0,0.0,0.0,0.0,0.0,0.0,0.0,0.0,0.0,0.0,0.0,0.0,0.0,0.0,0.0,0.0,0.0,0.0,0.0,0.0,0.0,0.0,0.0,0.0,4.1749,4.0964,4.0847,4.1331,3.9641,3.795,0.0,0.0,0.0,0.0,0.0,0.0,0.0,0.0,0.0,0.0,0.0,0.0,0.0,0.0,0.0,0.0,0.0,0.0,0.0,0.0,0.0,0.0,0.0,0.0,0.0,0.0,0.0,0.0,0.0,0.0,0.0,0.0,0.0,0.0,0.0,0.0,0.0,0.0,0.0,0.0,0.0,0.0,0.0,0.0,0.0,0.0,0.0,0.0,0.0,0.0,0.0,0.0,0.0,0.0,0.0,0.0,0.0,0.0,0.0,0.0,0.0,0.0,0.0,0.0,0.0,0.0,0.0,0.0,0.0,0.0,0.0,0.0,0.0,0.0,0.0,0.0,0.0,0.0,0.0,0.0,0.0,0.0,0.0,0.0,0.0,0.0,0.0,0.0,0.0,0.0,0.0,0.0,0.0,0.0,0.0,0.0,0.0,0.0,0.0,0.0,0.0,0.0,0.0,0.0,0.0,0.0,0.0,0.0,0.0,4.4919,4.42,4.3859,4.4022,4.2332,4.0434,3.8399,0.0,0.0,0.0,0.0,0.0,0.0,0.0,0.0,0.0,0.0,0.0,0.0,0.0,0.0,0.0,0.0,0.0,0.0,0.0,0.0,0.0,0.0,0.0,0.0,0.0,0.0,0.0,0.0,0.0,0.0,0.0,0.0,0.0,0.0,0.0,0.0,0.0,0.0,0.0,0.0,0.0,0.0,0.0,0.0,0.0,0.0,0.0,0.0,0.0,0.0,0.0,0.0,0.0,0.0,0.0,0.0,0.0,0.0,0.0,0.0,0.0,0.0,0.0,0.0,0.0,0.0,0.0,0.0,0.0,0.0,0.0,0.0,0.0,0.0,0.0,0.0,0.0,0.0,0.0,0.0,0.0,0.0,0.0,0.0,0.0,0.0,0.0,0.0,0.0,0.0,0.0,0.0,0.0,0.0,0.0,0.0,0.0,0.0,0.0,0.0,0.0,0.0,0.0,0.0,0.0,0.0,0.0,0.0,4.8776,4.8275,4.7334,4.5845,4.4941,4.3069,0.0,0.0,0.0,0.0,0.0,0.0,0.0,0.0,0.0,0.0,0.0,0.0,0.0,0.0,0.0,0.0,0.0,0.0,0.0,0.0,0.0,0.0,0.0,0.0,0.0,0.0,0.0,0.0,0.0,0.0,0.0,0.0,0.0,0.0,0.0,0.0,0.0,0.0,0.0,0.0,0.0,0.0,0.0,0.0,0.0,0.0,0.0,0.0,0.0,0.0,0.0,0.0,0.0,0.0,0.0,0.0,0.0,0.0,0.0,0.0,0.0,0.0,0.0,0.0,0.0,0.0,0.0,0.0,0.0,0.0,0.0,0.0,0.0,0.0,0.0,0.0,0.0,0.0,0.0,0.0,0.0,0.0,0.0,0.0,0.0,0.0,0.0,0.0,0.0,0.0,0.0,0.0,0.0,0.0,0.0,0.0,0.0,0.0,0.0,0.0,0.0,0.0,0.0,0.0,0.0,0.0,0.0,0.0,0.0,5.1096,5.3247,5.3118,5.0464,4.8065,4.5644,0.0,0.0,0.0,0.0,0.0,0.0,0.0,0.0,0.0,0.0,0.0,0.0,0.0,0.0,0.0,0.0,0.0,0.0,0.0,0.0,0.0,0.0,0.0,0.0,0.0,0.0,0.0,0.0,0.0,0.0,0.0,0.0,0.0,0.0,0.0,0.0,0.0,0.0,0.0,0.0,0.0,0.0,0.0,0.0,0.0,0.0,0.0,0.0,0.0,0.0,0.0,0.0,0.0,0.0,0.0,0.0,0.0,0.0,0.0,0.0,0.0,0.0,0.0,0.0,0.0,0.0,0.0,0.0,0.0,0.0,0.0,0.0,0.0,0.0,0.0,0.0,0.0,0.0,0.0,0.0,0.0,0.0,0.0,0.0,0.0,0.0,0.0,0.0,0.0,0.0,0.0,0.0,0.0,0.0,0.0,0.0,0.0,0.0,0.0,0.0,0.0,0.0,0.0,0.0,0.0,0.0,0.0,0.0,5.0853,5.3044,5.6101,5.6858,5.5099,5.1513,4.8528,0.0,0.0,0.0,0.0,0.0,0.0,0.0,0.0,0.0,0.0,0.0,0.0,0.0,0.0,0.0,0.0,0.0,0.0,0.0,0.0,0.0,0.0,0.0,0.0,0.0,0.0,0.0,0.0,0.0,0.0,0.0,0.0,0.0,0.0,0.0,0.0,0.0,0.0,0.0,0.0,0.0,0.0,0.0,0.0,0.0,0.0,0.0,0.0,0.0,0.0,0.0,0.0,0.0,0.0,0.0,0.0,0.0,0.0,0.0,0.0,0.0,0.0,0.0,0.0,0.0,0.0,0.0,0.0,0.0,0.0,0.0,0.0,0.0,0.0,0.0,0.0,0.0,0.0,0.0,0.0,0.0,0.0,0.0,0.0,0.0,0.0,0.0,0.0,0.0,0.0,0.0,0.0,0.0,0.0,0.0,0.0,0.0,0.0,0.0,0.0,0.0,0.0,0.0,0.0,0.0,0.0,0.0,0.0,5.2938,5.472,5.7685,5.9254,5.9099,5.4823,5.1341,0.0,0.0,0.0,0.0,0.0,0.0,0.0,0.0,0.0,0.0,0.0,0.0,0.0,0.0,0.0,0.0,0.0,0.0,0.0,0.0,0.0,0.0,0.0,0.0,0.0,0.0,0.0,0.0,0.0,0.0,0.0,0.0,0.0,0.0,0.0,0.0,0.0,0.0,0.0,0.0,0.0,0.0,0.0,0.0,0.0,0.0,0.0,0.0,0.0,0.0,0.0,0.0,0.0,0.0,0.0,0.0,0.0,0.0,0.0,0.0,0.0,0.0,0.0,0.0,0.0,0.0,0.0,0.0,0.0,0.0,0.0,0.0,0.0,0.0,0.0,0.0,0.0,0.0,0.0,0.0,0.0,0.0,0.0,0.0,0.0,0.0,0.0,0.0,0.0,0.0,0.0,0.0,0.0,0.0,0.0,0.0,0.0,0.0,0.0,0.0,0.0,0.0,0.0,0.0,0.0,0.0,0.0,0.0,5.4595,5.6306,5.9254,6.0806,6.0806,5.6375,5.2686,0.0,0.0,0.0,0.0,0.0,0.0,0.0,0.0,0.0,0.0,0.0,0.0,0.0,0.0,0.0,0.0,0.0,0.0,0.0,0.0,0.0,0.0,0.0,0.0,0.0,0.0,0.0,0.0,0.0,0.0,0.0,0.0,0.0,0.0,0.0,0.0,0.0,0.0,0.0,0.0,0.0,0.0,0.0,0.0,0.0,0.0,0.0,0.0,4.4156,0.0,0.0,0.0,0.0,0.0,0.0,0.0,0.0,0.0,0.0,0.0,0.0,0.0,0.0,0.0,0.0,0.0,0.0,0.0,0.0,0.0,0.0,0.0,0.0,0.0,0.0,0.0,0.0,0.0,0.0,0.0,0.0,0.0,0.0,0.0,0.0,0.0,0.0,0.0,0.0,0.0,0.0,0.0,0.0,0.0,0.0,0.0,0.0,0.0,0.0,0.0,0.0,0.0,0.0,0.0,0.0,0.0,0.0,0.0,5.5796,5.7823,6.0461,6.1668,6.122,5.8254,5.5219,0.0,0.0,0.0,0.0,0.0,0.0,0.0,0.0,0.0,0.0,0.0,0.0,0.0,0.0,0.0,0.0,0.0,0.0,0.0,0.0,0.0,0.0,0.0,0.0,0.0,0.0,0.0,0.0,0.0,0.0,0.0,0.0,0.0,0.0,0.0,0.0,0.0,0.0,0.0,0.0,0.0,0.0,0.0,0.0,0.0,0.0,0.0,0.0,0.0,0.0,0.0,0.0,0.0,0.0,0.0,0.0,0.0,0.0,0.0,0.0,0.0,0.0,0.0,0.0,0.0,0.0,0.0,0.0,0.0,0.0,0.0,0.0,0.0,0.0,0.0,0.0,0.0,0.0,0.0,0.0,0.0,0.0,0.0,0.0,0.0,0.0,0.0,0.0,0.0,0.0,0.0,0.0,0.0,0.0,0.0,0.0,0.0,0.0,0.0,0.0,0.0,0.0,0.0,0.0,0.0,0.0,0.0,5.3841,5.6879,5.9133,6.1358,6.2238,6.1634,6.0047,5.784,5.4892,0.0,0.0,0.0,0.0,0.0,0.0,0.0,0.0,0.0,0.0,0.0,0.0,0.0,0.0,0.0,0.0,0.0,0.0,0.0,0.0,0.0,0.0,0.0,0.0,0.0,0.0,0.0,0.0,0.0,0.0,0.0,0.0,0.0,0.0,0.0,0.0,0.0,0.0,3.9301,4.1839,0.0,0.0,0.0,0.0,0.0,0.0,0.0,0.0,4.5408,0.0,0.0,0.0,0.0,0.0,0.0,0.0,0.0,0.0,0.0,0.0,0.0,0.0,0.0,0.0,0.0,0.0,0.0,0.0,0.0,0.0,0.0,0.0,0.0,0.0,0.0,0.0,0.0,0.0,0.0,0.0,0.0,0.0,0.0,0.0,0.0,0.0,0.0,0.0,0.0,0.0,0.0,0.0,0.0,0.0,0.0,0.0,0.0,0.0,0.0,0.0,0.0,0.0,0.0,0.0,0.0,5.1646,5.5485,5.8289,5.9978,6.1652,6.2756,6.3151,6.1116,5.8875,5.6426,0.0,0.0,0.0,0.0,0.0,0.0,0.0,0.0,0.0,0.0,0.0,0.0,0.0,0.0,0.0,0.0,0.0,0.0,0.0,0.0,0.0,0.0,0.0,0.0,0.0,0.0,0.0,0.0,0.0,0.0,0.0,0.0,0.0,0.0,0.0,0.0,0.0,0.0,0.0,4.4122,4.6239,0.0,0.0,0.0,0.0,0.0,0.0,0.0,0.0,4.7375,0.0,0.0,0.0,0.0,0.0,0.0,0.0,0.0,0.0,0.0,0.0,0.0,0.0,0.0,0.0,0.0,0.0,0.0,0.0,0.0,0.0,0.0,0.0,0.0,0.0,0.0,0.0,0.0,0.0,0.0,0.0,0.0,0.0,0.0,0.0,0.0,0.0,0.0,0.0,0.0,0.0,0.0,0.0,0.0,0.0,0.0,0.0,0.0,0.0,0.0,0.0,0.0,0.0,0.0,0.0,5.4487,5.753,6.022,6.2461,6.3669,6.4067,6.36,6.2151,5.9737,0.0,0.0,0.0,0.0,0.0,0.0,0.0,0.0,0.0,0.0,0.0,0.0,0.0,0.0,0.0,0.0,0.0,0.0,0.0,0.0,0.0,0.0,0.0,0.0,0.0,0.0,0.0,0.0,0.0,0.0,0.0,0.0,0.0,0.0,0.0,0.0,0.0,0.0,0.0,0.0,4.4876,4.7089,5.021,0.0,0.0,0.0,0.0,0.0,0.0,4.9742,4.9476,0.0,0.0,0.0,0.0,0.0,0.0,0.0,0.0,0.0,0.0,0.0,0.0,0.0,0.0,0.0,0.0,0.0,0.0,0.0,0.0,0.0,0.0,0.0,0.0,0.0,0.0,0.0,0.0,0.0,0.0,0.0,0.0,0.0,0.0,0.0,0.0,0.0,0.0,0.0,0.0,0.0,0.0,0.0,0.0,0.0,0.0,0.0,0.0,0.0,0.0,0.0,0.0,0.0,0.0,0.0,5.6943,5.9254,6.1806,6.4565,6.5343,6.5067,6.3841,6.2668,6.0082,0.0,0.0,0.0,0.0,0.0,0.0,0.0,0.0,0.0,0.0,0.0,0.0,0.0,0.0,0.0,0.0,0.0,0.0,0.0,0.0,0.0,0.0,0.0,0.0,0.0,0.0,0.0,0.0,0.0,0.0,0.0,0.0,0.0,0.0,0.0,0.0,0.0,0.0,0.0,0.0,0.0,4.8029,5.2378,5.112,0.0,0.0,0.0,0.0,5.079,5.1811,0.0,0.0,0.0,0.0,0.0,0.0,0.0,0.0,0.0,0.0,0.0,0.0,0.0,0.0,0.0,0.0,0.0,0.0,0.0,0.0,0.0,0.0,0.0,0.0,0.0,0.0,0.0,0.0,0.0,0.0,0.0,0.0,0.0,0.0,0.0,0.0,0.0,0.0,0.0,0.0,0.0,0.0,0.0,0.0,0.0,0.0,0.0,0.0,0.0,0.0,0.0,0.0,0.0,0.0,0.0,0.0,5.7702,6.0013,6.2324,6.4565,6.4807,6.4738,6.4531,6.191,5.9288,0.0,0.0,0.0,0.0,0.0,0.0,0.0,0.0,0.0,0.0,0.0,0.0,0.0,0.0,0.0,0.0,0.0,0.0,0.0,0.0,0.0,0.0,0.0,0.0,0.0,0.0,0.0,0.0,0.0,0.0,0.0,0.0,0.0,0.0,0.0,0.0,0.0,0.0,0.0,0.0,0.0,4.9689,5.2075,5.2858,5.3303,0.0,0.0,5.3458,5.2925,5.4573,0.0,0.0,0.0,0.0,0.0,0.0,0.0,0.0,0.0,0.0,0.0,0.0,0.0,0.0,0.0,0.0,0.0,0.0,0.0,0.0,0.0,0.0,0.0,0.0,0.0,0.0,0.0,0.0,0.0,0.0,0.0,0.0,0.0,0.0,0.0,0.0,0.0,0.0,0.0,0.0,0.0,0.0,0.0,0.0,0.0,0.0,0.0,0.0,0.0,0.0,0.0,0.0,0.0,0.0,0.0,5.6805,5.9806,6.2944,6.5447,6.7241,6.731,6.6876,6.6014,6.3462,6.0634,0.0,0.0,0.0,0.0,0.0,0.0,0.0,0.0,0.0,0.0,0.0,0.0,0.0,0.0,0.0,0.0,0.0,0.0,0.0,0.0,0.0,0.0,0.0,0.0,0.0,0.0,0.0,0.0,0.0,0.0,0.0,0.0,0.0,0.0,0.0,0.0,0.0,0.0,0.0,0.0,0.0,0.0,5.3572,5.4731,0.0,0.0,0.0,5.5851,5.5147,0.0,0.0,0.0,0.0,0.0,0.0,0.0,0.0,0.0,0.0,0.0,0.0,0.0,0.0,0.0,0.0,0.0,0.0,0.0,0.0,0.0,0.0,0.0,0.0,0.0,0.0,0.0,0.0,0.0,0.0,0.0,0.0,0.0,0.0,0.0,0.0,0.0,0.0,0.0,0.0,0.0,0.0,0.0,0.0,0.0,0.0,0.0,0.0,0.0,0.0,0.0,0.0,0.0,0.0,0.0,0.0,0.0,6.1599,6.5152,6.7758,6.9242,6.9483,6.8759,6.7034,6.4772,0.0,0.0,0.0,0.0,0.0,0.0,0.0,0.0,0.0,0.0,0.0,0.0,0.0,0.0,0.0,0.0,0.0,0.0,0.0,0.0,0.0,0.0,0.0,0.0,0.0,0.0,0.0,4.3274,0.0,0.0,0.0,0.0,0.0,0.0,0.0,0.0,0.0,0.0,0.0,0.0,0.0,0.0,5.1635,5.549,5.6917,5.8058,0.0,0.0,5.8051,5.7493,5.8186,5.7897,0.0,0.0,0.0,0.0,0.0,0.0,0.0,0.0,0.0,0.0,0.0,0.0,0.0,0.0,0.0,0.0,0.0,0.0,0.0,0.0,0.0,0.0,0.0,0.0,0.0,0.0,0.0,0.0,0.0,0.0,0.0,0.0,0.0,0.0,0.0,0.0,0.0,0.0,0.0,0.0,0.0,0.0,0.0,0.0,0.0,0.0,0.0,0.0,0.0,0.0,0.0,0.0,0.0,0.0,5.8685,6.2376,6.5428,6.7758,6.9242,7.0001,6.9276,6.7068,6.4791,6.1806,0.0,0.0,0.0,0.0,0.0,0.0,0.0,0.0,0.0,0.0,0.0,0.0,0.0,0.0,0.0,0.0,0.0,0.0,0.0,0.0,0.0,0.0,0.0,0.0,0.0,0.0,0.0,0.0,0.0,0.0,0.0,0.0,0.0,0.0,0.0,0.0,0.0,0.0,0.0,0.0,0.0,5.4602,5.7354,5.9563,6.1221,0.0,6.0873,5.9926,5.9859,6.1076,6.0782,5.6985,0.0,0.0,0.0,0.0,0.0,0.0,0.0,0.0,0.0,0.0,0.0,0.0,0.0,0.0,0.0,0.0,0.0,0.0,0.0,0.0,0.0,0.0,0.0,0.0,0.0,0.0,0.0,0.0,0.0,0.0,0.0,0.0,0.0,0.0,0.0,0.0,0.0,0.0,0.0,0.0,0.0,0.0,0.0,0.0,0.0,0.0,0.0,0.0,0.0,0.0,0.0,0.0,0.0,5.915,6.248,6.6413,6.8931,6.9966,7.0705,7.0242,6.8448,6.5738,6.2944,0.0,0.0,0.0,0.0,0.0,0.0,0.0,0.0,0.0,0.0,0.0,0.0,0.0,0.0,0.0,0.0,0.0,0.0,0.0,0.0,0.0,0.0,0.0,0.0,0.0,0.0,0.0,0.0,4.8143,4.812,4.7619,0.0,0.0,0.0,0.0,0.0,0.0,0.0,0.0,0.0,0.0,5.7237,5.9924,6.166,0.0,0.0,6.1521,6.052,5.9573,6.0317,6.0163,5.7756,5.659,0.0,0.0,0.0,0.0,0.0,0.0,0.0,0.0,0.0,0.0,0.0,0.0,0.0,0.0,0.0,0.0,0.0,0.0,0.0,0.0,0.0,0.0,0.0,0.0,0.0,0.0,0.0,0.0,0.0,0.0,0.0,0.0,0.0,0.0,0.0,0.0,0.0,0.0,0.0,0.0,0.0,0.0,0.0,0.0,0.0,0.0,0.0,0.0,0.0,0.0,0.0,0.0,6.0116,6.3151,6.7448,7.0001,7.0725,7.1222,7.0774,6.9311,6.6551,6.3876,0.0,0.0,0.0,0.0,0.0,0.0,0.0,0.0,0.0,0.0,0.0,0.0,0.0,0.0,0.0,0.0,0.0,0.0,0.0,0.0,0.0,0.0,0.0,0.0,0.0,0.0,0.0,0.0,4.985,4.9582,4.9028,0.0,0.0,0.0,0.0,0.0,0.0,0.0,0.0,0.0,0.0,5.9685,6.1931,6.3161,6.3632,6.3125,6.2042,6.0994,6.0148,5.9877,5.9268,5.7814,0.0,0.0,0.0,0.0,0.0,0.0,0.0,0.0,0.0,0.0,0.0,0.0,0.0,0.0,0.0,0.0,0.0,0.0,0.0,0.0,0.0,0.0,0.0,0.0,0.0,0.0,0.0,5.0755,0.0,0.0,5.0362,0.0,0.0,0.0,0.0,0.0,0.0,0.0,0.0,0.0,0.0,0.0,0.0,0.0,0.0,0.0,0.0,0.0,0.0,0.0,0.0,0.0,0.0,6.1599,6.4634,6.8379,7.0691,7.1394,7.1463,7.0794,6.9311,6.7068,6.4446,6.1358,0.0,0.0,0.0,0.0,0.0,0.0,0.0,0.0,0.0,0.0,0.0,0.0,0.0,0.0,0.0,0.0,0.0,0.0,0.0,0.0,0.0,0.0,0.0,0.0,0.0,0.0,5.0727,5.129,5.1563,0.0,0.0,0.0,0.0,0.0,0.0,0.0,0.0,0.0,5.4991,5.8959,6.1923,6.3,6.3964,6.4546,6.4512,6.2685,6.1535,6.211,6.0486,5.8506,0.0,0.0,0.0,0.0,0.0,0.0,0.0,0.0,0.0,0.0,0.0,0.0,0.0,0.0,0.0,0.0,0.0,0.0,0.0,0.0,0.0,0.0,0.0,0.0,0.0,0.0,0.0,5.2674,5.3188,0.0,0.0,0.0,0.0,0.0,0.0,0.0,0.0,0.0,0.0,0.0,6.2799,6.3577,0.0,0.0,0.0,0.0,0.0,0.0,0.0,0.0,0.0,0.0,0.0,0.0,6.1151,6.4634,6.7428,6.9463,7.0725,7.0794,7.0311,6.9311,6.7103,6.3979,5.9926,0.0,0.0,0.0,0.0,0.0,0.0,0.0,0.0,0.0,0.0,0.0,0.0,0.0,0.0,0.0,0.0,0.0,0.0,0.0,0.0,0.0,0.0,0.0,0.0,0.0,5.2659,0.0,0.0,0.0,0.0,0.0,0.0,0.0,0.0,0.0,0.0,0.0,5.501,5.8676,6.1193,6.3033,6.3998,6.4383,6.4613,0.0,0.0,0.0,0.0,0.0,0.0,0.0,0.0,0.0,0.0,0.0,0.0,0.0,0.0,5.773,5.5987,5.6258,5.6797,5.7013,0.0,0.0,0.0,0.0,0.0,0.0,0.0,0.0,0.0,0.0,0.0,0.0,0.0,0.0,5.539,5.5684,5.5941,0.0,0.0,0.0,0.0,0.0,0.0,0.0,0.0,6.2983,6.4589,6.6066,6.6854,6.7425,6.7651,6.5663,6.3286,0.0,0.0,0.0,0.0,0.0,0.0,0.0,0.0,6.1944,6.5428,6.7738,6.9656,7.1105,7.0691,7.0173,6.9656,6.6965,6.3945,6.0703,6.0064,5.8857,0.0,0.0,0.0,0.0,0.0,0.0,0.0,0.0,0.0,0.0,0.0,0.0,0.0,0.0,0.0,0.0,0.0,0.0,0.0,0.0,0.0,0.0,0.0,5.5428,0.0,0.0,0.0,0.0,0.0,0.0,0.0,0.0,0.0,5.5913,5.7055,5.8925,6.1411,6.3087,6.4201,6.4559,0.0,0.0,0.0,0.0,0.0,0.0,0.0,6.0554,5.9539,6.0216,6.1061,6.1569,6.2279,6.3024,6.3768,0.0,0.0,6.025,6.025,6.0569,6.0569,6.1472,6.1886,6.0705,6.1498,6.2448,0.0,0.0,0.0,0.0,5.5283,0.0,0.0,0.0,5.7141,5.7629,0.0,5.9086,0.0,0.0,0.0,0.0,6.0283,6.1846,0.0,0.0,6.7552,6.883,6.8815,6.9569,6.99,6.9668,6.8595,6.7487,6.6164,6.0923,0.0,0.0,0.0,0.0,0.0,0.0,6.4014,6.6945,6.9173,7.1105,7.2519,7.1139,7.0346,7.0173,6.6704,6.4427,6.3565,6.2117,6.0668,5.9133,5.8926,0.0,0.0,0.0,0.0,0.0,0.0,0.0,0.0,0.0,0.0,0.0,0.0,0.0,0.0,0.0,0.0,0.0,0.0,0.0,0.0,5.6865,0.0,0.0,0.0,0.0,0.0,0.0,0.0,0.0,0.0,6.0815,5.9309,6.1397,6.3236,6.3283,0.0,0.0,0.0,0.0,6.4613,6.4681,6.3429,6.2536,6.2584,6.1298,6.0317,6.0283,0.0,0.0,6.4444,6.4174,6.4052,6.4681,6.4952,6.458,6.3917,6.368,6.3646,6.3714,6.4323,6.4492,6.3917,6.4864,6.5878,6.3889,0.0,0.0,0.0,0.0,5.9908,6.097,6.2083,6.3246,6.3503,6.3233,6.3453,0.0,0.0,0.0,0.0,0.0,0.0,6.4702,6.6784,6.8229,6.9495,7.0604,7.136,7.2006,7.2475,7.1166,6.9805,6.8394,6.632,6.4025,6.1652,0.0,0.0,0.0,0.0,6.4757,6.7635,6.898,7.0346,7.1829,7.038,6.9104,6.8,6.6911,6.5481,6.3687,6.3186,6.222,6.0685,5.9064,0.0,0.0,0.0,0.0,0.0,0.0,0.0,0.0,0.0,0.0,0.0,0.0,0.0,0.0,0.0,0.0,0.0,0.0,0.0,5.8634,5.8617,5.8771,0.0,0.0,0.0,0.0,0.0,0.0,0.0,0.0,0.0,6.5174,6.416,6.3822,0.0,0.0,6.485,6.4613,6.4613,6.4986,6.6034,6.4918,0.0,6.6068,6.4613,6.3328,6.3328,6.4126,6.5222,6.6711,6.7692,6.8335,6.8538,6.9045,6.9294,6.9023,6.7704,6.6948,6.7387,6.8098,6.8132,6.7083,6.8267,6.9688,7.0164,6.6905,6.3865,6.2827,6.3214,6.3559,6.4393,6.5608,6.6549,6.6696,6.6292,6.6573,6.5802,6.4261,6.4233,0.0,0.0,0.0,6.7506,6.9521,7.0068,7.083,7.1798,7.2275,7.2753,7.3179,7.2655,7.1608,7.0154,6.9724,6.8444,6.6225,0.0,6.2806,6.4481,6.4807,6.629,6.8911,6.9794,7.0622,7.1463,7.007,6.8724,6.7517,6.7152,6.6344,6.4979,6.4358,6.3462,6.2255,6.0323,5.9047,0.0,0.0,0.0,0.0,0.0,0.0,0.0,0.0,0.0,0.0,0.0,5.2356,5.3065,0.0,0.0,0.0,5.7738,5.9737,6.1392,6.1579,0.0,0.0,0.0,0.0,0.0,0.0,0.0,6.5751,6.6576,6.7387,6.8233,6.6846,6.5933,6.6495,6.617,6.5899,6.5899,0.0,6.6339,6.7535,6.6677,6.6373,6.7658,6.6779,6.6102,6.6711,6.7421,6.8166,6.9079,7.0263,7.0906,7.077,7.1007,7.1391,7.1661,7.0804,6.9992,6.9992,7.0331,7.0432,7.0094,7.1007,7.1966,7.5586,7.4305,6.8375,6.6692,6.7767,6.652,6.6843,6.8178,6.8288,6.8214,6.8214,6.8898,6.8311,6.6769,6.6806,0.0,7.011,7.011,7.0917,7.2496,7.2532,7.2569,7.2679,7.2701,7.2701,7.2826,7.3523,7.3115,7.1727,7.1745,7.1295,7.0352,6.6945,6.5566,6.6275,6.6896,6.8276,7.0429,7.1118,7.1519,7.1463,7.0165,6.906,6.8241,6.7359,6.6911,6.693,6.5462,6.4324,6.3669,6.2082,6.0289,5.8323,0.0,0.0,0.0,0.0,0.0,0.0,0.0,0.0,0.0,0.0,0.0,0.0,0.0,0.0,0.0,6.0926,0.0,6.3722,6.5171,0.0,0.0,0.0,6.5816,6.6479,6.6846,6.7286,6.8064,0.0,0.0,6.9282,6.9316,6.9079,6.8267,6.8064,6.7996,6.7996,6.7929,6.8301,6.9011,6.8504,6.803,6.8335,6.8233,6.8605,6.9789,7.0872,7.1142,7.1255,7.1819,7.2056,7.1515,7.1424,7.1695,7.236,7.2935,7.3172,7.1898,7.1627,7.2022,7.3037,7.2969,7.3206,7.7111,7.5607,7.3465,7.2071,7.1338,7.16,7.1908,7.2326,7.2936,7.2863,7.2253,7.1835,7.077,6.9229,6.9229,6.9559,7.011,7.011,7.0954,7.2459,7.2532,7.3156,7.4331,7.4331,7.4647,7.5249,7.5432,7.4768,7.3404,7.3886,7.2884,7.0476,7.007,6.9704,6.9311,6.8966,6.9587,7.1222,7.1394,7.1498,7.1484,7.1196,7.0399,6.9055,6.7172,6.6413,6.6945,6.4945,6.4048,6.4358,6.191,6.0461,6.0496,5.884,0.0,0.0,0.0,0.0,0.0,0.0,0.0,0.0,0.0,5.6322,5.7047,0.0,6.0684,0.0,6.288,6.4346,6.529,6.6689,0.0,0.0,6.7931,6.8877,6.868,6.8736,6.924,7.0364,7.0647,7.0748,7.077,7.1278,7.1345,7.0601,6.9519,6.8842,6.8808,6.8808,6.9079,6.9688,6.9316,6.9214,7.0173,7.05,7.0545,7.0973,7.1188,7.1458,7.2056,7.2259,7.2326,7.2191,7.2631,7.3026,7.3195,7.3849,7.4424,7.4525,7.4221,7.3893,7.4289,7.4221,7.4424,7.947,7.8259,7.7818,7.69,7.5652,7.4294,7.4111,7.4771,7.483,7.505,7.5249,7.4426,7.3817,7.3303,7.2936,7.3156,7.3817,7.3487,7.3986,7.5175,7.4793,7.5124,7.5968,7.5968,7.5815,7.5625,7.5974,7.5147,7.3449,7.4083,7.3417,7.147,7.1829,7.1829,7.1415,7.1001,7.1381,7.2519,7.2209,7.2015,7.2001,7.1096,7.0188,6.9296,6.7802,6.7065,6.7115,6.5729,6.4987,6.4913,6.2456,6.0999,6.0929,5.9408,5.8338,0.0,0.0,0.0,0.0,0.0,0.0,0.0,0.0,0.0,0.0,0.0,6.3218,6.4262,6.5378,6.6435,6.7344,6.8759,6.9244,6.826,6.9803,7.0798,7.041,7.0607,7.1005,7.1684,7.209,7.2157,7.1853,7.2428,7.2732,7.2326,7.1582,7.0804,7.0195,7.0094,7.0263,7.0601,7.0331,7.0331,7.1188,7.1289,7.1447,7.1729,7.209,7.2529,7.3274,7.3646,7.3781,7.3477,7.3713,7.3883,7.3612,7.439,7.5236,7.554,7.5676,7.5879,7.6454,7.6352,7.6318,8.2186,8.1436,8.1326,8.0828,7.9816,7.6071,7.5285,7.6533,7.5821,7.6225,7.7436,7.6754,7.6738,7.7252,7.6592,7.7047,7.8369,7.7656,7.7766,7.8516,7.7803,7.7509,7.7619,7.7619,7.692,7.568,7.6228,7.5457,7.3422,7.3854,7.3787,7.3178,7.3031,7.2968,7.2968,7.3073,7.3343,7.3793,7.3254,7.2971,7.2894,7.0856,6.9713,6.956,6.8713,6.8027,6.7595,6.6852,6.6211,6.5561,6.3502,6.1862,6.0911,6.0167,5.9459,0.0,5.953,0.0,0.0,0.0,0.0,0.0,0.0,0.0,0.0,6.3979,6.5876,6.7325,6.8034,6.8724,6.9497,7.0932,7.1449,7.0683,7.1692,7.2363,7.2076,7.2384,7.2643,7.2665,7.324,7.3341,7.2699,7.3195,7.3612,7.3432,7.3331,7.28,7.1853,7.1458,7.1357,7.1323,7.1289,7.1154,7.1323,7.1481,7.1887,7.2462,7.3105,7.3883,7.4593,7.5202,7.5473,7.5033,7.5009,7.4864,7.4075,7.51,7.5912,7.5946,7.6487,7.7299,7.8145,7.7841,7.801,8.4646,8.3838,8.3197,8.248,8.1562,7.9522,7.8825,7.9082,7.8935,7.8662,7.8332,7.8185,7.7839,7.7326,7.7142,7.7252,7.7546,7.7362,7.7766,7.8589,7.8442,7.8699,7.9286,7.9339,7.9166,7.8855,7.8416,7.7906,7.745,7.6226,7.5633,7.5507,7.4828,7.4477,7.4507,0.0,0.0,0.0,7.4194,7.4321,7.4128,7.2991,7.201,7.1135,6.8613,0.0,6.8974,6.669,6.5861,6.6935,6.4769,0.0,0.0,0.0,0.0,0.0,0.0,0.0,0.0,0.0,0.0,0.0,6.7448,6.6861,6.5274,6.7137,6.8828,6.969,6.9897,7.0256,7.1015,7.2485,7.3206,7.2936,7.4106,7.4831,7.4423,7.3934,7.3741,7.4143,7.4322,7.4119,7.35,7.395,7.4153,7.368,7.35,7.3398,7.3128,7.2529,7.1988,7.1458,7.1345,7.1345,7.1289,7.2293,7.3003,7.3341,7.3916,7.4627,7.5303,7.554,7.5946,7.6217,7.6961,7.7029,7.6318,7.6961,7.7198,7.6758,7.7232,7.7671,7.7367,7.669,7.6521,8.5563,8.5159,8.4756,8.4352,0.0,8.226,8.1819,8.2092,8.0901,8.0388,8.0351,8.0388,8.0351,8.0298,7.9895,7.9931,8.0298,7.9895,7.9947,8.0388,8.0388,8.0571,8.0991,8.0991,8.0557,7.9789,7.9387,7.8763,7.7991,7.675,7.6184,7.6207,7.5756,7.5527,7.5568,7.6338,7.6343,7.5545,7.5899,7.5831,7.5317,7.4154,7.3066,7.2133,7.0345,0.0,0.0,0.0,0.0,0.0,0.0,0.0,0.0,6.4006,0.0,6.5208,6.5688,6.6723,6.8517,6.9035,6.9394,6.9739,7.0518,7.0173,6.8276,6.9207,7.0311,7.1415,7.1553,7.2002,7.3063,7.3912,7.4252,7.4125,7.5043,7.5674,7.5697,7.5308,7.509,7.5278,7.5205,7.4864,7.4153,7.4695,7.4999,7.4661,7.4559,7.4471,7.4181,7.3196,7.218,7.1604,7.2203,7.2418,7.2124,7.2778,7.3646,7.3984,7.4356,7.4897,7.5574,7.5676,7.5845,7.6251,7.6623,7.669,7.6454,7.6623,7.6758,7.642,7.6589,7.6927,7.6893,7.713,7.7468,8.6628,8.6628,8.6481,8.6334,8.6094,8.4499,8.4188,8.4682,8.2553,0.0,0.0,8.2643,8.2994,8.3528,8.2774,8.2847,8.3528,8.2627,8.2333,8.259,8.248,8.248,8.2627,8.248,8.1722,8.0449,8.0141,7.9428,7.8223,7.7289,7.6879,7.7,7.6916,7.679,7.6883,7.7611,7.7937,7.7737,7.747,7.711,7.647,7.4987,7.3849,7.3134,7.2502,7.1579,7.0388,7.0434,6.9895,6.8517,6.846,6.766,6.5977,6.5963,6.625,6.6647,6.6827,6.7758,6.9759,7.0567,7.1325,7.205,7.2705,7.245,7.0932,7.0932,7.1588,7.2968,7.3106,7.3636,7.4994,7.5235,7.5308,7.5269,7.5934,7.6542,7.6849,7.6684,7.6543,7.6449,7.6269,7.5879,7.5405,7.5642,7.598,7.6048,7.5777,7.5534,7.493,7.3753,7.2689,7.2337,7.304,7.3583,7.3142,7.3344,7.3883,7.4424,7.4695,7.5033,7.5506,7.5811,7.5912,7.6014,7.598,7.6149,7.598,7.6082,7.5845,7.5709,7.5845,7.6115,7.6826,7.8077,7.8788,8.9895,8.9858,8.9179,8.85,8.7729,8.6114,8.5543,8.5543,8.4535,8.4168,8.4242,8.4278,8.4315,8.4389,8.3601,8.3691,8.4315,8.2884,8.2957,8.4205,8.3581,8.3601,8.4205,8.3564,8.3128,8.2808,8.1489,8.109,8.129,7.9932,7.9558,8.0062,7.9556,7.9215,7.9306,8.0009,8.0107,7.9441,7.7937,7.7331,7.7704,7.6089,7.5041,7.4747,7.404,7.3631,7.3522,7.2917,7.2559,7.2443,7.1696,7.0658,6.9473,6.9849,7.0045,6.9845,7.036,7.1174,7.214,7.2899,7.3636,7.4339,7.4546,7.396,7.2554,7.2968,7.3671,7.4511,7.4615,7.4925,7.5822,7.6511,7.7132,7.7764,7.8465,7.8821,7.8434,7.8282,7.8115,7.7799,7.772,7.7619,7.7382,7.7043,7.6976,7.729,7.6641,7.5615,7.5159,7.4469,7.3923,7.3674,7.3742,7.3719,7.3581,7.3974,7.4458,7.4559,7.5134,7.5506,7.5642,7.6149,7.6521,7.6657,7.6961,7.7164,7.6758,7.6724,7.6352,7.5879,7.6149,7.6657,7.6893,7.8077,7.9025,9.0629,9.0537,9.0207,8.9583,8.8702,8.7142,8.6187,8.5837,8.5894,8.5637,8.5196,8.4792,8.4829,8.5159,8.4425,8.4499,8.5196,8.4022,8.3875,8.4535,8.4205,8.4242,8.4535,8.4242,8.3821,8.3344,8.2684,8.226,8.2084,8.0935,8.0531,8.0875,8.0514,8.0587,8.1068,8.1394,8.147,8.1085,7.9868,7.893,7.8352,7.7975,7.7311,7.6339,7.5901,7.5567,7.5222,7.4455,7.39,7.3515,7.3931,7.3341,7.1604,7.2549,7.2912,7.2299,7.2554,7.3084,7.3843,7.4636,7.5361,7.6063,7.6166,7.6063,7.5844,7.5326,7.5361,7.6097,7.6511,7.7097,7.7856,7.8235,7.858,7.8948,7.9327,7.9579,7.9645,7.9205,7.8971,7.9156,7.8749,7.8414,7.838,7.8108,7.7972,7.8244,7.7489,7.6733,7.6108,7.6188,7.5743,7.4491,7.473,7.4956,7.4487,7.4799,7.5134,7.5202,7.5473,7.5676,7.5709,7.6082,7.6217,7.6251,7.6555,7.6589,7.6284,7.6251,7.6048,7.5912,7.5946,7.6352,7.6893,7.8077,7.916,9.0886,9.0886,9.0886,9.0317,8.929,8.7675,8.6628,8.6151,8.6738,8.6628,8.6004,8.5416,8.549,8.593,8.5233,8.5306,8.5857,8.5049,8.4792,8.5123,8.4939,8.4976,8.5123,8.4976,8.4535,8.3931,8.3748,8.3344,8.2708,8.1873,8.1449,8.1485,8.1631,8.2072,8.272,8.2737,8.2737,8.27,8.2113,8.0975,7.925,7.9596,7.9192,7.7986,7.7876,7.7546,7.6937,7.635,7.5726,7.5175,7.6051,7.5709,7.3904,7.4666,7.4902,7.416,7.405,7.4395,7.5132,7.5753,7.6477,7.7373,7.7477,7.7787,7.843,7.7718,7.727,7.7718,7.8235,7.8844,7.9304,7.9614,7.9752,7.9752,7.9925,8.0246,8.0589,8.007,7.9791,8.0258,7.9748,7.9296,7.9218,7.9057,7.8886,7.8671,7.8575,7.8166,7.7377,7.7675,7.7079,7.5778,7.588,7.6115,7.5372,7.5422,7.5632,7.5676,7.5676,7.5811,7.5879,7.5879,7.5845,7.598,7.5845,7.5845,7.5743,7.5946,7.6014,7.6082,7.6454,7.6893,7.7739,7.845,7.9329,9.1693,9.1693,9.1693,9.0812,8.929,8.7711,8.7014,8.6941,8.6995,8.6995,8.6921,8.6794,8.6794,8.6775,8.604,8.6114,8.6684,8.5306,8.5416,8.6537,8.6004,8.6077,8.6611,8.6004,8.5637,8.547,8.4829,8.4425,8.4205,8.3481,8.3118,8.3261,8.3884,8.4231,8.4352,8.4352,8.4352,8.4389,8.4315,8.3141,8.0901,8.0131,7.9743,7.9596,7.9559,7.9522,7.9376,7.9412,7.9286,7.9181,7.8562,7.788,7.6993,7.6372,7.565,7.4908,7.4856,7.5132,7.5891,7.6029,7.6775,7.8085,7.8361,7.8672,7.9373,7.9913,7.989,7.9511,7.9373,7.9511,7.9545,8.0097,8.0476,8.0511,8.1086,8.1509,8.1307,8.128,8.1125,8.0917,8.0795,8.08,8.0633,8.0213,7.9573,7.9074,7.9445,7.9346,7.8236,7.8259,7.811,7.6999,7.695,7.6676,7.592,7.5666,7.5733,7.5709,7.5676,7.5912,7.6217,7.6082,7.5845,7.6149,7.6082,7.5709,7.5946,7.6217,7.6724,7.6893,7.7638,7.8822,7.9566,7.9431,7.9431,9.2978,9.2574,9.2574,9.162,9.0024,8.8886,8.8409,8.8409,8.8409,8.8409,8.8409,8.8409,8.7895,8.6995,8.6664,8.6701,8.6941,8.6317,8.6371,8.6941,8.6664,8.6684,8.6941,8.6701,8.6297,8.582,8.5453,8.5049,8.4609,8.4278,8.4132,8.4132,8.4462,8.4609,8.4609,8.4609,8.4609,8.4609,8.4609,8.4095,8.3177,8.2333,8.1709,8.1269,8.1211,8.0991,8.0608,8.0954,8.054,7.9251,7.9565,7.9321,7.8054,7.7685,7.7558,7.7589,7.7201,7.7097,7.743,7.7465,7.7913,7.8982,7.9913,8.0569,8.0845,8.1511,8.1845,8.1535,8.1121,8.0879,8.0879,8.1155,8.1328,8.1362,8.1638,8.1763,8.1633,8.1644,8.1562,8.1466,8.1466,8.15,8.1431,8.1191,8.0675,8.0057,8.0231,7.9968,7.9085,7.9211,7.9084,7.8475,7.8513,7.7887,7.6469,7.5923,7.591,7.5757,7.5676,7.5912,7.6082,7.598,7.5845,7.6183,7.598,7.598,7.6386,7.6589,7.6995,7.7468,7.7773,7.8686,7.9431,7.9304,7.9406,9.3969,9.3418,9.2978,9.195,9.0537,8.973,8.94,8.94,8.94,8.94,8.94,8.94,8.8776,8.7711,8.7418,8.7308,8.7308,8.7088,8.7014,8.7014,8.7014,8.7014,8.7014,8.7014,8.6701,8.6224,8.6151,8.571,8.5049,8.5196,8.5159,8.5013,8.5159,8.527,8.527,8.527,8.527,8.5306,8.527,8.527,8.5159,8.4462,8.3691,8.2957,8.2847,8.259,8.2023,8.2335,8.1688,7.9933,8.0495,8.0308,7.9129,7.8882,7.9007,7.9384,7.9017,7.8706,7.8706,7.8706,7.9017,7.9787,8.0914,8.1603,8.1845,8.2293,8.2673,8.2776,8.2397,8.2121,8.2397,8.2052,8.1879,8.2052,8.2121,8.2121,8.2121,8.2224,8.2442,8.2397,8.228,8.2017,8.1879,8.1718,8.1487,8.1039,8.0925,8.0649,8.0028,8.006,7.9977,7.9348,7.939,7.8605,7.6899,7.6556,7.637,7.6137,7.6065,7.5974,7.6072,7.6082,7.5946,7.6318,7.6082,7.6183,7.6724,7.6995,7.7739,7.828,7.8517,7.8653,7.9464,7.9295,7.9464,9.4299,9.4006,9.2574,9.1473,9.0555,8.9803,8.9436,8.9546,8.9473,8.9436,8.951,8.951,8.94,8.9253,8.8573,8.8133,8.8059,8.7435,8.7161,8.7161,8.7051,8.7014,8.7014,8.7014,8.6978,8.6885,8.6921,8.6554,8.582,8.6444,8.6481,8.5837,8.6407,8.6831,8.6757,8.6738,8.6867,8.6721,8.6721,8.6831,8.6738,8.604,8.527,8.4646,8.4499,8.4389,8.4231,8.3662,8.312,8.3011,8.153,8.0675,8.0495,7.9872,7.9534,7.9534,7.9477,7.9442,7.9442,7.9442,7.9718,8.0407,8.0752,8.1028,8.1741,8.2052,8.2431,8.288,8.2949,8.3121,8.3673,8.2707,8.2155,8.2604,8.2811,8.2811,8.2845,8.3328,8.3821,8.3718,8.3225,8.2673,8.1983,8.1776,8.1879,8.1776,8.1741,8.1431,8.0787,8.0591,8.035,7.9764,7.9166,7.8294,7.7705,7.7383,7.7276,7.7155,7.6833,7.6479,7.6777,7.6961,7.6657,7.6487,7.6589,7.6758,7.7096,7.7874,7.8923,7.9397,7.9228,7.9464,7.9769,7.9431,7.9566,9.5217,9.4153,9.2501,9.1657,9.1326,9.1069,9.0959,9.0959,9.0922,9.0959,9.0922,9.0922,9.0959,9.0886,9.0078,8.9454,8.8959,8.8666,8.8519,8.8482,8.8023,8.7766,8.7766,8.7766,8.7472,8.7124,8.7545,8.7362,8.6664,8.6885,8.6867,8.6664,8.6848,8.7014,8.7014,8.7014,8.7014,8.7014,8.7014,8.7014,8.7014,8.6701,8.6628,8.6848,8.5894,8.5123,8.4609,8.4718,8.4127,8.2547,8.1809,8.1204,8.0741,8.0859,8.0741,8.0293,8.0201,8.0201,8.0201,8.0201,8.0304,8.0614,8.1545,8.1914,8.2017,8.2638,8.3328,8.3535,8.3604,8.4097,8.4752,8.3707,8.2397,8.2293,8.2614,8.2949,8.3018,8.3511,8.3993,8.3959,8.3742,8.35,8.3121,8.2811,8.2535,8.2466,8.2121,8.1707,8.15,8.1397,8.119,8.1017,8.0741,8.0326,7.9601,7.8429,7.7854,7.7996,7.7863,7.7404,7.743,7.7092,7.6773,7.6251,7.6487,7.7333,7.7671,7.8822,7.987,7.9904,7.9769,7.9803,8.0141,7.9803,7.987,9.6061,9.4923,9.3565,9.2831,9.2611,9.2611,9.2611,9.2611,9.2611,9.2464,9.2244,9.2207,9.206,9.173,9.1253,9.0702,9.0134,8.9657,8.94,8.9326,8.8812,8.8463,8.8243,8.8206,8.7912,8.7545,8.7912,8.7802,8.7088,8.7014,8.7014,8.6978,8.7014,8.7014,8.7014,8.7014,8.7014,8.7014,8.7014,8.7088,8.7325,8.7381,8.7766,8.8264,8.7226,8.628,8.5714,8.5928,8.5147,8.3342,8.2761,8.2198,8.1502,8.1638,8.1569,8.1063,8.1017,8.0994,8.1017,8.1017,8.1017,8.0994,8.1879,8.2293,8.1914,8.2742,8.3407,8.3821,8.3993,8.4604,8.5294,8.4535,8.3466,8.3052,8.3362,8.3638,8.3673,8.4328,8.4604,8.4501,8.4432,8.419,8.3742,8.3431,8.3156,8.2983,8.2431,8.219,8.2155,8.1914,8.1776,8.1741,8.1397,8.1132,8.074,7.9796,7.9082,7.9087,7.8797,7.8323,7.7812,7.7406,7.6855,7.6241,7.6555,7.7536,7.8585,7.9735,8.0141,8.0209,8.0107,8.004,8.0175,8.0175,8.0175,9.6685,9.6428,9.5768,9.4777,9.4116,9.4042,9.4208,9.4079,9.4153,9.3675,9.3125,9.3051,9.2574,9.1987,9.184,9.1767,9.1473,9.0464,8.9877,8.9767,8.951,8.9069,8.8573,8.85,8.839,8.8169,8.8169,8.7729,8.7051,8.7014,8.7014,8.7014,8.7088,8.7161,8.7051,8.7198,8.7161,8.7234,8.7271,8.7528,8.8096,8.8206,8.861,8.9218,8.8487,8.8036,8.7957,8.7085,8.6026,8.516,8.4295,8.3628,8.2742,8.219,8.1776,8.1707,8.1741,8.1776,8.1741,8.1707,8.1672,8.1672,8.181,8.1879,8.1845,8.2017,8.2604,8.358,8.3959,8.4373,8.5087,8.5087,8.488,8.5121,8.4846,8.4915,8.5156,8.5777,8.6018,8.5363,8.519,8.457,8.3638,8.3673,8.3811,8.3362,8.3018,8.2914,8.2845,8.2397,8.1914,8.1741,8.15,8.1269,8.1259,8.1166,8.0656,8.0239,7.9698,7.9179,7.862,7.8108,7.7372,7.6859,7.7662,7.861,7.9295,8.0276,8.0412,8.0479,8.0378,8.0209,8.0209,8.0209,8.0209,9.6722,9.6539,9.5217,9.452,9.4299,9.4299,9.4299,9.4299,9.4299,9.4153,9.3859,9.3345,9.2941,9.2758,9.2684,9.2684,9.2684,9.2648,9.2464,9.1748,9.0776,9.0427,9.0519,9.0078,8.9546,8.8886,8.7858,8.7288,8.7088,8.7051,8.7014,8.7088,8.7582,8.7802,8.7876,8.8335,8.8666,8.8666,8.8629,8.8776,8.8996,8.9033,8.94,9.0079,8.9917,8.9765,8.962,8.7159,8.5665,8.534,8.4478,8.3673,8.2949,8.219,8.181,8.1776,8.1776,8.1776,8.1776,8.1776,8.1776,8.1776,8.1776,8.1776,8.1879,8.2259,8.2707,8.3293,8.3683,8.4304,8.4984,8.519,8.4984,8.4466,8.4846,8.5225,8.5328,8.588,8.6156,8.6018,8.5949,8.5708,8.5294,8.5156,8.4673,8.4397,8.3983,8.3649,8.3545,8.2983,8.2604,8.25,8.1925,8.1397,8.1466,8.15,8.1291,8.0966,8.0585,7.9941,7.9382,7.8811,7.8006,7.7891,7.8718,7.9388,8.0107,8.0547,8.0716,8.0547,8.0276,8.0209,8.0209,8.0209,8.0209,9.775,9.786,9.6612,9.6061,9.6098,9.6061,9.5914,9.5731,9.5951,9.5437,9.441,9.4116,9.3418,9.2758,9.2611,9.2611,9.2684,9.3161,9.3272,9.3088,9.2501,9.2134,9.2207,9.1436,9.0629,8.984,8.8849,8.8189,8.7895,8.7895,8.7895,8.8005,8.8426,8.8647,8.8683,8.9106,8.94,8.94,8.9363,8.9546,8.9767,8.984,9.0207,9.0905,9.0996,9.0819,9.0397,8.8257,8.6838,8.6136,8.5092,8.4249,8.3742,8.2845,8.219,8.2155,8.1948,8.1776,8.1776,8.1776,8.1776,8.1776,8.1776,8.1776,8.1879,8.2293,8.2535,8.2949,8.3304,8.389,8.4604,8.5087,8.4915,8.4535,8.519,8.557,8.5673,8.6018,8.626,8.626,8.626,8.6191,8.5846,8.588,8.5432,8.5225,8.4777,8.4466,8.4225,8.3535,8.319,8.2776,8.2155,8.1845,8.1776,8.1776,8.1776,8.1636,8.1485,8.0781,8.011,7.9525,7.8841,7.8763,7.9277,7.9659,8.031,8.0818,8.1114,8.0648,8.0209,8.0209,8.0209,8.0209,8.0209,9.9548,10.0136,9.9402,9.8851,9.8851,9.8795,9.8374,9.8043,9.8557,9.7309,9.5327,9.5144,9.4226,9.2464,9.2427,9.2354,9.206,9.2648,9.3161,9.3675,9.3932,9.3896,9.2758,9.184,9.1069,9.0555,9.0354,9.0024,8.9363,8.9473,8.9546,8.9546,8.973,8.962,8.973,8.962,8.9877,8.9987,8.984,9.0207,9.0922,9.0812,9.1179,9.1932,9.1863,9.1565,9.108,9.0336,8.9276,8.7749,8.596,8.5052,8.488,8.3776,8.2949,8.2949,8.2293,8.2121,8.1983,8.219,8.2121,8.2155,8.2052,8.1879,8.2017,8.1983,8.2155,8.2638,8.2811,8.3156,8.388,8.4466,8.488,8.5259,8.5742,8.6156,8.6294,8.6294,8.6294,8.6294,8.626,8.6087,8.557,8.5915,8.5846,8.5535,8.5294,8.5259,8.5018,8.4328,8.3328,8.2845,8.2535,8.2052,8.1914,8.1776,8.1776,8.1752,8.1739,8.1323,8.0778,8.0251,7.9489,7.9476,7.9692,8.0065,8.0378,8.0877,8.0919,8.0445,8.0209,8.0209,8.0209,8.0209,8.0209,9.9585,10.0172,9.9438,9.9088,9.9088,9.9088,9.8998,9.8814,9.9015,9.8668,9.7566,9.6135,9.5217,9.452,9.3822,9.3639,9.3749,9.4703,9.5474,9.5731,9.5951,9.4483,9.2427,9.1363,9.0959,9.0776,9.0886,9.0519,9.0372,9.0922,9.1179,9.1216,9.173,9.173,9.1363,9.1767,9.2097,9.2134,9.2097,9.2427,9.2978,9.2648,9.2868,9.351,9.3047,9.297,9.3038,9.186,9.004,8.7796,8.6099,8.519,8.5156,8.4294,8.3752,8.3649,8.3535,8.3397,8.3338,8.3338,8.3373,8.3362,8.288,8.2638,8.2604,8.2086,8.1983,8.2086,8.2121,8.2431,8.3062,8.3431,8.4018,8.5087,8.5811,8.626,8.6294,8.6294,8.6294,8.6294,8.6294,8.6191,8.6122,8.6122,8.6225,8.6018,8.5949,8.5949,8.5639,8.5156,8.4156,8.3604,8.3131,8.25,8.2052,8.1879,8.1776,8.1776,8.1787,8.1728,8.1331,8.0964,8.0092,7.9479,8.009,8.0513,8.0547,8.0784,8.0479,8.0242,8.0209,8.0209,8.0209,8.0209,8.0209,9.9879,10.0283,10.0172,10.0099,10.0099,10.0099,9.9916,9.9732,9.9952,9.9475,9.8521,9.7603,9.6428,9.5492,9.4997,9.4593,9.4483,9.5254,9.5584,9.5621,9.5584,9.4923,9.3859,9.3033,9.2629,9.2611,9.2281,9.2207,9.2244,9.2648,9.2831,9.2905,9.3345,9.3308,9.2905,9.3308,9.3602,9.3565,9.3602,9.3859,9.4189,9.3859,9.3859,9.4263,9.4079,9.4373,9.4514,9.3024,9.0863,8.8627,8.719,8.6363,8.5673,8.5259,8.4821,8.457,8.4225,8.3959,8.3993,8.3993,8.3993,8.3924,8.3535,8.3431,8.3328,8.2949,8.2742,8.2811,8.2466,8.25,8.2776,8.2914,8.3638,8.4915,8.557,8.5984,8.626,8.6294,8.6294,8.6294,8.6294,8.6294,8.6294,8.6294,8.6294,8.6294,8.6225,8.626,8.6156,8.5604,8.5052,8.4432,8.358,8.2787,8.2293,8.2052,8.181,8.1776,8.1776,8.181,8.1596,8.1321,8.0643,8.0112,8.0572,8.0784,8.0648,8.0513,8.0378,8.0242,8.0209,8.0209,8.0209,8.0209,8.0209,10.0356,10.0466,10.12,10.1514,10.1441,10.1477,10.1,10.065,10.1073,10.0302,9.8888,9.8924,9.7713,9.5768,9.5768,9.5217,9.4483,9.4923,9.4813,9.496,9.507,9.5254,9.6025,9.5034,9.4703,9.4703,9.4556,9.4336,9.4226,9.4373,9.4538,9.4575,9.4593,9.4483,9.4299,9.441,9.4428,9.4446,9.441,9.4593,9.474,9.4593,9.4593,9.4887,9.529,9.5511,9.521,9.4011,9.2065,8.9599,8.8976,8.7923,8.6795,8.6641,8.6053,8.5501,8.4915,8.4407,8.4304,8.4442,8.4338,8.4397,8.4294,8.4131,8.4087,8.389,8.3718,8.3718,8.3362,8.3121,8.3121,8.3121,8.388,8.4984,8.5294,8.5673,8.6122,8.6294,8.6294,8.6294,8.6294,8.6294,8.6294,8.6294,8.6294,8.6294,8.6294,8.6294,8.626,8.588,8.5466,8.5018,8.4121,8.3062,8.2638,8.2259,8.1983,8.1776,8.1776,8.1728,8.1562,8.1297,8.0931,8.0712,8.0606,8.0479,8.0378,8.0276,8.031,8.0344,8.0378,8.031,8.0242,8.0209,8.0209,10.065,10.1257,10.1441,10.1514,10.1514,10.1514,10.1404,10.1257,10.1404,10.1147,10.054,9.9622,9.8484,9.7309,9.6722,9.6025,9.5401,9.5768,9.6171,9.6208,9.6208,9.6318,9.6392,9.5401,9.4703,9.4777,9.5144,9.5254,9.5327,9.5731,9.6171,9.6098,9.5914,9.5841,9.5327,9.5236,9.5273,9.5254,9.5254,9.5547,9.5841,9.5511,9.5511,9.5988,9.6282,9.6392,9.6218,9.5328,9.4166,9.2676,9.0535,8.9065,8.8673,8.734,8.6595,8.657,8.6156,8.5742,8.5777,8.5673,8.5777,8.5639,8.519,8.4949,8.488,8.4397,8.4097,8.3993,8.3845,8.3752,8.3614,8.4294,8.457,8.4949,8.5501,8.5949,8.626,8.6294,8.6294,8.6294,8.6294,8.6294,8.6294,8.6294,8.6294,8.6294,8.6294,8.6294,8.6191,8.6087,8.5811,8.5466,8.4673,8.3673,8.2983,8.25,8.1948,8.1728,8.1728,8.1633,8.1442,8.1224,8.0857,8.056,8.0293,8.0209,8.0234,8.0547,8.0716,8.0648,8.0513,8.0412,8.0344,8.0276,8.0209,10.054,10.098,10.1367,10.1514,10.1514,10.1514,10.1514,10.1514,10.1514,10.1514,10.1257,10.0172,9.9218,9.8411,9.7603,9.6832,9.6282,9.6465,9.6685,9.6649,9.6685,9.6685,9.6612,9.5951,9.5437,9.5474,9.5841,9.6042,9.6208,9.6428,9.6612,9.6722,9.6722,9.6428,9.6135,9.6025,9.6061,9.6061,9.6061,9.6282,9.6539,9.6355,9.6171,9.6612,9.6722,9.6722,9.6628,9.6223,9.547,9.4196,9.2108,9.0363,8.9831,8.8371,8.7577,8.7225,8.6708,8.6329,8.6294,8.6294,8.626,8.6329,8.5915,8.6018,8.5949,8.5535,8.5338,8.5304,8.4984,8.4363,8.3614,8.3742,8.4121,8.4259,8.4811,8.5363,8.5742,8.6087,8.6294,8.6294,8.6294,8.6294,8.6294,8.6294,8.6294,8.6294,8.6294,8.6294,8.6294,8.6191,8.6122,8.5742,8.5087,8.4294,8.3466,8.2742,8.1948,8.1705,8.1609,8.1466,8.1248,8.1029,8.0783,8.056,8.036,8.0284,8.0352,8.0699,8.0818,8.0513,8.0378,8.0412,8.0412,8.0242,8.0209,10.0466,10.054,10.118,10.1474,10.1494,10.1474,10.1474,10.1514,10.1514,10.1514,10.1404,10.076,10.0026,9.9255,9.8447,9.7603,9.6869,9.6685,9.6722,9.6722,9.6722,9.6722,9.6649,9.6539,9.6465,9.6685,9.6612,9.6612,9.6612,9.6722,9.6722,9.6722,9.6722,9.6649,9.6649,9.6685,9.6612,9.6575,9.6575,9.6612,9.6759,9.6795,9.6979,9.7273,9.7309,9.7309,9.7273,9.701,9.6501,9.5571,9.3927,9.228,9.0763,8.921,8.8467,8.7743,8.726,8.6949,8.6949,8.6846,8.6811,8.6674,8.6674,8.6949,8.7225,8.688,8.6674,8.651,8.6122,8.4915,8.3638,8.3914,8.3742,8.3638,8.3949,8.4397,8.4949,8.5673,8.6053,8.6294,8.6294,8.6294,8.6294,8.6294,8.6294,8.6294,8.6294,8.6294,8.6294,8.6294,8.6225,8.5984,8.5363,8.4294,8.3431,8.2638,8.1879,8.1681,8.1562,8.1369,8.1151,8.1005,8.0833,8.0684,8.0535,8.041,8.0386,8.0674,8.0615,8.031,8.0378,8.0615,8.0513,8.0242,8.0276,10.133,10.131,10.1275,10.1332,10.1474,10.1348,10.1425,10.1494,10.1551,10.1514,10.1477,10.131,10.0723,9.9989,9.9255,9.8117,9.6942,9.6722,9.6759,9.6759,9.6759,9.6722,9.6832,9.6869,9.6795,9.6722,9.6832,9.6906,9.6795,9.6722,9.6906,9.6795,9.6759,9.6795,9.6869,9.6722,9.6795,9.6979,9.6906,9.6832,9.7052,9.7419,9.7933,9.8374,9.8391,9.8484,9.8411,9.8007,9.7618,9.7312,9.5685,9.4222,9.2494,9.0105,8.9044,8.8812,8.8364,8.7881,8.7812,8.8053,8.8157,8.8226,8.8088,8.8122,8.8157,8.7708,8.7432,8.7191,8.6811,8.5984,8.5811,8.5397,8.5225,8.5018,8.4742,8.4708,8.457,8.4984,8.5673,8.6053,8.6191,8.6294,8.6294,8.6294,8.6294,8.6294,8.6294,8.6294,8.6294,8.6294,8.6294,8.5984,8.5639,8.4432,8.3225,8.2466,8.1787,8.1657,8.1514,8.1345,8.1175,8.1078,8.0931,8.0635,8.046,8.0335,8.0428,8.0615,8.0547,8.031,8.0547,8.0911,8.075,8.0581,8.0581,10.1433,10.1368,10.1685,10.1632,10.1531,10.2161,10.206,10.1604,10.1934,10.1861,10.1477,10.1073,10.0686,10.0062,9.8961,9.7787,9.7016,9.6722,9.6942,9.7126,9.6942,9.6979,9.7273,9.7309,9.7309,9.7456,9.7676,9.764,9.7346,9.7346,9.7493,9.7787,9.7566,9.753,9.7603,9.7126,9.7309,9.7566,9.7566,9.753,9.7897,9.8374,9.8778,9.8998,9.9125,9.9088,9.8941,9.8337,9.7369,9.6352,9.5123,9.3784,9.2275,9.097,8.9562,8.9226,8.8846,8.8398,8.8226,8.8295,8.8536,8.857,8.8605,8.8812,8.8846,8.8536,8.8019,8.7915,8.7777,8.7122,8.6329,8.6363,8.5535,8.4535,8.4673,8.4777,8.4432,8.4811,8.5294,8.5811,8.6087,8.6225,8.6294,8.6294,8.6294,8.6294,8.6294,8.6294,8.6294,8.6294,8.6294,8.5984,8.5604,8.4673,8.35,8.2638,8.1946,8.1757,8.1417,8.1248,8.1005,8.0833,8.061,8.036,8.0259,8.0284,8.0268,8.0412,8.0344,8.0412,8.0818,8.1088,8.1054,8.0987,8.1054,10.1649,10.1559,10.2323,10.2103,10.1559,10.2741,10.2646,10.1804,10.2118,10.2045,10.1477,10.0907,10.0613,10.0136,9.9035,9.7823,9.7163,9.7126,9.7419,9.7897,9.764,9.764,9.797,9.8154,9.8117,9.8227,9.8557,9.8778,9.8264,9.8117,9.8521,9.8631,9.8337,9.8411,9.8631,9.7933,9.8264,9.8447,9.8557,9.8594,9.9145,9.9365,9.9475,9.9585,9.9585,9.9659,9.9695,9.9035,9.7636,9.6271,9.4871,9.3497,9.1572,9.1118,9.0391,8.9174,8.895,8.8639,8.857,8.8743,8.926,8.9295,8.9122,8.9398,8.9536,8.9295,8.8743,8.8639,8.8501,8.8088,8.7156,8.6674,8.5673,8.4639,8.4708,8.4984,8.4535,8.4604,8.5087,8.557,8.5949,8.6018,8.5949,8.6294,8.6294,8.6294,8.6294,8.6294,8.6294,8.6294,8.6225,8.5949,8.5501,8.4811,8.388,8.2983,8.238,8.2005,8.1478,8.1054,8.0759,8.0485,8.0309,8.0209,8.0284,8.0309,8.0259,8.0378,8.0615,8.0911,8.1215,8.1426,8.1562,8.1731,8.1832,10.2538,10.2571,10.3154,10.2683,10.167,10.2312,10.217,10.1604,10.1698,10.1624,10.1514,10.1384,10.1294,10.0853,9.9659,9.8961,9.8521,9.8117,9.8154,9.8668,9.8631,9.8631,9.8924,9.8961,9.8851,9.8924,9.9088,9.9071,9.9035,9.9035,9.9035,9.9181,9.9181,9.9088,9.9328,9.8778,9.8924,9.9088,9.9071,9.9402,9.9989,10.0136,10.0503,10.0907,10.098,10.087,10.0613,9.9839,9.8598,9.7066,9.63,9.4719,9.2711,9.2129,9.117,9.0356,9.0088,9.0467,9.0157,9.0192,9.0295,9.0226,9.0329,9.0571,9.0364,8.9985,8.9329,8.8605,8.8674,8.8605,8.8191,8.7708,8.6846,8.6018,8.5466,8.5052,8.4466,8.4673,8.5121,8.5328,8.5708,8.5535,8.5397,8.5915,8.6294,8.6294,8.6294,8.626,8.6122,8.5949,8.5846,8.5466,8.4984,8.4328,8.3762,8.2935,8.2387,8.2021,8.1469,8.0857,8.0585,8.0335,8.0284,8.0234,8.0343,8.0445,8.053,8.0682,8.1012,8.1384,8.1697,8.2002,8.2272,8.2415,8.2686,10.2367,10.1934,10.2636,10.2291,10.1568,10.2542,10.2463,10.1731,10.1971,10.1898,10.1551,10.1514,10.1294,10.076,9.9989,9.9255,9.8631,9.8557,9.8741,9.9071,9.9162,9.9125,9.9218,9.9512,9.9622,9.9402,9.9989,10.054,10.0319,10.0026,9.9952,10.0319,10.0026,10.0099,10.0099,9.9512,9.9769,10.0172,10.0503,10.067,10.087,10.098,10.1127,10.1441,10.1053,10.087,10.0576,9.9529,9.8037,9.643,9.5364,9.3861,9.2085,9.1418,9.0988,9.0624,9.0605,9.0536,9.0226,9.0605,9.0743,9.0786,9.0786,9.0751,9.0743,9.0502,9.0226,8.9916,8.9847,8.964,8.9295,8.8915,8.7777,8.6915,8.6398,8.5777,8.519,8.5018,8.5225,8.5363,8.5432,8.5328,8.5328,8.5811,8.5984,8.5639,8.5604,8.557,8.5328,8.5018,8.4915,8.4786,8.4235,8.3673,8.3152,8.2494,8.1908,8.1542,8.1204,8.0684,8.046,8.0259,8.0293,8.0437,8.0699,8.0767,8.0784,8.1054,8.1452,8.1832,8.2238,8.2644,8.3058,8.3599,8.3802,10.2126,10.138,10.2349,10.2202,10.1433,10.2825,10.2651,10.1641,10.2081,10.2045,10.1641,10.1477,10.1147,10.065,10.0393,9.9805,9.8998,9.9218,9.9512,9.9622,9.9695,9.9659,9.9805,10.0099,10.0172,9.9438,10.0686,10.122,10.1184,10.1,10.087,10.1477,10.0833,10.087,10.098,10.0576,10.0393,10.1184,10.133,10.1367,10.1441,10.1441,10.1477,10.1294,10.0796,10.0319,10.0062,9.9108,9.7424,9.6168,9.5225,9.4015,9.2224,9.1634,9.1221,9.0832,9.0812,9.064,9.0433,9.0536,9.0743,9.0786,9.0786,9.0786,9.0786,9.0786,9.0751,9.064,9.064,9.0364,9.0088,8.9812,8.8915,8.795,8.7269,8.6742,8.6294,8.6122,8.6053,8.6225,8.6122,8.5432,8.5535,8.588,8.5742,8.5087,8.4915,8.4949,8.4673,8.4294,8.4294,8.4269,8.4062,8.3614,8.329,8.2628,8.1845,8.1249,8.0944,8.0644,8.0494,8.0453,8.052,8.0707,8.1055,8.1342,8.1512,8.1655,8.1866,8.2475,8.305,8.349,8.3964,8.4478,8.4817,10.2228,10.1604,10.3089,10.2832,10.151,10.2391,10.2281,10.1514,10.1587,10.1624,10.1514,10.1477,10.1441,10.122,10.076,10.0613,10.098,10.0503,10.0466,10.0833,10.1237,10.0686,10.0576,10.065,10.0907,10.0356,10.1073,10.1441,10.1477,10.1367,10.1367,10.1477,10.1294,10.1404,10.1441,10.1184,10.1037,10.1514,10.1514,10.1514,10.1514,10.1514,10.1514,10.133,10.0796,10.0283,10.0246,9.9365,9.8359,9.7131,9.6242,9.4961,9.3218,9.216,9.1489,9.084,9.0485,9.0321,9.0295,9.0536,9.0778,9.0786,9.0786,9.0786,9.0786,9.0786,9.0786,9.0786,9.0786,9.0751,9.0467,9.0123,8.9571,8.8984,8.826,8.7708,8.7363,8.7294,8.7225,8.726,8.6811,8.6087,8.5432,8.5708,8.5604,8.4984,8.4742,8.4742,8.419,8.388,8.3914,8.3924,8.3949,8.3821,8.3797,8.3213,8.2487,8.1914,8.1521,8.1133,8.0805,8.0755,8.0721,8.1299,8.1706,8.1962,8.2308,8.2774,8.3155,8.3449,8.3828,8.4167,8.4573,8.5046,8.5418,10.1788,10.1587,10.2212,10.2065,10.1514,10.1824,10.1788,10.1551,10.1514,10.1514,10.1514,10.1514,10.1514,10.1404,10.12,10.0576,10.0246,10.0907,10.0613,10.054,10.0723,10.0907,10.0833,10.087,10.111,10.065,10.111,10.1514,10.1514,10.1587,10.1514,10.1514,10.1514,10.1514,10.1514,10.1551,10.1551,10.1551,10.1551,10.1514,10.1514,10.1514,10.1514,10.1441,10.0743,10.0356,10.0172,9.9512,9.8607,9.7709,9.6881,9.553,9.3958,9.2635,9.1418,9.0483,9.0027,8.9666,8.9812,9.026,9.0751,9.0786,9.0786,9.0786,9.0786,9.0786,9.0786,9.0786,9.0786,9.0786,9.0709,9.0536,9.0192,8.9743,8.9191,8.8605,8.8329,8.826,8.7881,8.7674,8.7225,8.6639,8.5984,8.5432,8.5225,8.4949,8.4742,8.4432,8.388,8.3535,8.3638,8.3638,8.3638,8.3855,8.389,8.3522,8.3095,8.2613,8.2098,8.1794,8.1446,8.096,8.1062,8.1676,8.2367,8.2717,8.3236,8.3974,8.4208,8.3949,8.4234,8.4708,8.5148,8.5554,8.5858,10.1714,10.1514,10.1514,10.1514,10.1514,10.1514,10.1514,10.1514,10.1514,10.1514,10.1514,10.1514,10.1514,10.1514,10.1441,10.1037,10.054,10.087,10.065,10.0723,10.0943,10.0943,10.0833,10.087,10.111,10.0723,10.131,10.1861,10.1514,10.1734,10.1677,10.1587,10.1514,10.1514,10.1551,10.1714,10.1771,10.1587,10.2065,10.1808,10.1698,10.1788,10.1661,10.1477,10.0723,10.0356,10.0099,9.9565,9.887,9.814,9.7284,9.6138,9.4584,9.3022,9.1575,9.0433,8.9523,8.8898,8.8984,8.9605,9.0545,9.0717,9.0786,9.0786,9.0786,9.0786,9.0786,9.0786,9.0786,9.0786,9.0786,9.0709,9.0605,9.0157,8.9709,8.9191,8.9157,8.9019,8.8467,8.8019,8.7743,8.7777,8.726,8.6639,8.5673,8.519,8.4432,8.4052,8.35,8.3293,8.3397,8.3397,8.3362,8.3614,8.389,8.366,8.3453,8.3217,8.2794,8.2642,8.2284,8.1787,8.1708,8.2495,8.3096,8.3508,8.4071,8.4674,8.4498,8.4084,8.4471,8.4911,8.5351,8.5723,8.6129,10.2191,10.1551,10.1514,10.1514,10.1587,10.1514,10.1514,10.1514,10.1514,10.1514,10.1514,10.1514,10.1514,10.1477,10.1404,10.1073,10.1017,10.12,10.1164,10.109,10.12,10.0943,10.0907,10.1,10.122,10.0907,10.1604,10.2118,10.1661,10.2338,10.2228,10.1934,10.1955,10.1808,10.1661,10.2265,10.2228,10.1881,10.3093,10.2579,10.2081,10.2191,10.2081,10.1274,10.065,10.0319,9.9916,9.9695,9.9189,9.8963,9.803,9.6982,9.5909,9.4011,9.2412,9.0992,9.0047,8.9269,8.8777,8.9364,8.9881,9.051,9.064,9.0786,9.0786,9.0786,9.0786,9.0786,9.0786,9.0786,9.0786,9.0786,9.0709,9.0571,9.0088,8.9778,8.9709,8.9536,8.895,8.8398,8.895,8.9329,8.8812,8.8053,8.6639,8.5604,8.4442,8.3787,8.3466,8.3293,8.3535,8.3707,8.3707,8.4121,8.4383,8.4038,8.3821,8.3609,8.355,8.355,8.3301,8.2845,8.3007,8.3487,8.3815,8.422,8.4754,8.5323,8.5196,8.5126,8.4708,8.4986,8.5486,8.596,8.6366,10.2228,10.1514,10.1514,10.1788,10.2155,10.1734,10.1514,10.1514,10.1514,10.1514,10.1514,10.1514,10.1514,10.1367,10.1017,10.089,10.076,10.0686,10.0686,10.0796,10.1257,10.1347,10.1237,10.1257,10.133,10.1477,10.2155,10.2632,10.2375,10.2925,10.3293,10.3109,10.2595,10.2779,10.2338,10.2338,10.2045,10.2889,10.3182,10.2779,10.2375,10.2485,10.2118,10.0927,10.0503,10.0172,9.9822,9.9729,9.9759,9.9516,9.8526,9.7278,9.6011,9.4083,9.1847,9.0541,8.9527,8.8907,8.8467,8.8605,8.8812,8.9674,9.0433,9.0605,9.0778,9.0786,9.0786,9.0786,9.0786,9.0786,9.0786,9.0786,9.0778,9.0778,9.0433,9.0123,8.995,8.9743,8.9329,8.8777,8.8915,8.9122,8.8915,8.8639,8.7501,8.6984,8.6053,8.5156,8.4708,8.4121,8.4018,8.4294,8.4466,8.4811,8.4944,8.4845,8.4923,8.4967,8.482,8.4663,8.4343,8.3915,8.3984,8.4304,8.4613,8.4933,8.5635,8.6235,8.6384,8.6332,8.5885,8.579,8.6298,8.6569,8.667,10.2228,10.1514,10.1514,10.1808,10.2228,10.2008,10.1898,10.1934,10.1898,10.1788,10.1624,10.1751,10.1714,10.1494,10.1274,10.087,10.076,10.0723,10.0723,10.0796,10.12,10.1404,10.1477,10.1514,10.1477,10.1734,10.2191,10.2595,10.2191,10.3036,10.3109,10.2889,10.3146,10.2962,10.2852,10.3072,10.3182,10.388,10.388,10.3733,10.3146,10.2742,10.2375,10.1274,10.0723,10.054,10.0166,10.0062,10.0057,9.9453,9.8405,9.7015,9.5413,9.3748,9.155,9.0531,8.8986,8.8397,8.7984,8.7846,8.8122,8.8708,8.9605,9.0123,9.0329,9.0364,9.0571,9.0674,9.0778,9.0786,9.0786,9.0786,9.0786,9.0786,9.0683,9.0398,9.0295,9.0088,8.9985,8.9398,8.9191,8.9226,8.9053,8.8743,8.826,8.8019,8.7777,8.6777,8.5777,8.5121,8.457,8.4777,8.5087,8.5432,8.5742,8.589,8.6003,8.626,8.5949,8.5501,8.5328,8.4875,8.5028,8.5028,8.4982,8.5332,8.6567,8.7215,8.7362,8.7348,8.7103,8.711,8.7279,8.7177,8.7042,10.2265,10.1551,10.1531,10.1587,10.1734,10.2522,10.2779,10.2632,10.2669,10.2228,10.1624,10.2448,10.2448,10.1898,10.2265,10.2081,10.1477,10.1367,10.1294,10.1367,10.1477,10.1514,10.1514,10.1514,10.1514,10.1751,10.2155,10.2448,10.1771,10.2999,10.2925,10.2375,10.2852,10.3256,10.3953,10.4247,10.443,10.4687,10.4687,10.421,10.3366,10.3403,10.2595,10.1641,10.1147,10.1,10.0632,10.0219,9.9613,9.8846,9.7868,9.65,9.5236,9.414,9.2743,9.1073,8.8821,8.8275,8.7743,8.7674,8.7363,8.7777,8.826,8.8881,8.9605,9.0054,9.0433,9.0674,9.0786,9.0786,9.0786,9.0786,9.0786,9.0786,9.0786,9.0709,9.0709,9.064,9.0605,9.0398,9.0295,9.0123,8.9674,8.9295,8.857,8.8329,8.795,8.7294,8.6398,8.5846,8.5397,8.5294,8.5639,8.6018,8.626,8.6294,8.6294,8.6294,8.6294,8.5984,8.588,8.5683,8.5555,8.5342,8.5123,8.5651,8.6941,8.7836,8.832,8.8223,8.7983,8.755,8.7448,8.7347,8.7313,10.2742,10.1624,10.2081,10.2375,10.2558,10.3786,10.3513,10.2045,10.2412,10.2522,10.2412,10.3182,10.3293,10.3182,10.2265,10.2155,10.1788,10.1384,10.122,10.1294,10.1514,10.1514,10.1514,10.1514,10.1514,10.1808,10.2155,10.2558,10.2669,10.3492,10.4153,10.4226,10.4027,10.4577,10.4724,10.4981,10.5165,10.5275,10.5165,10.4357,10.3806,10.3806,10.2705,10.1641,10.142,10.1164,10.0265,9.959,9.8976,9.8635,9.6599,9.5065,9.4802,9.2875,9.1124,9.1038,9.002,8.9476,8.8501,8.826,8.7881,8.7225,8.7501,8.8467,8.9364,8.9985,9.0295,9.0398,9.0605,9.0605,9.0674,9.0683,9.0674,9.064,9.0605,9.0605,9.0536,9.0398,9.0398,9.0674,9.0605,9.0054,8.9709,8.9226,8.8536,8.8364,8.8053,8.7536,8.6915,8.6329,8.5949,8.5846,8.5811,8.6087,8.6225,8.6294,8.6294,8.6294,8.6294,8.6294,8.6156,8.5993,8.5884,8.5845,8.5891,8.643,8.7333,8.8062,8.8679,8.8873,8.8694,8.8091,8.7651,8.7651,8.7583,10.2395,10.1624,10.2008,10.2228,10.2375,10.3256,10.2889,10.2228,10.3146,10.3513,10.3293,10.4027,10.4027,10.3329,10.2742,10.2412,10.2008,10.142,10.1164,10.1367,10.1477,10.1514,10.1514,10.1514,10.1514,10.1808,10.2118,10.2485,10.2815,10.3382,10.4079,10.4504,10.5275,10.5311,10.5054,10.4834,10.5018,10.5165,10.5018,10.432,10.41,10.41,10.2999,10.1788,10.1824,10.109,10.0009,9.9404,9.8591,9.8042,9.5715,9.4391,9.4126,9.2494,9.1797,9.1728,9.1322,9.0605,8.9743,8.9191,8.8364,8.7674,8.757,8.826,8.8708,8.9122,8.9433,8.964,9.0054,9.0364,9.0502,9.0571,9.0467,9.0398,9.0364,9.0364,9.0157,8.995,9.0192,9.0536,9.0295,8.9709,8.9226,8.8812,8.857,8.8501,8.8398,8.8157,8.7467,8.6674,8.6329,8.6122,8.5984,8.5984,8.6156,8.6294,8.6294,8.6294,8.6294,8.6294,8.6294,8.6253,8.6084,8.6423,8.6873,8.7295,8.7544,8.83,8.8833,8.8987,8.8998,8.8497,8.8158,8.8226,8.8158,10.1587,10.1514,10.1514,10.1551,10.1551,10.1844,10.2265,10.2962,10.443,10.4761,10.4247,10.4761,10.432,10.3586,10.3256,10.2669,10.2045,10.1347,10.1147,10.1477,10.1257,10.1294,10.1477,10.1514,10.1514,10.1771,10.2228,10.2705,10.2412,10.3146,10.4063,10.4063,10.443,10.4871,10.5348,10.4687,10.4724,10.4798,10.4908,10.4651,10.4284,10.4357,10.441,10.3072,10.2685,10.2257,10.1106,9.9735,9.8111,9.7003,9.5561,9.4069,9.3266,9.3239,9.3116,9.2606,9.2054,9.1054,9.0157,8.9467,8.8846,8.8398,8.8501,8.8433,8.8433,8.8536,8.8846,8.9053,8.9433,8.9605,8.9709,8.9847,8.9847,8.9709,8.964,8.964,8.9536,8.9502,8.9812,9.0088,9.0019,8.9467,8.9122,8.8743,8.8605,8.857,8.8536,8.8467,8.8157,8.7294,8.6915,8.6639,8.6501,8.6398,8.6191,8.6294,8.6294,8.6294,8.6294,8.6294,8.6294,8.6272,8.6258,8.6388,8.6461,8.7103,8.7566,8.8053,8.8371,8.8756,8.8761,8.87,8.8666,8.87,8.8463,10.2045,10.1514,10.1514,10.1514,10.1698,10.2836,10.3403,10.377,10.5385,10.5568,10.4981,10.496,10.4887,10.441,10.3439,10.2779,10.2338,10.1347,10.111,10.1147,10.1053,10.122,10.1404,10.1514,10.1551,10.1751,10.2301,10.3293,10.3917,10.4373,10.4871,10.5642,10.5605,10.5752,10.5752,10.5018,10.4687,10.443,10.4777,10.4724,10.4284,10.4504,10.4556,10.3843,10.3456,10.2589,10.1262,9.949,9.8118,9.6877,9.4678,9.3238,9.2322,9.3426,9.3296,9.2502,9.2226,9.1192,9.0019,8.926,8.8605,8.795,8.7777,8.7915,8.8053,8.8191,8.8364,8.857,8.8743,8.8881,8.8984,8.9122,8.9157,8.9019,8.8881,8.8881,8.8881,8.9157,8.9433,8.9502,8.9536,8.9364,8.9019,8.8881,8.8639,8.857,8.857,8.8605,8.8708,8.826,8.7915,8.7605,8.726,8.7053,8.6674,8.6432,8.6467,8.6363,8.6294,8.6294,8.6294,8.6309,8.6251,8.584,8.5862,8.6642,8.7104,8.7057,8.7469,8.822,8.866,8.8632,8.8863,8.8965,8.8632,10.1898,10.1514,10.1514,10.1734,10.2155,10.2999,10.3733,10.4541,10.5458,10.5789,10.5715,10.5642,10.5474,10.5034,10.377,10.2925,10.2595,10.142,10.1274,10.1257,10.1164,10.1237,10.1404,10.1551,10.1861,10.2081,10.2925,10.399,10.5327,10.5254,10.5422,10.6229,10.6376,10.6229,10.5899,10.5275,10.4761,10.399,10.4724,10.4798,10.4504,10.5054,10.4944,10.4357,10.3588,10.2655,10.0767,9.8985,9.757,9.6355,9.4615,9.3864,9.353,9.4227,9.4116,9.3392,9.2606,9.164,9.0088,8.8984,8.8398,8.7881,8.7398,8.7708,8.7536,8.7674,8.7881,8.8122,8.857,8.8743,8.8743,8.8846,8.8501,8.826,8.8122,8.8053,8.8295,8.8605,8.8846,8.8984,8.9122,8.9329,8.926,8.9743,8.9502,8.9329,8.9226,8.9467,8.9467,8.926,8.8915,8.8605,8.8295,8.7674,8.7122,8.6846,8.6742,8.6605,8.6363,8.6294,8.6313,8.6319,8.6208,8.5916,8.5946,8.6411,8.6698,8.6616,8.7137,8.7989,8.8361,8.8598,8.8863,8.9066,8.8897,10.1514,10.1514,10.1624,10.2045,10.2669,10.2852,10.3733,10.4923,10.5107,10.5642,10.6266,10.6302,10.5862,10.5091,10.4284,10.3549,10.2779,10.2045,10.1788,10.1698,10.1514,10.1441,10.1514,10.1661,10.2338,10.3036,10.3806,10.4908,10.6156,10.5825,10.5789,10.6266,10.6229,10.5972,10.5385,10.5165,10.4944,10.4467,10.4687,10.5165,10.5495,10.5878,10.5222,10.4525,10.3594,10.2344,10.0201,9.8311,9.6851,9.5911,9.4976,9.4445,9.4296,9.471,9.4399,9.3813,9.2916,9.1778,9.0433,8.926,8.8708,8.8191,8.7708,8.7372,8.726,8.7432,8.7639,8.7881,8.8329,8.8329,8.8329,8.8191,8.7777,8.7639,8.7501,8.7303,8.7639,8.8019,8.8226,8.8433,8.8777,8.9088,8.9605,9.0123,9.0123,8.995,9.0157,9.0536,9.0674,9.026,8.9916,8.964,8.9398,8.8674,8.7777,8.726,8.7087,8.6811,8.6605,8.6432,8.6288,8.6207,8.6191,8.6232,8.6337,8.6241,8.6298,8.6325,8.6974,8.7516,8.8057,8.8361,8.8626,8.8829,8.9066,10.1514,10.1587,10.2191,10.2558,10.2815,10.3366,10.4247,10.4997,10.5107,10.5605,10.6119,10.6302,10.5899,10.5034,10.4247,10.3733,10.3623,10.2815,10.2522,10.2448,10.1898,10.1661,10.1844,10.2448,10.3403,10.4137,10.4761,10.5458,10.6266,10.6192,10.6156,10.6376,10.6376,10.6009,10.5364,10.5311,10.5458,10.4908,10.5144,10.5747,10.5353,10.5577,10.5546,10.4633,10.3311,10.1556,9.9619,9.787,9.6598,9.5716,9.5212,9.4799,9.4744,9.4848,9.4468,9.3641,9.2778,9.1468,9.0157,8.895,8.8226,8.7605,8.7225,8.7363,8.7432,8.7743,8.7846,8.7812,8.795,8.7536,8.7398,8.7191,8.6915,8.7191,8.7225,8.6915,8.6915,8.7363,8.7743,8.8088,8.8501,8.895,8.9467,8.9778,8.9812,8.9812,9.0226,9.0571,9.0786,9.0778,9.0743,9.0502,9.026,8.9571,8.8639,8.7743,8.7398,8.7087,8.6742,8.6467,8.6219,8.6077,8.6054,8.6088,8.5734,8.5419,8.5599,8.5878,8.6095,8.6602,8.755,8.8091,8.8328,8.8694,8.8998]}]]